[[{"header":{"parameterUnit":"m.s-1","parameterCategory":1,"la1":30.6,"la2":29.2853,"lo1":-89.7004,"lo2":-87.6739,"dy":0.0162,"dx":0.0183,"nx":112,"ny":82,"refTime":"2024-05-05T12:00:00:Z","depth":0,"parameterNumber":2,"parameterNumberName":"U-component_of_WINDS"},"data":[0.0,0.0,0.0,0.0,0.0,0.0,0.0,0.0,0.0,0.0,0.0,0.0,0.0,0.0,0.0,0.0,0.0,0.0,0.0,0.0,0.0,0.0,0.0,0.0,0.0,0.0,0.0,0.0,0.0,0.0,0.0,0.0,0.0,0.0,0.0,0.0,0.0,0.0,0.0,0.0,0.0,0.0,0.0,0.0,0.0,0.0,0.0,0.0,0.0,0.0,0.0,0.0,0.0,0.0,0.0,0.0,0.0,0.0,0.0,0.0,0.0,0.0,0.0,0.0,0.0,0.0,0.0,0.0,0.0,0.0,0.0,0.0,0.0,0.0,0.0,0.0,0.0,0.0,0.0,0.0,0.0,0.0,0.0,0.0,0.0,0.0,0.0,0.0,0.0,0.0,0.0,-4.7505,-4.8316,-4.849,-4.7749,-4.7567,-4.7167,-4.6426,0.0,0.0,0.0,0.0,0.0,0.0,0.0,0.0,0.0,0.0,0.0,0.0,0.0,0.0,0.0,0.0,0.0,0.0,0.0,0.0,0.0,0.0,0.0,0.0,0.0,0.0,0.0,0.0,0.0,0.0,0.0,0.0,0.0,0.0,0.0,0.0,0.0,0.0,0.0,0.0,0.0,0.0,0.0,0.0,0.0,0.0,0.0,0.0,0.0,0.0,0.0,0.0,0.0,0.0,0.0,0.0,0.0,0.0,0.0,0.0,0.0,0.0,0.0,0.0,0.0,0.0,0.0,0.0,0.0,0.0,0.0,0.0,0.0,0.0,0.0,0.0,0.0,0.0,0.0,0.0,0.0,0.0,0.0,0.0,0.0,0.0,0.0,0.0,0.0,0.0,0.0,0.0,0.0,0.0,0.0,0.0,0.0,0.0,0.0,0.0,0.0,0.0,0.0,0.0,-4.7549,-4.8409,-4.8632,-4.8656,-4.8539,-4.7843,-4.7356,-4.7239,0.0,0.0,0.0,0.0,0.0,0.0,0.0,0.0,0.0,0.0,0.0,0.0,0.0,0.0,0.0,0.0,0.0,0.0,0.0,0.0,0.0,0.0,0.0,0.0,0.0,0.0,0.0,0.0,0.0,0.0,0.0,0.0,0.0,0.0,0.0,0.0,0.0,0.0,0.0,0.0,0.0,0.0,0.0,0.0,0.0,0.0,0.0,0.0,0.0,0.0,0.0,0.0,0.0,0.0,0.0,0.0,0.0,0.0,0.0,0.0,0.0,0.0,0.0,0.0,0.0,0.0,0.0,0.0,0.0,0.0,0.0,0.0,0.0,0.0,0.0,0.0,0.0,0.0,0.0,0.0,0.0,0.0,0.0,0.0,0.0,0.0,0.0,0.0,0.0,0.0,0.0,0.0,0.0,0.0,0.0,0.0,0.0,0.0,0.0,0.0,0.0,0.0,0.0,-4.7259,-4.8374,-4.926,-4.9761,-4.9883,-4.9435,-4.9046,-4.8404,-4.7451,-4.6672,0.0,0.0,0.0,0.0,0.0,0.0,0.0,0.0,0.0,0.0,0.0,0.0,0.0,0.0,0.0,0.0,0.0,0.0,0.0,0.0,0.0,0.0,0.0,0.0,0.0,0.0,0.0,0.0,0.0,0.0,0.0,0.0,0.0,0.0,0.0,0.0,0.0,0.0,0.0,0.0,0.0,0.0,0.0,0.0,0.0,0.0,0.0,0.0,0.0,0.0,0.0,0.0,0.0,0.0,0.0,0.0,0.0,0.0,0.0,0.0,0.0,0.0,0.0,0.0,0.0,0.0,0.0,0.0,0.0,0.0,0.0,0.0,0.0,0.0,0.0,0.0,0.0,0.0,0.0,0.0,0.0,0.0,0.0,0.0,0.0,0.0,0.0,0.0,0.0,0.0,0.0,0.0,0.0,0.0,0.0,0.0,0.0,0.0,0.0,0.0,0.0,0.0,-4.8351,-4.9229,-5.0087,-5.0789,-5.0936,-5.0314,-5.0061,-4.9381,-4.8054,-4.7573,0.0,0.0,0.0,0.0,0.0,0.0,0.0,0.0,0.0,0.0,0.0,0.0,0.0,0.0,0.0,0.0,0.0,0.0,0.0,0.0,0.0,0.0,0.0,0.0,0.0,0.0,0.0,0.0,0.0,0.0,0.0,0.0,0.0,0.0,0.0,0.0,0.0,0.0,0.0,0.0,0.0,0.0,0.0,0.0,0.0,0.0,0.0,0.0,0.0,0.0,0.0,0.0,0.0,0.0,0.0,0.0,0.0,0.0,0.0,0.0,0.0,0.0,0.0,0.0,0.0,0.0,0.0,0.0,0.0,0.0,0.0,0.0,0.0,0.0,0.0,0.0,0.0,0.0,0.0,0.0,0.0,0.0,0.0,0.0,0.0,0.0,0.0,0.0,0.0,0.0,0.0,0.0,0.0,0.0,0.0,0.0,0.0,0.0,0.0,0.0,0.0,0.0,-4.9188,-5.0041,-5.0913,-5.1075,-5.1075,-5.1037,-5.028,-4.9757,-4.964,-4.8108,0.0,0.0,0.0,0.0,0.0,0.0,0.0,0.0,0.0,0.0,0.0,0.0,0.0,0.0,0.0,0.0,0.0,0.0,0.0,0.0,0.0,0.0,0.0,0.0,0.0,0.0,0.0,0.0,0.0,0.0,0.0,0.0,0.0,0.0,0.0,0.0,0.0,0.0,0.0,0.0,0.0,0.0,0.0,0.0,0.0,0.0,0.0,0.0,0.0,0.0,0.0,0.0,0.0,0.0,0.0,0.0,0.0,0.0,0.0,0.0,0.0,0.0,0.0,0.0,0.0,0.0,0.0,0.0,0.0,0.0,0.0,0.0,0.0,0.0,0.0,0.0,0.0,0.0,0.0,0.0,0.0,0.0,0.0,0.0,0.0,0.0,0.0,0.0,0.0,0.0,0.0,0.0,0.0,0.0,0.0,0.0,0.0,0.0,0.0,0.0,0.0,0.0,-4.9225,-5.0091,0.0,-5.1101,-5.1101,-5.1101,-5.081,-5.0383,-4.9821,0.0,0.0,0.0,0.0,0.0,0.0,0.0,0.0,0.0,0.0,0.0,0.0,0.0,0.0,0.0,0.0,0.0,0.0,0.0,0.0,0.0,0.0,0.0,0.0,0.0,0.0,0.0,0.0,0.0,0.0,0.0,0.0,0.0,0.0,0.0,0.0,0.0,0.0,0.0,0.0,0.0,0.0,0.0,0.0,0.0,0.0,0.0,0.0,0.0,0.0,0.0,0.0,0.0,0.0,0.0,0.0,0.0,0.0,0.0,0.0,0.0,0.0,0.0,0.0,0.0,0.0,0.0,0.0,0.0,0.0,0.0,0.0,0.0,0.0,0.0,0.0,0.0,0.0,0.0,0.0,0.0,0.0,0.0,0.0,0.0,0.0,0.0,0.0,0.0,0.0,0.0,0.0,0.0,0.0,0.0,0.0,0.0,0.0,0.0,0.0,0.0,0.0,-4.8693,-4.9567,-5.0325,0.0,-5.1032,-5.1039,-5.1044,-5.1044,-5.0773,-5.0158,0.0,0.0,0.0,0.0,0.0,0.0,0.0,0.0,0.0,0.0,0.0,0.0,0.0,0.0,0.0,0.0,0.0,0.0,0.0,0.0,0.0,0.0,0.0,0.0,0.0,0.0,0.0,0.0,0.0,0.0,0.0,0.0,0.0,0.0,0.0,0.0,0.0,0.0,0.0,0.0,0.0,0.0,0.0,0.0,0.0,0.0,0.0,0.0,0.0,0.0,0.0,0.0,0.0,0.0,0.0,0.0,0.0,0.0,0.0,0.0,0.0,0.0,0.0,0.0,0.0,0.0,0.0,0.0,0.0,0.0,0.0,0.0,0.0,0.0,0.0,0.0,0.0,0.0,0.0,0.0,0.0,0.0,0.0,0.0,0.0,0.0,0.0,0.0,0.0,0.0,0.0,0.0,0.0,0.0,0.0,0.0,0.0,0.0,0.0,0.0,0.0,0.0,-4.9395,-5.0325,-5.0919,-5.0919,-5.0913,-5.0921,-5.0919,-5.0919,-5.0883,0.0,0.0,0.0,0.0,0.0,0.0,0.0,0.0,0.0,0.0,0.0,0.0,0.0,0.0,0.0,0.0,0.0,0.0,0.0,0.0,0.0,0.0,0.0,0.0,0.0,0.0,0.0,0.0,0.0,0.0,0.0,0.0,0.0,0.0,0.0,0.0,0.0,0.0,0.0,0.0,0.0,0.0,0.0,0.0,0.0,0.0,0.0,0.0,0.0,0.0,0.0,0.0,0.0,0.0,0.0,0.0,0.0,0.0,0.0,0.0,0.0,0.0,0.0,0.0,0.0,0.0,0.0,0.0,0.0,0.0,0.0,0.0,0.0,0.0,0.0,0.0,0.0,0.0,0.0,0.0,0.0,0.0,0.0,0.0,0.0,0.0,0.0,0.0,0.0,0.0,0.0,0.0,0.0,0.0,0.0,0.0,0.0,0.0,0.0,0.0,0.0,0.0,0.0,-4.9472,-5.0821,-5.1756,-5.1756,-5.2247,-5.2594,-5.2585,-5.2064,-5.1747,-5.1718,0.0,0.0,0.0,0.0,0.0,0.0,0.0,0.0,0.0,0.0,0.0,0.0,0.0,0.0,0.0,0.0,0.0,0.0,0.0,0.0,0.0,0.0,0.0,0.0,0.0,0.0,0.0,0.0,0.0,0.0,0.0,0.0,0.0,0.0,0.0,0.0,0.0,0.0,0.0,0.0,0.0,0.0,0.0,0.0,0.0,0.0,0.0,0.0,0.0,0.0,0.0,0.0,0.0,0.0,0.0,0.0,0.0,0.0,0.0,0.0,0.0,0.0,0.0,0.0,0.0,0.0,0.0,0.0,0.0,0.0,0.0,0.0,0.0,0.0,0.0,0.0,0.0,0.0,0.0,0.0,0.0,0.0,0.0,0.0,0.0,0.0,0.0,0.0,0.0,0.0,0.0,0.0,0.0,0.0,0.0,0.0,0.0,0.0,0.0,0.0,0.0,0.0,-5.0374,-5.1403,-5.2183,-5.253,-5.3012,-5.3301,-5.3311,-5.2858,-5.2425,-5.204,0.0,0.0,0.0,0.0,0.0,0.0,0.0,0.0,0.0,0.0,0.0,0.0,0.0,0.0,0.0,0.0,0.0,0.0,0.0,0.0,0.0,0.0,0.0,0.0,0.0,0.0,0.0,0.0,0.0,0.0,0.0,0.0,0.0,0.0,0.0,0.0,0.0,0.0,0.0,0.0,0.0,0.0,0.0,0.0,0.0,0.0,0.0,0.0,0.0,0.0,0.0,0.0,0.0,0.0,0.0,0.0,0.0,0.0,0.0,0.0,0.0,0.0,0.0,0.0,0.0,0.0,0.0,0.0,0.0,0.0,0.0,0.0,0.0,0.0,0.0,0.0,0.0,0.0,0.0,0.0,0.0,0.0,0.0,0.0,0.0,0.0,0.0,0.0,0.0,0.0,0.0,0.0,0.0,0.0,0.0,0.0,0.0,0.0,0.0,0.0,0.0,0.0,-5.1702,-5.2068,-5.2531,-5.3301,-5.3456,-5.3494,-5.3494,-5.3436,-5.3031,-5.2182,0.0,0.0,0.0,0.0,0.0,0.0,0.0,0.0,0.0,0.0,0.0,0.0,0.0,0.0,0.0,0.0,0.0,0.0,0.0,0.0,0.0,0.0,0.0,0.0,0.0,0.0,0.0,0.0,0.0,0.0,0.0,0.0,0.0,0.0,0.0,0.0,0.0,0.0,0.0,0.0,0.0,0.0,0.0,0.0,0.0,0.0,0.0,0.0,0.0,0.0,0.0,0.0,0.0,0.0,0.0,0.0,0.0,0.0,0.0,0.0,-4.3131,0.0,0.0,0.0,0.0,0.0,0.0,0.0,0.0,0.0,0.0,0.0,0.0,0.0,0.0,0.0,0.0,0.0,0.0,0.0,0.0,0.0,0.0,0.0,0.0,0.0,0.0,0.0,0.0,0.0,0.0,0.0,0.0,0.0,0.0,0.0,0.0,0.0,0.0,0.0,0.0,0.0,-5.1702,-5.296,-5.3881,-5.4065,-5.4652,-5.5036,-5.5025,-5.4449,-5.3996,-5.3812,-5.2497,0.0,0.0,0.0,0.0,0.0,0.0,0.0,0.0,0.0,0.0,0.0,0.0,0.0,0.0,0.0,0.0,0.0,0.0,0.0,0.0,0.0,0.0,0.0,0.0,0.0,0.0,0.0,0.0,0.0,0.0,0.0,0.0,0.0,0.0,0.0,0.0,0.0,0.0,0.0,0.0,0.0,0.0,0.0,0.0,0.0,0.0,0.0,0.0,0.0,0.0,0.0,0.0,0.0,0.0,0.0,0.0,0.0,0.0,0.0,0.0,-4.4457,0.0,0.0,0.0,0.0,0.0,0.0,0.0,0.0,0.0,0.0,0.0,0.0,0.0,0.0,0.0,0.0,0.0,0.0,0.0,0.0,0.0,0.0,0.0,0.0,0.0,0.0,0.0,0.0,0.0,0.0,0.0,0.0,0.0,0.0,0.0,0.0,0.0,0.0,0.0,0.0,-5.2847,-5.3729,-5.4438,-5.4852,-5.5255,-5.5504,-5.5504,-5.5121,-5.4706,-5.4323,-5.3418,0.0,0.0,0.0,0.0,0.0,0.0,0.0,0.0,0.0,0.0,0.0,0.0,0.0,0.0,0.0,0.0,0.0,0.0,0.0,0.0,0.0,0.0,0.0,0.0,0.0,0.0,0.0,0.0,0.0,0.0,0.0,0.0,0.0,0.0,0.0,0.0,0.0,0.0,0.0,0.0,0.0,0.0,0.0,0.0,0.0,0.0,0.0,0.0,0.0,0.0,0.0,0.0,0.0,-5.1607,-5.1711,-5.1874,-5.1198,-5.0541,-4.9847,-4.8457,-4.7582,-4.7109,0.0,0.0,0.0,0.0,0.0,0.0,0.0,0.0,0.0,0.0,0.0,0.0,0.0,0.0,0.0,0.0,0.0,0.0,0.0,0.0,0.0,0.0,0.0,0.0,0.0,-4.5725,-4.6347,0.0,0.0,0.0,0.0,0.0,0.0,0.0,0.0,0.0,0.0,0.0,0.0,-5.4089,-5.4403,-5.4759,-5.5411,-5.5488,-5.5488,-5.5488,-5.5488,-5.5188,-5.4487,-5.4279,-5.3534,0.0,0.0,0.0,0.0,0.0,0.0,0.0,0.0,0.0,0.0,0.0,0.0,0.0,0.0,0.0,0.0,0.0,0.0,0.0,0.0,0.0,0.0,0.0,0.0,0.0,0.0,0.0,0.0,0.0,0.0,0.0,0.0,-4.3424,-4.3731,0.0,0.0,0.0,0.0,0.0,0.0,0.0,0.0,0.0,0.0,0.0,0.0,0.0,-5.0861,-5.1063,-5.1286,-5.147,-5.1607,-5.1607,-5.1711,-5.1912,-5.1799,-5.1686,-5.1574,-5.1349,0.0,-4.7109,-4.7174,0.0,0.0,0.0,0.0,0.0,0.0,0.0,0.0,0.0,0.0,0.0,0.0,0.0,0.0,0.0,0.0,0.0,0.0,0.0,0.0,0.0,0.0,-4.6366,-4.712,-4.7463,-4.7559,0.0,-4.7387,-4.7502,-4.7616,-4.8334,0.0,0.0,0.0,0.0,0.0,0.0,0.0,-5.411,-5.4798,-5.5314,-5.5409,-5.5409,-5.5409,-5.5409,-5.5409,-5.5326,-5.5103,-5.4409,-5.3906,-5.3617,-5.2081,0.0,0.0,0.0,0.0,0.0,0.0,0.0,0.0,0.0,0.0,0.0,0.0,0.0,0.0,0.0,0.0,0.0,0.0,0.0,0.0,0.0,0.0,0.0,0.0,0.0,0.0,0.0,0.0,0.0,-4.3364,-4.4137,-4.471,-4.549,-4.618,0.0,0.0,0.0,0.0,0.0,0.0,0.0,0.0,0.0,-5.1099,-5.1581,-5.1898,-5.2067,-5.2977,-5.3498,-5.3699,-5.4184,-5.4255,-5.3979,-5.3979,-5.3489,-5.2625,-5.2625,-5.1552,-4.9762,-4.9426,-4.9027,-4.8603,0.0,0.0,0.0,0.0,-4.6942,-4.6316,-4.6316,-4.5848,0.0,0.0,0.0,0.0,0.0,0.0,0.0,0.0,0.0,0.0,0.0,0.0,0.0,-4.7712,-4.8181,-4.8525,-4.8525,-4.927,-4.9671,0.0,-4.9595,-5.0627,-5.0971,0.0,0.0,0.0,0.0,0.0,-5.4772,-5.5556,-5.6058,-5.6025,-5.6425,-5.6679,-5.6643,-5.6219,-5.5938,-5.5873,-5.5091,-5.4398,-5.3919,-5.3169,-5.2115,0.0,0.0,0.0,0.0,0.0,0.0,0.0,0.0,0.0,0.0,0.0,0.0,0.0,0.0,0.0,0.0,0.0,0.0,0.0,0.0,0.0,0.0,0.0,0.0,0.0,0.0,0.0,0.0,-4.4383,-4.4845,-4.5524,-4.6524,-4.7438,0.0,0.0,0.0,0.0,0.0,0.0,-5.1114,-5.1362,-5.1684,-5.2003,-5.2674,-5.3216,-5.3553,-5.4741,-5.5433,-5.5641,-5.6295,-5.6369,-5.5931,-5.5931,-5.516,-5.3808,-5.3808,-5.332,-5.2456,-5.1566,-5.0851,-5.0296,-4.9797,-4.924,-4.8647,-4.8439,-4.823,-4.8003,-4.7808,-4.7586,-4.7409,-4.746,0.0,-4.751,-4.7559,0.0,0.0,0.0,0.0,-4.7812,-4.8033,-4.8109,-4.8216,-4.8667,-4.927,-4.9786,-4.9973,-5.1004,-5.1462,0.0,-5.0913,-5.1983,-5.2212,0.0,0.0,0.0,0.0,-5.4944,-5.5593,-5.6362,-5.6832,-5.6782,-5.7315,-5.7644,-5.761,-5.7054,-5.6616,-5.6378,-5.577,-5.5033,-5.4187,-5.3917,-5.3186,-5.1934,0.0,0.0,0.0,0.0,0.0,0.0,0.0,0.0,0.0,0.0,0.0,0.0,0.0,0.0,0.0,0.0,0.0,0.0,0.0,0.0,0.0,0.0,0.0,0.0,0.0,0.0,0.0,0.0,0.0,-4.6411,-4.7949,0.0,0.0,0.0,0.0,-5.0602,-5.1419,-5.194,-5.194,-5.2723,-5.358,-5.4478,-5.4672,-5.5198,-5.6116,-5.619,-5.6326,-5.6538,-5.6575,-5.6687,-5.6831,-5.6831,-5.6343,-5.548,-5.548,-5.5011,-5.4146,-5.2594,-5.1996,-5.2069,-5.2103,-5.2119,-5.2059,-5.1286,-5.0486,-4.9665,-4.8907,-4.8092,-4.7397,-4.7409,-4.7448,-4.7498,-4.7498,-4.7547,0.0,0.0,-4.7615,-4.7829,-4.8708,-4.8948,-4.936,-5.1023,-5.1448,-5.1672,-5.2374,-5.259,-5.2412,0.0,-5.2155,-5.2996,-5.3836,0.0,-5.4333,-5.5212,-5.5929,-5.639,-5.6428,-5.7097,-5.7553,-5.7553,-5.7587,-5.7606,-5.761,-5.7553,-5.7196,-5.6363,-5.6268,-5.5806,-5.4897,-5.4105,-5.3669,-5.3575,-5.1964,0.0,0.0,0.0,0.0,0.0,0.0,0.0,0.0,0.0,0.0,0.0,0.0,0.0,0.0,0.0,0.0,0.0,0.0,0.0,0.0,0.0,0.0,0.0,0.0,0.0,0.0,0.0,0.0,-4.7968,-4.9128,0.0,-5.0645,-5.1104,-5.1614,-5.2226,-5.258,-5.2766,-5.2766,-5.3668,-5.4345,-5.4681,-5.5419,-5.5965,-5.6302,-5.6822,-5.7164,-5.7379,-5.7882,-5.7978,-5.7676,-5.7676,-5.7225,-5.6436,-5.6436,-5.6267,-5.5911,-5.4783,-5.376,-5.2859,-5.2466,-5.2298,-5.2309,-5.2049,-5.1793,-5.1471,-5.1187,-5.0542,-4.9746,-4.9178,-4.9034,-4.9028,-4.9028,-4.9099,-4.915,-4.915,-4.9575,-5.0127,-5.0456,-5.0932,-5.1466,-5.2101,-5.2247,-5.231,-5.257,-5.3084,-5.3402,-5.3129,-5.3314,-5.36,-5.3924,-5.4871,-5.569,-5.5995,-5.6697,-5.7216,-5.7216,-5.7944,-5.8413,-5.8388,-5.8844,-5.9117,-5.909,-5.8615,-5.8182,-5.7848,-5.6823,-5.6053,-5.5639,-5.4845,-5.4114,-5.352,-5.2934,-5.1918,0.0,0.0,0.0,0.0,0.0,0.0,0.0,0.0,0.0,0.0,0.0,0.0,0.0,0.0,0.0,0.0,0.0,0.0,0.0,0.0,0.0,0.0,0.0,0.0,0.0,0.0,-4.8424,-4.9264,-5.017,-5.0972,-5.1612,-5.2029,-5.2517,-5.3148,-5.3463,-5.361,-5.3653,-5.4578,-5.5256,-5.5556,-5.6314,-5.684,-5.7119,-5.7639,-5.8021,-5.8219,-5.8761,-5.8839,-5.8502,-5.8502,-5.807,-5.73,-5.73,-5.715,-5.6849,-5.6286,-5.5438,-5.4416,-5.3431,-5.3089,-5.3097,-5.2858,-5.2807,-5.2798,-5.2513,-5.2044,-5.1509,-5.0921,-5.0732,-5.0732,-5.0732,-5.0773,-5.08,-5.08,-5.1245,-5.1741,-5.1768,-5.218,-5.2656,-5.2968,-5.3044,-5.312,-5.3359,-5.3873,-5.4353,-5.461,-5.4481,-5.4409,-5.468,-5.5665,-5.6483,-5.6768,-5.75,-5.7999,-5.7999,-5.8726,-5.9212,-5.9185,-5.9659,-5.995,-5.9902,-5.9412,-5.8976,-5.8659,-5.7599,-5.6661,-5.598,-5.5451,-5.4739,-5.3858,-5.3541,-5.2579,-5.0904,0.0,0.0,0.0,0.0,0.0,0.0,0.0,0.0,0.0,0.0,0.0,0.0,0.0,0.0,0.0,0.0,0.0,0.0,0.0,0.0,0.0,0.0,0.0,-4.872,-4.8862,-4.9318,-5.0224,-5.1118,-5.1703,-5.181,-5.2666,-5.3185,-5.3185,-5.3959,-5.4464,-5.4588,-5.5449,-5.6369,-5.7272,-5.7448,-5.7918,-5.8698,-5.8716,-5.8801,-5.9003,-5.8984,-5.9101,-5.9309,-5.929,-5.8877,-5.8127,-5.8127,-5.7713,-5.6962,-5.6943,-5.6943,-5.6792,-5.5206,-5.4678,-5.4726,-5.3895,-5.3637,-5.3613,-5.2741,-5.2442,-5.2442,-5.2404,-5.2385,-5.2385,-5.2385,-5.2385,-5.2385,-5.2385,-5.2419,-5.2471,-5.2522,-5.2569,-5.281,-5.3715,-5.3938,-5.412,-5.4843,-5.5019,-5.5274,-5.6053,-5.5641,-5.5436,-5.6293,-5.6445,-5.6735,-5.7519,-5.8331,0.0,-5.8836,-5.9476,-5.9902,-5.9902,-5.9902,-5.9885,-5.9904,-5.9904,-5.9512,-5.858,-5.8505,-5.7753,-5.605,-5.592,-5.5522,-5.4711,-5.3843,-5.2582,-5.0964,0.0,0.0,0.0,0.0,0.0,0.0,0.0,0.0,0.0,0.0,0.0,0.0,0.0,0.0,0.0,0.0,0.0,0.0,0.0,0.0,0.0,0.0,-4.8955,-4.8869,-4.9952,-5.0875,-5.1137,-5.2021,-5.263,-5.2669,-5.2996,-5.3185,-5.3185,-5.4044,-5.4567,-5.4609,-5.6069,-5.7027,-5.7291,-5.7986,-5.8494,-5.8716,-5.8716,-5.8779,-5.8921,-5.8964,-5.9081,-5.9234,-5.9272,-5.9178,-5.8971,-5.8971,-5.884,-5.8596,-5.8014,-5.7769,-5.7657,-5.6692,-5.5988,-5.5494,-5.5314,-5.4922,-5.4394,-5.3602,-5.3347,-5.3252,-5.2613,-5.2385,-5.2385,-5.2385,-5.2385,-5.2385,-5.2385,-5.2873,-5.3347,-5.3376,-5.3793,-5.4305,-5.4562,-5.4638,-5.4695,-5.4874,-5.5424,-5.5936,-5.6152,-5.652,-5.6839,-5.7081,-5.7651,-5.8144,-5.8356,-5.908,0.0,-5.9611,-5.9769,-5.9902,-5.9902,-5.9902,-5.9888,-5.9824,-5.9824,-5.9677,-5.9311,-5.8744,-5.8182,-5.7587,-5.644,-5.539,-5.4512,-5.3666,-5.3026,0.0,0.0,0.0,0.0,0.0,0.0,0.0,0.0,0.0,0.0,0.0,0.0,0.0,0.0,0.0,0.0,0.0,0.0,0.0,0.0,0.0,0.0,-4.9007,-4.9725,-4.9988,-5.0886,-5.1679,-5.2069,-5.2638,-5.302,-5.3082,-5.3146,-5.3206,-5.3251,-5.4402,-5.5149,-5.5214,-5.6855,-5.7828,-5.7891,-5.8415,-5.8716,-5.8716,-5.8716,-5.8758,-5.8899,-5.8982,-5.9062,-5.9215,-5.9272,-5.929,0.0,-5.929,-5.929,-5.9253,-5.8802,-5.8614,0.0,0.0,0.0,0.0,0.0,-5.5646,-5.5196,-5.4428,-5.4189,-5.4124,-5.3613,-5.3461,-5.3461,-5.3461,-5.3461,-5.3461,-5.3461,-5.3821,-5.42,-5.42,-5.456,-5.4901,-5.4901,-5.5185,-5.5451,-5.5451,-5.6114,-5.6815,-5.7175,-5.7611,0.0,-5.8388,-5.8578,-5.8805,-5.9162,-5.9601,-5.9902,-5.9902,-5.9902,-5.9902,-5.9902,-5.9872,-5.9841,-5.9809,-5.974,0.0,0.0,0.0,-5.8493,-5.769,-5.6394,0.0,0.0,0.0,-5.3543,-5.3205,0.0,0.0,0.0,-4.9175,-4.8625,0.0,0.0,0.0,0.0,0.0,0.0,0.0,0.0,0.0,0.0,0.0,0.0,0.0,0.0,0.0,0.0,-4.9888,-5.069,-5.1514,-5.1718,-5.2068,-5.2907,-5.302,-5.3082,-5.3185,-5.3206,-5.3267,-5.3426,-5.4944,-5.5953,-5.6214,0.0,0.0,0.0,0.0,-5.8716,-5.8716,-5.8716,-5.8758,-5.8879,-5.8944,-5.9062,-5.9177,-5.9253,-5.929,-5.929,-5.929,-5.929,-5.929,-5.929,-5.929,-5.9159,-5.7619,-5.7072,-5.7027,-5.6302,-5.6064,-5.5996,-5.5199,0.0,0.0,-5.4924,-5.4886,-5.4901,-5.4901,-5.4901,-5.4901,-5.4901,-5.4901,-5.4901,-5.4901,-5.4901,-5.492,-5.5015,-5.564,-5.6209,-5.6323,-5.6967,-5.7782,-5.854,-5.8767,-5.9067,-5.9788,-5.9314,-5.9086,-5.9807,-5.9902,-5.9902,-5.9902,-5.9885,-5.9888,-5.9888,0.0,0.0,-5.9776,-5.9652,-5.9563,-5.9475,-5.9475,-5.8743,-5.7094,-5.6211,-5.5349,-5.4559,-5.4446,-5.4052,-5.3337,-5.3243,-5.2794,-5.2006,-5.0391,-4.9668,0.0,0.0,0.0,0.0,0.0,0.0,0.0,0.0,0.0,0.0,0.0,0.0,0.0,0.0,0.0,-4.9049,-4.9971,-5.0837,-5.1642,-5.2401,-5.2917,-5.3002,-5.3103,-5.3164,-5.3185,-5.3251,-5.3592,-5.4294,-5.5404,-5.6342,-5.7031,-5.8076,0.0,-5.8716,-5.8716,-5.8716,-5.8716,-5.8716,-5.8716,-5.8737,0.0,0.0,-5.9024,-5.9234,-5.929,-5.929,-5.929,-5.929,-5.929,-5.929,-5.929,-5.9196,-5.8239,-5.7882,-5.7805,-5.7048,-5.6798,-5.67,-5.5956,-5.5734,-5.5684,-5.5022,-5.486,-5.4901,-5.4901,-5.4901,0.0,-5.4901,-5.4901,-5.4901,-5.4901,-5.4901,-5.5091,-5.5773,-5.6076,-5.6379,-5.7024,-5.7839,-5.8499,-5.8669,-5.9219,-5.9731,-5.9883,-5.9772,-5.9715,-5.9883,-5.9902,-5.9902,-5.9902,-5.9839,-5.9807,-5.9807,-5.9704,-5.9617,-5.9546,-5.9529,-5.9475,-5.9346,-5.9346,-5.8896,-5.792,-5.7075,-5.6249,-5.5368,-5.4728,-5.4315,-5.4165,-5.3524,-5.3111,-5.2923,-5.1252,-5.0463,0.0,0.0,0.0,0.0,0.0,0.0,0.0,0.0,0.0,0.0,0.0,-4.6934,-4.7395,0.0,-4.8987,-4.987,-5.0717,-5.1584,-5.2435,-5.2955,-5.3233,-5.3151,-5.3212,-5.344,-5.3907,-5.3967,-5.4382,-5.5293,-5.6191,-5.6904,-5.7371,-5.8229,-5.8716,-5.8716,-5.8716,-5.8716,-5.8716,-5.8716,-5.8716,-5.8698,-5.8904,-5.9004,-5.9004,-5.9197,-5.929,-5.929,-5.929,-5.929,-5.929,-5.929,-5.929,-5.9253,-5.8858,-5.8708,-5.8614,-5.7842,-5.7558,-5.7498,-5.6721,-5.6486,-5.6417,-5.5653,-5.5419,-5.5371,-5.5019,-5.4901,-5.4901,-5.4901,-5.4901,-5.4996,-5.5432,-5.5546,-5.5754,-5.6588,-5.7118,-5.7554,-5.7952,-5.871,-5.9314,-5.9314,-5.9636,-5.9902,-5.9902,-5.9902,-5.9902,-5.9902,-5.9902,-5.9888,-5.9839,-5.9807,-5.9774,-5.9704,-5.9617,-5.9546,-5.9493,-5.9438,-5.9364,-5.929,-5.929,-5.8933,-5.8127,-5.7713,-5.6906,-5.5612,-5.5199,-5.4803,-5.4409,-5.3996,-5.3789,-5.377,-5.2529,-5.1496,0.0,0.0,0.0,0.0,0.0,0.0,0.0,0.0,-4.6174,-4.6977,-4.7122,-4.7417,-4.8319,-4.9015,-4.9825,-5.0897,-5.1634,-5.2355,-5.3228,-5.3339,-5.3359,-5.338,-5.3488,-5.3859,-5.4626,-5.4849,-5.5355,-5.6272,-5.6959,-5.7446,-5.7711,-5.8364,-5.8716,-5.8716,-5.8716,-5.8716,-5.8716,-5.8716,-5.8716,-5.8698,-5.8904,-5.9004,-5.9004,-5.9197,-5.929,-5.929,-5.929,-5.929,-5.929,-5.929,-5.929,-5.9309,-5.929,-5.929,-5.9215,-5.8558,-5.8369,-5.8274,-5.75,-5.7252,-5.7186,-5.6455,-5.6239,-5.6138,-5.5553,-5.5394,-5.5394,-5.5394,-5.5394,-5.5546,-5.6247,-5.6436,-5.6645,-5.746,-5.818,-5.8745,-5.8916,-5.943,-5.9902,-5.9902,-5.9902,-5.9902,-5.9902,-5.9902,-5.9902,-5.9902,-5.9888,-5.9855,-5.9809,-5.9776,-5.9705,-5.9598,-5.9492,-5.9457,-5.9457,-5.9364,-5.929,-5.929,-5.929,-5.9009,-5.837,-5.8164,-5.7376,-5.5874,-5.5687,-5.5199,-5.4409,-5.4409,-5.4409,-5.4371,-5.3733,-5.2642,-4.643,-4.6307,-4.6168,-4.6056,-4.6096,-4.6354,0.0,0.0,-4.7408,-4.8162,-4.8309,-4.8548,-4.9377,-4.9616,-5.0207,-5.1852,-5.2204,-5.2556,-5.335,-5.3479,-5.3519,-5.3636,-5.4186,-5.4589,-5.4681,-5.5449,-5.627,-5.7105,-5.7373,-5.7804,-5.8531,-5.8661,-5.8716,-5.8716,-5.8716,-5.8716,-5.8716,-5.8716,-5.8716,-5.8698,-5.8904,-5.9004,-5.9004,-5.9197,-5.929,-5.929,-5.929,-5.929,-5.929,-5.929,-5.929,-5.929,-5.9234,-5.9196,-5.9215,-5.9178,-5.9122,-5.899,-5.8239,-5.8029,-5.7967,-5.7222,-5.7059,-5.714,-5.7141,-5.7118,-5.7118,-5.7118,-5.7118,-5.7137,-5.7232,-5.727,-5.7479,-5.835,-5.8631,-5.8916,-5.9601,-5.9845,-5.9902,-5.9902,-5.9902,-5.9902,-5.9902,-5.9902,-5.9902,-5.9902,-5.9857,-5.9809,-5.9809,-5.9636,-5.9529,-5.9511,-5.9401,-5.9327,-5.9327,-5.9309,-5.929,-5.929,-5.929,-5.9253,-5.9178,-5.8483,-5.7694,-5.6774,-5.5987,-5.5199,-5.4409,-5.4409,-5.4409,-5.4409,-5.4315,-5.377,-4.6756,-4.697,-4.7231,0.0,-4.7399,-4.7772,-4.8033,-4.8106,-4.8199,-4.8477,-4.8956,-4.9417,-4.9749,-5.058,-5.1466,0.0,-5.2687,-5.3131,-5.3561,-5.3616,-5.3822,-5.4404,-5.5163,-5.5643,-5.5643,-5.6407,-5.7243,-5.806,-5.8176,-5.8364,-5.8679,-5.8716,-5.8716,-5.8716,-5.8716,-5.8716,-5.8716,-5.8716,-5.8716,-5.8698,-5.8904,-5.9004,-5.9004,-5.9197,-5.929,-5.929,-5.929,-5.929,-5.929,-5.929,-5.9272,-5.9253,-5.9196,-5.9158,-5.9101,-5.9196,-5.9215,-5.9159,-5.8896,-5.882,-5.8725,-5.7986,-5.7827,-5.7872,-5.7459,-5.7371,-5.7403,-5.7403,-5.7403,-5.7516,-5.8009,-5.8161,-5.8369,-5.9184,-5.9409,-5.9487,-5.9845,-5.9902,-5.9902,-5.9902,-5.9902,-5.9902,-5.9902,-5.9872,-5.9841,-5.9841,-5.9826,-5.9759,-5.9636,-5.9565,-5.9475,-5.9401,-5.9327,-5.929,-5.929,-5.929,-5.929,-5.929,-5.929,-5.929,-5.929,-5.899,-5.8201,-5.6925,-5.6549,-5.5704,-5.4409,-5.4409,-5.4409,-5.4409,-5.4409,-5.4221,-4.7491,0.0,0.0,-4.8137,-4.8499,-4.8857,-4.8768,-4.8714,-4.8733,-4.8937,-4.9492,-5.0065,-5.0546,-5.1544,-5.2413,-5.2673,-5.3191,-5.3619,-5.3696,-5.3919,-5.4291,-5.4926,-5.5967,-5.6636,-5.6636,-5.736,-5.8085,-5.8661,-5.8716,-5.8716,-5.8716,-5.8716,-5.8716,-5.8716,-5.8716,-5.8716,-5.8716,-5.8716,-5.8716,-5.8698,-5.8902,-5.8983,-5.9004,-5.9197,-5.929,-5.929,-5.929,-5.929,-5.9272,-5.9272,-5.9215,-5.9139,-5.9119,-5.9081,-5.9004,-5.9119,-5.9158,-5.9196,-5.9272,-5.929,-5.9215,-5.8723,-5.8642,-5.8635,-5.8131,-5.804,-5.8085,-5.8085,-5.8085,-5.8218,-5.8878,-5.903,-5.9181,-5.9753,-5.9902,-5.9902,-5.9902,-5.9902,-5.9902,-5.9902,-5.9902,-5.9885,-5.9872,-5.9824,-5.9793,-5.9741,-5.9724,-5.9671,-5.953,-5.9475,-5.9401,-5.9327,-5.929,-5.929,-5.929,-5.929,-5.929,-5.929,-5.929,-5.929,-5.929,-5.929,-5.8652,-5.7263,-5.7,-5.6174,-5.4728,-5.4521,-5.4409,-5.4409,-5.4409,-5.4409,-4.9355,0.0,-4.9239,-4.9158,-4.9131,-4.9084,-4.9084,-4.8979,-4.9097,-4.9805,-4.9972,-5.0491,-5.2121,-5.2418,-5.2696,-5.3607,-5.3756,-5.3775,-5.3793,-5.4462,-5.4963,-5.5001,-5.6469,-5.7472,0.0,-5.8196,-5.8679,-5.8716,-5.8716,-5.8716,-5.8716,-5.8716,-5.8716,-5.8716,-5.8716,-5.8716,-5.8716,-5.8716,-5.8716,-5.8716,-5.8838,-5.8941,-5.9004,-5.9197,-5.929,-5.929,-5.929,-5.9253,-5.9196,-5.9196,-5.9139,-5.9003,-5.8921,-5.8961,-5.9004,-5.9004,-5.9081,-5.9196,-5.9272,-5.929,-5.9327,-5.9419,-5.9509,-5.9578,-5.97,-5.9782,-5.9826,-5.9826,-5.9826,-5.9845,-5.9864,-5.9864,-5.9883,-5.9885,-5.9902,-5.9902,-5.9902,-5.9902,-5.9902,-5.9902,-5.9902,-5.9888,-5.9807,-5.9809,-5.9723,-5.9547,-5.9493,-5.9512,-5.9493,-5.9401,-5.929,-5.929,-5.929,-5.929,-5.929,-5.929,-5.929,-5.929,-5.929,-5.929,-5.929,-5.929,-5.8915,-5.807,-5.73,-5.6455,-5.5555,-5.4784,-5.4409,-5.4409,-5.4409,-5.4409,-4.96,-4.9495,-4.9352,-4.9337,-4.9244,-4.9183,-4.9183,-4.951,-4.9889,-5.0151,-5.1008,-5.19,-5.2475,-5.2976,-5.344,-5.3738,-5.3813,-5.3998,-5.4518,-5.4834,-5.541,-5.6543,-5.7156,0.0,0.0,0.0,0.0,-5.8716,-5.8716,-5.8716,-5.8716,-5.8716,-5.8716,-5.8716,-5.8716,-5.8716,-5.8716,-5.8716,-5.8716,-5.8698,-5.8882,-5.9003,-5.9139,-5.9253,-5.9272,-5.9234,-5.9234,-5.9177,-5.9062,-5.9062,-5.9022,-5.8921,-5.8899,-5.8941,-5.9004,-5.9004,-5.9101,-5.9272,-5.929,-5.929,-5.9309,-5.9346,-5.9438,-5.9564,-5.9652,-5.9738,-5.9841,-5.9888,-5.9902,-5.9902,-5.9902,-5.9902,-5.9902,-5.9902,-5.9902,-5.9902,-5.9902,-5.9902,-5.9902,-5.9902,-5.9902,-5.9888,-5.9826,-5.974,-5.9598,-5.9401,-5.9383,-5.9383,-5.9383,-5.9327,-5.929,-5.929,-5.929,-5.929,-5.929,-5.929,-5.929,-5.929,-5.929,-5.929,-5.929,-5.929,-5.8915,-5.8108,-5.7319,-5.6474,-5.5593,-5.4803,-5.4409,-5.4409,-5.4409,-5.4409,-4.975,-4.9615,-4.9491,-4.948,-4.9371,-4.9351,-4.9636,-5.004,-5.0496,-5.1039,-5.1953,-5.2717,-5.2977,-5.346,-5.3813,-5.3813,-5.3813,-5.4091,-5.489,-5.528,-5.5986,-5.7342,-5.7751,0.0,0.0,0.0,0.0,-5.8716,-5.8716,-5.8716,-5.8716,-5.8716,-5.8716,-5.8716,-5.8716,-5.8716,-5.8716,-5.8716,-5.8716,-5.8698,-5.8882,-5.9022,-5.9139,-5.9177,-5.9196,-5.9196,-5.9139,-5.9081,-5.8944,-5.8944,-5.8921,-5.8838,-5.8838,-5.8881,-5.8982,-5.9003,-5.9101,-5.9272,-5.929,-5.929,-5.929,-5.929,-5.9401,-5.9511,-5.9581,-5.9686,-5.9807,-5.9888,-5.9902,-5.9902,-5.9902,-5.9902,-5.9902,-5.9902,-5.9902,-5.9902,-5.9902,-5.9902,-5.9902,-5.9902,-5.9888,-5.9839,-5.9738,-5.9598,-5.9455,-5.9327,-5.929,-5.929,-5.929,-5.929,-5.929,-5.929,-5.929,-5.929,-5.929,-5.929,-5.929,-5.929,-5.929,-5.929,-5.929,-5.929,-5.8915,-5.8108,-5.7319,-5.6474,-5.5593,-5.4803,-5.4409,-5.4409,-5.4409,-5.4409,-4.9835,-4.9764,-4.9692,-4.9638,-4.951,-4.9624,-5.0427,-5.0534,-5.0899,-5.2416,-5.2752,-5.2977,-5.3683,0.0,-5.3813,-5.3813,-5.3831,-5.4147,-5.4964,-5.5819,-5.6655,0.0,0.0,0.0,0.0,0.0,0.0,-5.8716,0.0,-5.8716,-5.8716,-5.8716,-5.8716,-5.8716,-5.8716,-5.8716,-5.8716,-5.8716,-5.8716,-5.8716,-5.8838,-5.8941,-5.8984,-5.8984,-5.9062,-5.9177,-5.9042,-5.8962,-5.8879,-5.8879,-5.8799,-5.8716,-5.8716,-5.8779,-5.8899,-5.8982,-5.9081,-5.9196,-5.9272,-5.929,-5.929,-5.929,-5.9401,-5.9511,-5.9581,-5.9686,-5.9809,-5.9888,-5.9902,-5.9902,-5.9902,-5.9902,-5.9902,-5.9902,-5.9902,-5.9902,-5.9902,-5.9902,-5.9902,-5.9902,-5.9841,-5.974,-5.9616,-5.9437,-5.929,-5.929,-5.929,-5.929,-5.929,-5.929,-5.929,-5.929,-5.929,-5.929,-5.929,-5.929,-5.929,-5.929,-5.929,-5.929,-5.929,-5.929,-5.8915,-5.8108,-5.7319,-5.6474,-5.5593,-5.4803,-5.4409,-5.4409,-5.4409,-5.4409,-4.9965,-4.9898,-4.983,-4.9764,-4.9648,-4.977,-5.0566,-5.1096,-5.1711,-5.2722,-5.3327,-5.374,-5.3907,0.0,0.0,-5.3813,-5.4314,0.0,-5.5856,-5.6692,0.0,-5.8308,0.0,-5.8716,-5.8716,-5.8716,0.0,0.0,-5.8716,-5.8716,-5.8716,-5.8716,-5.8716,-5.8716,-5.8716,-5.8716,-5.8716,-5.8716,-5.8716,-5.8716,-5.8838,-5.8899,-5.8921,-5.8964,-5.9002,-5.898,-5.894,-5.886,-5.8758,-5.8758,-5.8737,-5.8716,-5.8716,-5.8779,-5.8899,-5.8982,-5.9081,-5.9196,-5.9272,-5.929,-5.929,-5.929,-5.9327,-5.9383,-5.9544,-5.9633,-5.9704,-5.9853,-5.9902,-5.9902,-5.9902,-5.9902,-5.9902,-5.9902,-5.9902,-5.9902,-5.9902,-5.9902,-5.9902,-5.9902,-5.9772,-5.9616,-5.9546,-5.9383,-5.929,-5.929,-5.929,-5.929,-5.929,-5.929,-5.929,-5.929,-5.929,-5.929,-5.929,-5.929,-5.929,-5.929,-5.929,-5.929,-5.929,-5.929,-5.8915,-5.8108,-5.7319,-5.6474,-5.5593,-5.4803,-5.4409,-5.4409,-5.4409,-5.4409,-5.007,-4.9986,-4.9939,-4.9857,-4.9764,-4.9984,-5.1095,-5.1606,-5.2219,-5.3351,-5.3864,-5.4092,-5.4037,-5.3982,0.0,0.0,0.0,0.0,-5.6134,-5.6692,-5.7398,0.0,-5.8716,0.0,-5.8716,-5.8716,-5.8716,0.0,-5.8716,-5.8716,-5.8716,-5.8716,-5.8716,-5.8716,-5.8716,-5.8716,-5.8716,-5.8716,-5.8716,-5.8716,-5.8779,-5.8838,-5.8899,-5.8882,-5.8862,-5.8898,0.0,-5.8758,-5.8716,-5.8716,-5.8716,-5.8716,-5.8716,-5.8737,-5.882,-5.8944,-5.9042,-5.912,-5.9253,-5.929,-5.929,-5.929,-5.929,-5.9346,-5.951,-5.9581,-5.9633,-5.9805,-5.9872,-5.9902,-5.9902,-5.9902,-5.9902,-5.9902,-5.9902,-5.9902,-5.9902,-5.9902,-5.9869,-5.9786,-5.9685,-5.9563,-5.9438,-5.9346,-5.929,-5.929,-5.929,-5.929,-5.929,-5.929,-5.929,-5.929,-5.929,-5.929,-5.929,-5.929,-5.929,-5.929,-5.929,-5.929,-5.929,-5.929,-5.8764,-5.76,-5.7131,-5.6305,-5.5085,-5.4615,-5.4409,-5.4409,-5.4409,-5.4409,-5.0133,-5.007,-5.0005,-4.9939,-4.9857,-5.0161,-5.154,-5.1946,-5.2409,-5.3871,0.0,-5.4254,-5.4146,-5.4109,-5.4073,-5.4019,0.0,-5.469,-5.6138,-5.6434,-5.7048,-5.8551,-5.8737,-5.8716,-5.8716,-5.8716,-5.8716,-5.8716,-5.8716,-5.8716,-5.8716,-5.8716,-5.8716,-5.8716,-5.8716,-5.8716,-5.8716,-5.8716,-5.8716,-5.8716,-5.8716,-5.8758,-5.8859,-5.8758,-5.8758,-5.8859,0.0,0.0,-5.8716,-5.8716,-5.8716,-5.8716,-5.8716,-5.8716,-5.8719,-5.8924,-5.9003,-5.9024,-5.9234,-5.929,-5.929,-5.929,-5.929,-5.9327,-5.9457,-5.9564,-5.9633,-5.9757,-5.9857,-5.9902,-5.9902,-5.9902,-5.9902,-5.9902,-5.9902,-5.9902,-5.9902,-5.9902,-5.9836,-5.965,-5.9616,-5.9526,-5.9327,-5.929,-5.929,-5.929,-5.929,-5.929,-5.929,-5.929,-5.929,-5.929,-5.929,-5.929,-5.929,-5.929,-5.929,-5.929,-5.929,-5.929,-5.929,-5.9196,-5.8427,-5.6925,-5.6793,-5.5967,-5.4409,-5.4409,-5.4409,-5.4409,-5.4409,-5.4409,-5.0188,-5.0126,-5.007,-5.0005,-4.9885,-5.0038,-5.0954,-5.159,0.0,0.0,-5.3906,-5.4289,-5.4272,-5.4163,-5.4091,-5.4073,0.0,0.0,0.0,0.0,-5.786,0.0,0.0,0.0,0.0,0.0,0.0,0.0,0.0,-5.8716,-5.8716,-5.8716,-5.8716,-5.8716,-5.8716,-5.8716,-5.8716,-5.8716,-5.8716,-5.8716,-5.8716,-5.8716,-5.8737,-5.8716,-5.8716,-5.8737,0.0,0.0,-5.8716,-5.8716,-5.8716,-5.8716,-5.8716,-5.8716,-5.8716,-5.886,-5.8942,-5.9004,-5.9177,-5.9253,-5.929,-5.929,-5.929,-5.9327,-5.9457,-5.9564,-5.9633,-5.9757,-5.9857,-5.9902,-5.9902,-5.9902,-5.9902,-5.9902,-5.9902,-5.9902,-5.9902,-5.9902,-5.9836,-5.965,-5.9616,-5.9526,-5.9327,-5.929,-5.929,-5.929,-5.929,-5.929,-5.929,-5.929,-5.929,-5.929,-5.929,-5.929,-5.929,-5.929,-5.929,-5.929,-5.929,-5.929,-5.929,-5.8671,-5.7863,-5.6925,-5.6192,-5.5366,-5.4409,-5.4409,-5.4409,-5.4409,-5.4409,-5.4409,-5.0278,-5.0188,-5.0145,-5.007,-4.9978,-5.0112,-5.0823,0.0,0.0,0.0,-5.3588,-5.3902,-5.4334,-5.4321,0.0,-5.4218,0.0,0.0,0.0,0.0,0.0,0.0,0.0,0.0,0.0,0.0,0.0,0.0,0.0,0.0,-5.8716,-5.8716,-5.8716,-5.8716,-5.8716,-5.8716,-5.8716,-5.8716,-5.8716,-5.8716,-5.8716,-5.8716,-5.8716,-5.8716,-5.8716,-5.8716,-5.8716,0.0,-5.8716,-5.8716,-5.8716,-5.8716,-5.8716,-5.8716,-5.8716,-5.8859,-5.8941,-5.9004,-5.9158,-5.9234,-5.929,-5.929,-5.929,-5.9327,-5.9383,-5.9456,-5.9582,-5.9669,-5.9755,-5.9874,-5.9885,-5.9902,-5.9902,-5.9902,-5.9902,-5.9902,-5.9902,-5.9872,-5.9788,-5.9633,-5.9563,-5.9492,-5.9327,-5.929,-5.929,-5.929,-5.929,-5.929,-5.929,-5.929,-5.929,-5.929,-5.929,-5.929,-5.929,-5.929,-5.929,-5.929,-5.929,-5.929,-5.929,-5.8539,-5.7732,-5.6925,-5.6042,-5.5199,-5.4409,-5.4409,-5.4409,-5.4409,-5.4409,-5.4409,-5.0344,-5.0267,-5.0175,-5.012,-5.0057,-5.0117,-5.0657,-5.0899,0.0,0.0,-5.3117,-5.3505,-5.4129,-5.4343,-5.4409,0.0,-5.4324,0.0,0.0,0.0,0.0,0.0,0.0,0.0,0.0,0.0,0.0,0.0,0.0,0.0,-5.8716,-5.8716,-5.8716,-5.8716,-5.8716,-5.8716,-5.8716,-5.8716,-5.8716,-5.8716,-5.8716,-5.8716,-5.8716,-5.8716,-5.8716,-5.8716,-5.8716,0.0,0.0,-5.8716,-5.8716,-5.8716,-5.8716,-5.8716,-5.8716,-5.8818,-5.8921,-5.9023,-5.9119,-5.9215,-5.929,-5.929,-5.929,-5.929,-5.929,-5.9401,-5.9511,-5.9563,-5.9669,-5.9774,-5.982,-5.9836,-5.9836,-5.9836,-5.9836,-5.9836,-5.9836,-5.9788,-5.9723,-5.9598,-5.9546,-5.9457,-5.9327,-5.929,-5.929,-5.929,-5.929,-5.929,-5.929,-5.929,-5.929,-5.929,-5.929,-5.929,-5.929,-5.929,-5.929,-5.929,-5.929,-5.9215,-5.9046,-5.8276,-5.7469,-5.6643,-5.5779,-5.5047,-5.4409,-5.4409,-5.4409,-5.4409,-5.4409,-5.4409,-5.0401,-5.0302,-5.0175,-5.012,-5.0057,-5.0011,-5.0006,0.0,0.0,-5.1191,-5.2379,-5.3396,-5.3411,-5.3997,-5.4472,-5.439,0.0,-5.4673,0.0,0.0,0.0,0.0,0.0,0.0,0.0,0.0,0.0,0.0,0.0,0.0,0.0,-5.8716,-5.8716,-5.8716,-5.8716,-5.8716,-5.8716,-5.8716,-5.8716,-5.8716,-5.8716,-5.8716,-5.8716,-5.8716,-5.8716,-5.8716,0.0,0.0,0.0,-5.8716,-5.8716,-5.8716,-5.8716,-5.8716,-5.8716,-5.8716,-5.8842,-5.9004,-5.9004,-5.914,-5.929,-5.929,-5.929,-5.929,-5.929,-5.9401,-5.9493,-5.9511,-5.9545,-5.9616,-5.9633,-5.9633,-5.9633,-5.9633,-5.9633,-5.9633,-5.9633,-5.9633,-5.9598,-5.9529,-5.9493,-5.9457,-5.9327,-5.929,-5.929,-5.929,-5.929,-5.929,-5.929,-5.929,-5.929,-5.929,-5.929,-5.929,-5.929,-5.929,-5.929,-5.929,-5.929,-5.8971,-5.8239,-5.745,-5.6605,-5.5743,-5.4934,-5.4465,-5.4409,-5.4409,-5.4409,-5.4409,-5.4409,-5.4409,-5.0424,-5.0348,-5.029,-5.0194,-5.012,-5.0044,-4.9978,0.0,-5.0482,-5.0998,-5.1565,-5.2262,-5.3236,-5.3657,-5.397,-5.4397,-5.4455,0.0,0.0,0.0,0.0,0.0,0.0,0.0,0.0,0.0,0.0,0.0,0.0,0.0,0.0,-5.8716,-5.8716,-5.8716,-5.8716,-5.8716,-5.8716,-5.8716,-5.8716,-5.8716,-5.8716,-5.8716,-5.8716,-5.8716,-5.8716,-5.8716,0.0,0.0,0.0,-5.8716,-5.8716,-5.8716,-5.8716,-5.8716,-5.8716,-5.8716,-5.8842,-5.9004,-5.9004,-5.912,-5.929,-5.929,-5.929,-5.929,-5.929,-5.9346,-5.9401,-5.9475,-5.9529,-5.9545,-5.9598,-5.9616,-5.9616,-5.9616,-5.9616,-5.9616,-5.9616,-5.9563,-5.9529,-5.9493,-5.942,-5.9364,-5.9309,-5.929,-5.929,-5.929,-5.929,-5.929,-5.929,-5.929,-5.929,-5.929,-5.929,-5.929,-5.929,-5.929,-5.929,-5.929,-5.8858,-5.8445,-5.8108,-5.6813,-5.595,-5.5612,-5.4822,-5.4409,-5.4409,-5.4409,-5.4409,-5.4409,-5.4409,-5.4409,-5.038,-5.0424,-5.0379,-5.0224,-5.0151,-5.0108,0.0,-4.9965,-5.0096,-5.0694,-5.0955,-5.1409,-5.2548,-5.3131,-5.3579,-5.4083,0.0,-5.4489,-5.4441,0.0,0.0,0.0,0.0,0.0,0.0,0.0,0.0,0.0,0.0,0.0,0.0,-5.8716,-5.8716,-5.8716,-5.8716,-5.8716,-5.8716,-5.8716,-5.8716,-5.8716,-5.8716,-5.8716,-5.8716,-5.8716,-5.8716,-5.8716,0.0,0.0,0.0,-5.8716,-5.8716,-5.8716,-5.8716,-5.8716,-5.8716,-5.8716,-5.8842,-5.9004,-5.9004,-5.912,-5.929,-5.929,-5.929,-5.929,-5.929,-5.929,-5.9327,-5.942,-5.9438,-5.9456,-5.9491,-5.9509,-5.9509,-5.9509,-5.9509,-5.9509,-5.9509,-5.9474,-5.9438,-5.9438,-5.9364,-5.929,-5.929,-5.929,-5.929,-5.929,-5.929,-5.929,-5.929,-5.929,-5.929,-5.929,-5.929,-5.929,-5.929,-5.929,-5.9196,-5.8971,-5.8427,-5.7864,-5.7376,-5.6231,-5.548,-5.5236,-5.469,-5.4409,-5.4409,-5.4409,-5.4409,-5.4409,-5.4375,-5.4357,-5.0281,-5.0457,-5.0379,-5.0224,-5.02,-5.0163,-5.0044,-5.0005,-4.9992,-4.9925,-5.0599,-5.1159,-5.105,-5.2382,-5.3467,-5.3424,-5.4024,0.0,-5.4505,0.0,0.0,0.0,0.0,0.0,0.0,0.0,0.0,0.0,0.0,0.0,0.0,-5.8716,-5.8716,-5.8716,-5.8716,-5.8716,-5.8716,-5.8716,-5.8716,-5.8716,-5.8716,-5.8716,-5.8716,-5.8716,-5.8716,0.0,0.0,0.0,0.0,-5.8716,-5.8716,-5.8716,-5.8716,-5.8716,-5.8716,-5.8716,-5.8842,-5.9004,-5.9004,-5.912,-5.929,-5.929,-5.929,-5.929,-5.929,-5.929,-5.929,-5.929,-5.929,-5.929,-5.929,-5.929,-5.929,-5.929,-5.929,-5.929,-5.929,-5.929,-5.929,-5.929,-5.929,-5.929,-5.929,-5.929,-5.929,-5.929,-5.929,-5.929,-5.929,-5.929,-5.929,-5.929,-5.929,-5.929,-5.929,-5.929,-5.8971,-5.8145,-5.8089,-5.7357,-5.5687,-5.5612,-5.5218,-5.4428,-5.4409,-5.4409,-5.4409,-5.4409,-5.4409,-5.4409,-5.4324,-5.4218,-4.9409,-4.9597,-4.9688,-5.0149,-5.0224,-5.0194,-5.0095,-5.0031,-4.9992,-4.9906,-5.0107,-5.0486,-5.1031,-5.2016,-5.2914,-5.3388,-5.417,0.0,0.0,0.0,0.0,0.0,0.0,0.0,0.0,0.0,0.0,0.0,0.0,0.0,0.0,-5.8716,-5.8716,-5.8716,-5.8716,-5.8716,-5.8716,-5.8716,-5.8716,-5.8716,-5.8716,-5.8716,-5.8716,-5.8716,0.0,0.0,0.0,0.0,0.0,-5.8716,-5.8716,-5.8716,-5.8716,-5.8716,-5.8716,-5.8716,-5.8842,-5.9004,-5.9004,-5.912,-5.929,-5.929,-5.929,-5.929,-5.929,-5.929,-5.929,-5.929,-5.929,-5.929,-5.929,-5.929,-5.929,-5.929,-5.929,-5.929,-5.929,-5.929,-5.929,-5.929,-5.929,-5.929,-5.929,-5.929,-5.929,-5.929,-5.929,-5.929,-5.929,-5.8821,-5.8483,-5.8483,-5.7995,-5.7882,-5.8445,-5.8483,-5.8145,-5.7338,-5.6719,-5.6137,-5.5612,-5.5085,-5.4672,-5.4409,-5.4409,-5.4409,-5.4409,-5.4409,-5.4375,-5.4324,-5.4218,-5.411,-4.846,-4.8966,-4.9299,-4.9744,-5.0049,-5.0231,-5.0158,-5.0095,-5.0018,-4.9946,-4.9925,-5.0082,-5.0618,-5.1395,-5.2201,-5.2971,-5.3774,0.0,0.0,0.0,0.0,0.0,0.0,0.0,0.0,0.0,0.0,0.0,0.0,0.0,0.0,0.0,-5.8716,-5.8716,-5.8716,-5.8716,-5.8716,-5.8716,-5.8716,-5.8716,-5.8716,-5.8716,-5.8716,-5.8716,0.0,0.0,0.0,0.0,0.0,-5.8716,-5.8716,-5.8716,-5.8716,-5.8716,-5.8716,-5.8716,-5.8842,-5.9004,-5.9004,-5.912,-5.929,-5.929,-5.929,-5.929,-5.929,-5.929,-5.929,-5.929,-5.929,-5.929,-5.929,-5.929,-5.929,-5.929,-5.929,-5.929,-5.929,-5.929,-5.929,-5.929,-5.9046,-5.8858,-5.8858,-5.8596,-5.8389,-5.8389,-5.8389,-5.8389,-5.8389,-5.7957,-5.7657,-5.7657,-5.7206,-5.6962,-5.7132,-5.7469,-5.73,-5.6455,-5.5893,-5.5462,-5.5142,-5.4672,-5.4409,-5.4409,-5.4409,-5.4392,-5.4357,-5.4304,-5.4234,-5.4183,-5.411,-5.4,0.0,-4.8449,-4.9107,-4.9094,-4.9691,-5.029,-5.0231,-5.0158,0.0,-4.9999,-4.9952,-4.9912,-4.9912,-5.0618,-5.1457,-5.2272,0.0,0.0,0.0,0.0,0.0,0.0,0.0,0.0,0.0,0.0,0.0,0.0,0.0,0.0,0.0,0.0,-5.8716,-5.8716,-5.8716,-5.8716,-5.8716,-5.8716,-5.8716,-5.8716,-5.8716,-5.8716,-5.8716,-5.8716,0.0,0.0,0.0,0.0,0.0,-5.8716,-5.8716,-5.8716,-5.8716,-5.8716,-5.8716,-5.8716,-5.8823,-5.8984,-5.8984,-5.912,-5.929,-5.9309,-5.929,-5.929,-5.9234,-5.9253,-5.929,-5.929,-5.9253,-5.9215,-5.9215,-5.9159,-5.9121,-5.9121,-5.9121,-5.9121,-5.9121,-5.9121,-5.9121,-5.9121,-5.8539,-5.7995,-5.7995,-5.7394,-5.6887,-5.6887,-5.6887,-5.6887,-5.6887,-5.6849,-5.6812,-5.6812,-5.6756,-5.6399,-5.5574,-5.6305,-5.6436,-5.5555,-5.5499,-5.518,-5.4428,-5.4409,-5.4409,-5.4392,-5.4373,-5.434,-5.429,-5.4146,-5.4055,-5.4,-5.3982,-5.3926,-4.5928,0.0,-4.8417,-4.896,-4.9691,-5.029,0.0,-5.0158,-5.0082,-4.9999,-4.9952,-4.9912,-4.9912,-5.0618,-5.1457,0.0,0.0,0.0,0.0,0.0,0.0,0.0,0.0,0.0,0.0,0.0,0.0,0.0,0.0,0.0,0.0,0.0,-5.8716,-5.8716,-5.8716,-5.8716,-5.8716,-5.8716,-5.8716,-5.8716,-5.8716,-5.8716,-5.8716,-5.8716,0.0,0.0,0.0,0.0,-5.8716,-5.8716,-5.8716,-5.8716,-5.8716,-5.8716,-5.8716,-5.8716,-5.8799,-5.8921,-5.8983,-5.9101,-5.9234,-5.929,-5.929,-5.9196,-5.8577,-5.8821,-5.929,-5.929,-5.8858,-5.8389,-5.8389,-5.7938,-5.745,-5.745,-5.745,-5.745,-5.745,-5.745,-5.745,-5.745,-5.73,-5.7187,-5.7187,-5.7018,-5.6887,-5.6887,-5.6887,-5.6887,-5.6887,-5.6324,-5.5893,-5.5893,-5.5348,-5.4897,-5.4709,-5.5424,-5.5573,-5.4728,-5.469,-5.4597,-5.4409,-5.4409,-5.4375,-5.4324,-5.4217,-5.4163,-5.4146,-5.4055,-5.4019,-5.4,-5.3888,-5.3832,-4.5429,-4.6378,-4.7574,-4.8329,-4.9137,-4.9843,-5.0171,-5.017,-5.0095,-5.0057,-4.9978,-4.9912,-4.9912,-5.0618,0.0,0.0,0.0,0.0,0.0,0.0,0.0,0.0,0.0,0.0,0.0,0.0,0.0,0.0,0.0,0.0,0.0,0.0,-5.8716,-5.8716,-5.8716,-5.8716,-5.8716,-5.8716,-5.8716,-5.8716,-5.8716,-5.8716,-5.8716,-5.8716,-5.8716,0.0,0.0,0.0,-5.8716,-5.8716,-5.8716,-5.8716,-5.8716,-5.8716,-5.8716,-5.8716,-5.8779,-5.8899,-5.8964,-5.912,-5.9234,-5.929,-5.9046,-5.8671,-5.8239,-5.8145,-5.8201,-5.8201,-5.7882,-5.7563,-5.7563,-5.7225,-5.6887,-5.6887,-5.6887,-5.6887,-5.6887,-5.6887,-5.6887,-5.6887,-5.6587,-5.6305,-5.6305,-5.6005,-5.5742,-5.5742,-5.5742,-5.5742,-5.5742,-5.5348,-5.5049,-5.5049,-5.4672,-5.4409,-5.4409,-5.4803,-5.4859,-5.4428,-5.4409,-5.4392,-5.4359,-5.434,-5.4306,-5.4218,-5.411,-5.4055,-5.4055,-5.3963,-5.3907,-5.3907,-5.3832,-5.3813,-4.5429,-4.5937,-4.6712,-4.7573,-4.8468,-4.932,-5.0111,-5.0194,-5.0095,-5.0095,-5.0005,-4.9912,0.0,-5.0585,0.0,0.0,0.0,0.0,0.0,0.0,0.0,0.0,0.0,0.0,0.0,0.0,0.0,0.0,0.0,0.0,0.0,0.0,0.0,-5.8716,-5.8716,-5.8716,-5.8716,-5.8716,-5.8716,-5.8716,-5.8716,-5.8716,-5.8716,-5.8716,-5.8716,0.0,0.0,0.0,-5.8716,-5.8716,-5.8716,-5.8716,-5.8716,-5.8716,-5.8716,-5.8716,-5.8758,-5.8879,-5.8962,-5.912,-5.9253,-5.914,-5.8633,-5.8052,-5.7789,-5.7244,-5.6681,-5.6549,-5.6605,-5.6699,-5.6699,-5.6605,-5.6512,-5.6512,-5.6512,-5.6512,-5.6512,-5.6512,-5.6512,-5.6512,-5.593,-5.5424,-5.5424,-5.4859,-5.4409,-5.4409,-5.4409,-5.4409,-5.4409,-5.4409,-5.4409,-5.4409,-5.4392,-5.4392,-5.4392,-5.4375,-5.4356,-5.4356,-5.4356,-5.434,-5.4272,-5.4254,-5.42,-5.4073,-5.4019,-5.3963,-5.3963,-5.3851,-5.3813,-5.3813,-5.3813,-5.3813,-4.5429,-4.5496,-4.5946,-4.7439,-4.8468,-4.932,-5.0111,-5.0194,-5.0095,-5.0095,0.0,0.0,0.0,-5.052,-5.1315,0.0,0.0,0.0,0.0,0.0,0.0,0.0,0.0,0.0,0.0,0.0,0.0,0.0,0.0,0.0,0.0,0.0,0.0,-5.8716,-5.8716,-5.8716,-5.8716,-5.8716,-5.8716,-5.8716,-5.8716,-5.8716,-5.8716,-5.8716,-5.8716,0.0,0.0,-5.8716,-5.8716,-5.8716,-5.8716,-5.8716,-5.8716,-5.8716,-5.8716,-5.8716,-5.8716,-5.8758,-5.886,-5.904,-5.9084,-5.8353,-5.8109,-5.7826,-5.64,-5.5893,-5.5649,-5.4972,-5.5272,-5.5799,-5.5799,-5.5291,-5.4784,-5.4784,-5.4784,-5.4784,-5.4784,-5.4784,-5.4784,-5.4784,-5.4672,-5.4578,-5.4578,-5.4484,-5.4409,-5.4409,-5.4409,-5.4409,-5.4409,-5.4409,-5.4409,-5.4409,-5.4359,-5.4326,-5.4326,-5.4199,-5.4145,-5.4145,-5.4253,-5.4272,-5.4146,-5.4074,-5.4037,-5.4019,-5.3888,-5.3832,-5.3832,-5.3813,-5.3813,-5.3813,-5.3813,-5.3813,-4.5429,-4.54,-4.5668,-4.6808,-4.7761,-4.8724,-4.9949,-5.017,-5.0095,-5.0057,0.0,0.0,0.0,0.0,0.0,0.0,0.0,0.0,0.0,0.0,0.0,0.0,0.0,0.0,0.0,0.0,0.0,0.0,0.0,0.0,0.0,0.0,0.0,0.0,-5.8716,-5.8716,-5.8716,-5.8716,-5.8716,-5.8716,-5.8716,-5.8716,-5.8716,-5.8716,-5.8716,-5.8716,0.0,-5.8716,-5.8716,-5.8716,-5.8716,-5.8716,-5.8716,-5.8716,-5.8716,-5.8716,-5.8737,-5.8818,-5.8879,-5.8701,-5.8371,-5.7978,-5.7304,-5.6553,-5.5784,-5.5275,-5.4878,-5.4503,-5.4672,-5.4953,-5.4953,-5.469,-5.4409,-5.4409,-5.4409,-5.4409,-5.4409,-5.4409,-5.4409,-5.4409,-5.4409,-5.4409,-5.4409,-5.4409,-5.4409,-5.4409,-5.4409,-5.4392,-5.4359,-5.4359,-5.4306,-5.4252,-5.4199,-5.42,-5.42,-5.4146,-5.4109,-5.4109,-5.4128,-5.4092,-5.4055,-5.3963,-5.3888,-5.3888,-5.3832,-5.3813,-5.3813,-5.3813,-5.3813,-5.3813,-5.3813,-5.3813,-4.5429,-4.54,-4.5572,-4.6311,-4.7169,-4.8178,-4.9589,-5.0024,-5.0082,-4.9999,0.0,0.0,0.0,0.0,0.0,0.0,0.0,0.0,0.0,0.0,0.0,0.0,0.0,0.0,0.0,0.0,0.0,0.0,0.0,0.0,0.0,0.0,0.0,0.0,-5.8716,-5.8716,-5.8716,-5.8656,-5.8656,-5.8716,-5.8716,-5.8716,-5.8716,-5.8716,-5.8716,-5.8716,-5.8716,-5.8716,-5.8716,-5.8716,-5.8716,-5.8716,-5.8716,-5.8716,-5.8716,-5.8716,-5.8758,-5.8859,-5.8859,-5.8381,-5.7732,-5.7527,-5.6557,-5.5432,-5.5226,-5.4775,-5.4321,-5.4321,-5.4321,-5.4339,-5.4392,-5.4409,-5.4409,-5.4409,-5.4409,-5.4409,-5.4409,-5.4409,-5.4409,-5.4409,-5.4409,-5.4409,-5.4409,-5.4409,-5.4373,-5.4375,-5.4375,-5.434,-5.4272,-5.4254,-5.4218,-5.4109,-5.4073,-5.4055,-5.4036,-5.4036,-5.4036,-5.4036,-5.3982,-5.3944,-5.3944,-5.3851,-5.3813,-5.3813,-5.3813,-5.3813,-5.3813,-5.3813,-5.3813,-5.3813,-5.3813,-5.3701,-4.5419,-4.5409,-4.5589,-4.632,-4.7169,-4.8025,-4.8903,-4.9612,-5.0082,-4.9999,-4.9952,0.0,0.0,0.0,0.0,0.0,0.0,0.0,0.0,0.0,0.0,0.0,0.0,0.0,0.0,0.0,0.0,0.0,0.0,0.0,0.0,0.0,0.0,0.0,0.0,-5.8716,-5.8716,-5.8593,-5.8593,-5.8716,-5.8716,-5.8716,-5.8716,-5.8716,-5.8716,-5.8716,-5.8716,-5.8716,-5.8716,-5.8716,-5.8716,-5.8716,-5.8716,-5.8716,-5.8716,-5.8716,-5.8716,-5.8698,-5.8698,-5.8241,-5.7484,-5.6739,-5.5958,-5.5193,-5.4426,-5.4146,-5.4127,-5.4127,-5.4127,-5.4163,-5.4339,-5.4409,-5.4409,-5.4409,-5.4409,-5.4409,-5.4409,-5.4409,-5.4409,-5.4409,-5.4409,-5.4409,-5.4409,-5.4409,-5.4375,-5.4326,-5.4308,-5.4272,-5.4127,-5.4109,-5.4109,-5.4109,-5.4037,-5.3963,-5.3832,-5.3813,-5.3813,-5.3813,-5.3832,-5.3794,-5.3794,-5.3813,-5.3813,-5.3813,-5.3813,-5.3813,-5.3813,-5.3813,-5.3813,-5.3813,-5.3813,-5.3404,-4.5419,-4.5409,-4.5464,-4.57,-4.6787,-4.7995,-4.876,-4.9549,-5.007,-4.9965,-4.9925,0.0,0.0,0.0,0.0,0.0,0.0,0.0,0.0,0.0,0.0,0.0,0.0,0.0,0.0,0.0,0.0,0.0,0.0,0.0,0.0,0.0,0.0,0.0,0.0,-5.8505,-5.8505,-5.8462,-5.8462,-5.8505,-5.8551,-5.8593,-5.8574,-5.8656,-5.8716,-5.8716,-5.8716,-5.8716,-5.8716,-5.8716,-5.8716,-5.8716,-5.8716,-5.8716,-5.8716,-5.8716,-5.8716,-5.8642,-5.8141,-5.7437,-5.6659,-5.5803,-5.5062,-5.4429,-5.413,-5.4073,-5.4109,-5.4109,-5.4109,-5.4109,-5.418,-5.4288,-5.4342,-5.4342,-5.4375,-5.4409,-5.4409,-5.4357,-5.4342,-5.4342,-5.4271,-5.4198,-5.4198,-5.4198,-5.4198,-5.4181,-5.4182,-5.4128,-5.4055,-5.4055,-5.4,-5.3907,-5.3888,-5.3851,-5.3794,-5.3813,-5.3813,-5.3813,-5.3813,-5.3813,-5.3813,-5.3813,-5.3813,-5.3813,-5.3813,-5.3813,-5.3813,-5.3754,-5.3754,-5.3735,-5.3158,-5.2693,-4.541,-4.538,-4.5348,-4.5307,-4.6557,-4.7907,-4.8381,-4.9327,-5.007,-4.9939,-4.9871,-5.0312,-5.1915,0.0,0.0,0.0,0.0,0.0,0.0,0.0,0.0,0.0,0.0,0.0,0.0,0.0,0.0,0.0,0.0,0.0,0.0,0.0,0.0,0.0,0.0,-5.8393,-5.8393,-5.8371,-5.8349,-5.8349,-5.8378,-5.8443,-5.8465,-5.8551,-5.8612,-5.8612,-5.8614,-5.8635,-5.8635,-5.8677,-5.8716,-5.8716,-5.8716,-5.8716,-5.8716,-5.8716,-5.8549,-5.8252,-5.7695,-5.6803,-5.58,-5.5206,-5.452,-5.3944,-5.3944,-5.3963,-5.4,-5.4,-5.4,-5.4,-5.4,-5.411,-5.4236,-5.4236,-5.4271,-5.4304,-5.4304,-5.4271,-5.4236,-5.4236,-5.4163,-5.4109,-5.4109,-5.4109,-5.4091,-5.4073,-5.4073,-5.4037,-5.3944,-5.3944,-5.3907,-5.3813,-5.3813,-5.3813,-5.3813,-5.3813,-5.3793,-5.3774,-5.3774,-5.3774,-5.3813,-5.3813,-5.3793,-5.3774,-5.3774,-5.3736,-5.3716,-5.3657,-5.3506,-5.3229,-5.2597,-5.2022,-4.5399,-4.5348,-4.5307,-4.5307,-4.6557,-4.7766,-4.7619,-4.8909,-5.007,-4.9939,-4.9788,-5.0202,-5.19,0.0,0.0,0.0,0.0,0.0,0.0,0.0,0.0,0.0,0.0,0.0,0.0,0.0,0.0,0.0,0.0,0.0,0.0,0.0,0.0,0.0,0.0,0.0,-5.8393,-5.8264,-5.8197,-5.8197,-5.8197,-5.8264,-5.8393,-5.8393,-5.8393,-5.8393,-5.8465,-5.8511,-5.8511,-5.8635,-5.8716,-5.8716,-5.8716,-5.8716,-5.8716,-5.8716,-5.8196,-5.7509,-5.749,-5.6413,-5.5001,-5.5001,-5.4463,-5.3813,-5.3813,-5.3813,-5.3813,-5.3813,-5.3813,-5.3813,-5.3813,-5.3944,-5.4091,-5.4091,-5.4109,-5.4109,-5.4109,-5.4109,-5.4109,-5.4109,-5.4091,-5.4091,-5.4091,-5.4091,-5.4073,-5.4,-5.4,-5.3944,-5.3813,-5.3813,-5.3813,-5.3813,-5.3813,-5.3813,-5.3813,-5.3813,-5.3774,-5.3695,-5.3714,-5.3734,-5.3775,-5.3813,-5.3774,-5.3714,-5.3714,-5.3636,-5.3499,-5.3481,-5.3074,-5.2299,-5.228,-5.1412,-4.5408,-4.5348,-4.5307,-4.5307,0.0,0.0,0.0,-4.8909,0.0,0.0,-4.9788,-5.0202,-5.19,0.0,0.0,0.0,0.0,0.0,0.0,0.0,0.0,0.0,0.0,0.0,0.0,0.0,0.0,0.0,0.0,0.0,0.0,0.0,0.0,0.0,0.0,0.0,-5.8129,-5.8065,-5.8065,-5.8065,-5.8065,-5.8129,-5.8264,-5.8349,-5.8393,-5.8393,-5.8418,-5.8418,-5.844,-5.8529,-5.8553,-5.8553,-5.8656,-5.8716,-5.8716,-5.8716,-5.8196,-5.7416,-5.6859,-5.593,-5.4927,-5.4351,-5.3998,-5.3813,-5.3813,-5.3813,-5.3813,-5.3813,-5.3813,-5.3813,-5.3813,-5.3832,-5.3907,-5.4019,-5.4073,-5.4109,-5.4109,-5.4055,-5.4037,-5.4037,-5.3963,-5.3889,-5.3889,-5.3889,-5.387,-5.3851,-5.3851,-5.3851,-5.3813,-5.3813,-5.3813,-5.3813,-5.3754,-5.3734,-5.3734,-5.3638,-5.3579,-5.3558,-5.3558,-5.3559,-5.3599,-5.3599,-5.3579,-5.3558,-5.3558,-5.3539,-5.3499,-5.2848,-5.2384,-5.2126,-5.0942,-5.0131,-4.5378,-4.5328,-4.5307,-4.5307,-4.6514,-4.7857,-4.8408,0.0,0.0,0.0,0.0,-5.0202,0.0,0.0,0.0,0.0,0.0,0.0,0.0,0.0,0.0,0.0,0.0,0.0,0.0,0.0,0.0,0.0,0.0,0.0,0.0,0.0,0.0,0.0,0.0,0.0,-5.7997,-5.7997,-5.7997,-5.7997,-5.7997,-5.8042,-5.8111,-5.8197,-5.8242,-5.8242,-5.8305,-5.8349,-5.8393,-5.844,-5.8465,-5.8465,-5.8548,-5.8612,-5.8577,-5.8243,-5.7672,-5.6896,-5.6079,-5.5243,-5.4444,-5.3961,-5.3813,-5.3813,-5.3813,-5.3813,-5.3813,-5.3813,-5.3813,-5.3813,-5.3813,-5.3813,-5.3832,-5.3907,-5.3963,-5.3981,-5.3981,-5.3945,-5.3926,-5.3926,-5.3851,-5.3813,-5.3813,-5.3813,-5.3813,-5.3813,-5.3774,-5.3754,-5.3754,-5.3716,-5.3697,-5.3697,-5.3657,-5.3636,-5.3636,-5.3558,-5.3479,-5.342,-5.342,-5.3418,-5.3378,-5.3459,-5.3461,-5.342,-5.3107,-5.292,-5.2898,-5.2028,-5.1417,-5.1088,-5.0071,-4.939,-4.5317,-4.5307,-4.5297,-4.5297,-4.6503,0.0,-4.9651,-4.9933,-4.9912,-4.9912,0.0,0.0,0.0,0.0,0.0,0.0,0.0,0.0,0.0,0.0,0.0,0.0,0.0,0.0,0.0,0.0,0.0,0.0,0.0,0.0,0.0,0.0,0.0,0.0,0.0,0.0,-5.7973,-5.7973,-5.7973,0.0,-5.7997,-5.7997,-5.7997,-5.7997,-5.7997,-5.7997,-5.8129,-5.8242,-5.8371,-5.8371,-5.8334,-5.826,-5.8301,-5.8274,-5.8175,-5.7434,-5.6737,-5.6039,-5.5241,-5.4443,-5.3756,-5.3793,-5.3793,-5.3793,-5.3813,-5.3813,-5.3813,-5.3813,-5.3813,-5.3813,-5.3813,-5.3813,-5.3813,-5.3813,-5.3813,-5.3813,-5.3813,-5.3813,-5.3813,-5.3813,-5.3813,-5.3813,-5.3813,-5.3793,-5.3793,-5.3756,-5.3716,-5.3675,-5.3675,-5.3578,-5.3499,-5.3499,-5.3499,-5.3479,-5.3479,-5.3479,-5.342,-5.3297,-5.3224,-5.3164,-5.3096,-5.3339,-5.3381,-5.3187,-5.2471,-5.2026,-5.1885,-5.1077,-5.0306,-4.961,-4.9519,-4.9058,-4.5307,-4.5307,0.0,0.0,-4.6382,-4.796,-4.9572,-4.9912,-4.9912,-4.9912,0.0,0.0,0.0,0.0,0.0,0.0,0.0,0.0,0.0,0.0,0.0,0.0,0.0,0.0,0.0,0.0,0.0,0.0,0.0,0.0,0.0,0.0,0.0,0.0,0.0,-5.7697,-5.7697,-5.7792,-5.7839,0.0,-5.795,-5.7997,-5.7997,-5.7997,-5.7997,-5.7997,-5.802,-5.8065,-5.8088,-5.8197,-5.7873,-5.7302,-5.7408,-5.7048,-5.6441,-5.6256,-5.5704,-5.5022,-5.4837,-5.4245,-5.3579,-5.3695,-5.3715,-5.3734,-5.3774,-5.3813,-5.3813,-5.3813,-5.3813,-5.3813,-5.3813,-5.3813,-5.3813,-5.3813,-5.3813,-5.3813,-5.3813,-5.3813,-5.3813,-5.3813,-5.3813,-5.3813,-5.3813,-5.3754,-5.3695,-5.3579,-5.3559,-5.3539,-5.3539,-5.3519,-5.3499,-5.3499,-5.34,-5.3359,-5.3359,-5.3295,-5.3248,-5.3209,-5.2642,-5.2254,-5.2252,-5.2899,-5.2957,-5.2293,-5.211,-5.1706,-5.1059,-5.0233,-4.9776,-4.9574,-4.8893,-4.8489,-4.5307,0.0,0.0,-4.6161,0.0,-4.7922,-4.9527,-4.9912,-4.9912,0.0,0.0,0.0,0.0,0.0,0.0,0.0,0.0,0.0,0.0,0.0,0.0,0.0,0.0,0.0,0.0,0.0,0.0,0.0,0.0,0.0,0.0,0.0,0.0,0.0,-5.7601,-5.7601,-5.7601,-5.7673,-5.7697,-5.7697,-5.7839,-5.795,-5.7997,-5.7997,-5.7997,-5.7997,-5.7997,-5.7997,-5.7978,-5.7661,-5.7279,-5.6875,-5.6555,-5.6197,-5.58,-5.5394,-5.4991,-5.4646,-5.4277,-5.385,-5.3519,-5.3578,-5.3598,-5.3617,-5.3658,-5.3658,-5.3658,-5.3658,-5.3658,-5.3658,-5.3658,-5.3658,-5.3658,-5.3658,-5.3736,-5.3813,-5.3813,-5.3774,-5.3754,-5.3754,-5.3697,-5.3658,-5.3658,-5.3637,-5.3578,-5.3519,-5.3108,-5.283,-5.283,-5.2456,-5.2215,-5.2215,-5.2136,-5.2095,-5.2095,-5.2071,-5.205,-5.205,-5.1665,-5.1426,-5.1426,-5.183,-5.1848,-5.1426,-5.1041,-5.0657,-5.0215,-4.9389,-4.8967,-4.8967,-4.8508,-4.8306,-4.5286,0.0,-4.5595,-4.7017,-4.744,0.0,-4.9356,-4.9798,0.0,0.0,0.0,0.0,0.0,0.0,0.0,0.0,0.0,0.0,0.0,0.0,0.0,0.0,0.0,0.0,0.0,0.0,0.0,0.0,0.0,0.0,0.0,0.0,-5.7528,-5.7528,-5.7528,-5.7528,-5.7528,-5.7553,-5.7577,-5.7577,-5.7697,-5.7815,-5.7927,-5.795,-5.7973,-5.7997,-5.7997,-5.7923,-5.774,-5.7079,-5.6657,-5.6326,-5.5647,-5.5364,-5.5248,-5.4549,-5.4354,-5.4363,-5.3678,-5.3439,-5.3459,-5.3459,-5.3479,-5.3479,-5.3499,-5.3499,-5.3499,-5.3499,-5.3499,-5.3499,-5.3499,-5.3499,-5.3499,-5.3499,-5.3638,-5.3755,-5.3755,-5.3716,-5.3656,-5.3656,-5.3578,-5.3499,-5.3479,-5.3479,-5.3404,-5.3274,-5.2585,-5.2028,-5.188,-5.1248,-5.0802,-5.0802,-5.0802,-5.0802,-5.0802,-5.0802,-5.0802,-5.0802,-5.0674,-5.0582,-5.0582,-5.0453,-5.038,-5.038,-4.9848,-4.9537,-4.9372,-4.8655,-4.8306,-4.8306,-4.8306,-4.8306,-4.5224,0.0,-4.5273,0.0,-4.6948,-4.7675,0.0,0.0,0.0,0.0,0.0,0.0,0.0,0.0,0.0,0.0,0.0,0.0,0.0,0.0,0.0,0.0,0.0,0.0,0.0,0.0,0.0,0.0,0.0,0.0,0.0,-5.7332,-5.7239,-5.7239,-5.7239,-5.7239,-5.7239,-5.7381,-5.7431,-5.7431,-5.7559,-5.7649,-5.7649,-5.7768,-5.7886,-5.7997,-5.7997,-5.7593,-5.695,-5.684,-5.5978,-5.4711,-5.4601,-5.4142,-5.354,-5.3429,-5.3374,-5.3377,-5.3285,-5.3248,-5.3248,-5.3297,-5.3339,-5.3359,-5.3461,-5.3499,-5.3499,-5.3499,-5.3499,-5.3499,-5.3499,-5.3499,-5.3499,-5.3499,-5.3519,-5.3539,-5.3539,-5.3539,-5.3519,-5.3519,-5.3519,-5.3461,-5.3359,-5.3339,-5.3058,-5.2314,-5.2091,-5.1759,-5.1061,-5.0857,-5.0802,-5.0802,-5.0802,-5.0802,-5.0802,-5.0802,-5.0802,-5.0802,-5.0141,-4.9757,-4.9757,-4.904,-4.8636,-4.8636,-4.928,-4.9224,-4.8471,-4.8361,-4.8306,-4.8306,-4.8306,-4.8306,-4.5159,-4.5061,-4.52,0.0,-4.6518,-4.7055,0.0,0.0,0.0,0.0,0.0,0.0,0.0,0.0,0.0,0.0,0.0,0.0,0.0,0.0,0.0,0.0,0.0,0.0,0.0,0.0,0.0,0.0,0.0,0.0,-5.6581,-5.6568,-5.6717,-5.7188,-5.7188,-5.7188,-5.7188,-5.7264,-5.7332,-5.7388,-5.748,-5.7528,-5.7583,-5.7198,-5.7329,-5.7867,-5.7496,-5.7134,-5.673,-5.5831,-5.5042,-5.4363,-5.3904,-5.3518,-5.3185,-5.3185,-5.3185,-5.3185,-5.3185,-5.3185,-5.3206,-5.323,-5.3233,-5.3254,-5.3314,-5.3334,-5.3334,-5.3334,-5.3334,-5.3334,-5.3334,-5.3334,-5.3334,-5.3334,-5.3334,-5.3334,-5.3334,-5.3357,-5.3378,-5.3355,-5.3334,-5.3314,-5.3254,-5.2865,-5.2443,-5.2071,-5.1244,-5.0528,-5.016,-4.9701,-4.9407,-4.9407,-4.9407,-4.9407,-4.9407,-4.9348,-4.9347,-4.9347,-4.8939,-4.87,-4.87,-4.8332,-4.8131,-4.8131,-4.8615,-4.8672,-4.8247,-4.8247,-4.8208,-4.8131,-4.8131,-4.8131,0.0,0.0,-4.5138,-4.5784,-4.6069,-4.6525,0.0,0.0,0.0,0.0,0.0,0.0,0.0,0.0,0.0,0.0,0.0,0.0,0.0,0.0,0.0,0.0,0.0,0.0,0.0,0.0,0.0,0.0,0.0,0.0,-5.5667,-5.5721,-5.5993,-5.6591,-5.679,-5.6899,-5.6899,-5.7098,-5.7148,-5.703,-5.703,-5.6988,-5.6885,-5.6314,-5.6416,-5.7058,-5.6589,-5.6291,-5.5998,-5.4789,-5.4206,-5.3971,-5.3384,-5.3164,-5.3185,-5.3185,-5.3185,-5.3185,-5.3185,-5.3185,-5.3185,-5.3185,-5.3185,-5.3185,-5.3185,-5.3185,-5.3185,-5.3185,-5.3185,-5.3185,-5.3185,-5.3185,-5.3185,-5.3185,-5.3185,-5.3185,-5.3185,-5.3251,-5.3254,-5.3206,-5.3185,-5.3185,-5.3185,-5.2527,-5.1922,-5.172,-5.047,-4.9498,-4.9277,-4.8651,-4.8229,-4.8229,-4.8229,-4.8229,-4.8229,-4.8169,-4.8148,-4.8148,-4.807,-4.7992,-4.7992,-4.7992,-4.7992,-4.7992,-4.8151,-4.8208,-4.8148,-4.8148,-4.809,-4.7992,-4.7992,-4.7992,0.0,-4.4955,0.0,-4.4952,0.0,0.0,0.0,0.0,0.0,0.0,0.0,0.0,0.0,0.0,0.0,0.0,0.0,0.0,0.0,0.0,0.0,0.0,0.0,0.0,0.0,0.0,0.0,0.0,0.0,0.0,-5.4907,-5.4961,-5.4979,-5.5033,-5.5703,-5.6047,-5.6047,-5.6808,-5.6808,-5.6072,-5.6072,-5.571,-5.5039,-5.5069,-5.5098,-5.5158,-5.5239,-5.4852,-5.4141,-5.405,-5.3642,-5.3075,-5.3039,-5.3082,-5.3185,-5.3185,-5.3185,-5.3185,-5.3185,-5.3185,-5.3185,-5.3185,-5.3185,-5.3185,-5.3185,-5.3185,-5.3185,-5.3185,-5.3185,-5.3185,-5.3185,-5.3185,-5.3185,-5.3185,-5.3185,-5.3185,-5.3185,-5.3206,-5.3206,-5.3185,-5.3185,-5.3185,-5.3185,-5.2527,-5.1738,-5.0986,-5.0023,-4.912,-4.8372,-4.8108,-4.8012,-4.8012,-4.8012,-4.8012,-4.8012,-4.8012,-4.8012,-4.8012,-4.8012,-4.7992,-4.7992,-4.7992,-4.7992,-4.7992,-4.8012,-4.8012,-4.8012,-4.8012,-4.8012,-4.7992,-4.7992,-4.7992,0.0,0.0,0.0,-4.4895,0.0,0.0,0.0,0.0,0.0,0.0,0.0,0.0,0.0,0.0,0.0,0.0,0.0,0.0,0.0,0.0,0.0,0.0,0.0,0.0,0.0,0.0,0.0,0.0,0.0,0.0,-5.4092,-5.4128,-5.4381,-5.4888,-5.516,-5.5287,-5.5287,-5.5577,-5.5577,-5.5287,-5.5287,-5.516,-5.4888,-5.4393,-5.4181,-5.4145,-5.3666,-5.3672,-5.3954,-5.3444,-5.3101,-5.2872,-5.2872,-5.2912,-5.2934,-5.2934,-5.2999,-5.3082,-5.3082,-5.3124,-5.3185,-5.3185,-5.3185,-5.3185,-5.3185,-5.3185,-5.3185,-5.3185,-5.3185,-5.3185,-5.3185,-5.3185,-5.3185,-5.3185,-5.3185,-5.3185,-5.3185,-5.3185,-5.3185,-5.3185,-5.3185,-5.3185,-5.3082,-5.1983,-5.0973,-5.0597,-4.9387,-4.8399,-4.8107,-4.8032,-4.7992,-4.7992,-4.7992,-4.7992,-4.7992,-4.7968,-4.7945,-4.7945,-4.7866,-4.7824,-4.7824,-4.7824,-4.7824,-4.7824,-4.7824,-4.7845,-4.7945,-4.7945,-4.7886,-4.7824,-4.7824,-4.7824,-4.4896,0.0,0.0,0.0,0.0,0.0,0.0,0.0,0.0,0.0,0.0,0.0,0.0,0.0,0.0,0.0,0.0,0.0,0.0,0.0,0.0,0.0,0.0,0.0,0.0,0.0,0.0,0.0,0.0,0.0,-5.3277,-5.3295,-5.3675,-5.4472,-5.4508,-5.4635,-5.4907,-5.4907,-5.4762,-5.4508,-5.4508,-5.4363,-5.4092,-5.3548,-5.3295,-5.3277,-5.2733,-5.2862,-5.3458,-5.2908,-5.2694,-5.2721,-5.2721,-5.2761,-5.2806,-5.2806,-5.2868,-5.2915,-5.2915,-5.2977,-5.306,-5.306,-5.31,-5.3124,-5.3124,-5.3164,-5.3185,-5.3185,-5.3185,-5.3185,-5.3185,-5.3164,-5.3124,-5.3082,-5.306,-5.306,-5.306,-5.3103,-5.3124,-5.3124,-5.31,-5.3039,-5.2955,-5.16,-5.0501,-5.0417,-4.9008,-4.7968,-4.7968,-4.7929,-4.7909,-4.7909,-4.7909,-4.7909,-4.7909,-4.7863,-4.784,-4.784,-4.7759,-4.7717,-4.7717,-4.7717,-4.7717,-4.7717,-4.7717,-4.7738,-4.784,-4.784,-4.7798,-4.7717,-4.7717,-4.7717,0.0,0.0,0.0,0.0,0.0,0.0,0.0,0.0,0.0,0.0,0.0,0.0,0.0,0.0,0.0,0.0,0.0,0.0,0.0,0.0,0.0,0.0,0.0,0.0,0.0,0.0,0.0,0.0,0.0,-5.2462,-5.2462,-5.248,-5.286,-5.3639,-5.3657,-5.4037,-5.4834,-5.4834,-5.4454,-5.3657,-5.3657,-5.3259,-5.2498,-5.2498,-5.2498,-5.2498,-5.2498,-5.2498,-5.2498,-5.2498,-5.2531,-5.259,-5.259,-5.2676,-5.2783,-5.2783,-5.2783,-5.2783,-5.2783,-5.2783,-5.2806,-5.2806,-5.289,-5.298,-5.298,-5.3082,-5.3185,-5.3185,-5.3185,-5.3185,-5.3185,-5.3082,-5.2955,-5.2828,-5.2806,-5.2806,-5.2806,-5.2893,-5.2999,-5.2999,-5.289,-5.2806,-5.2783,-5.1471,-5.0432,-5.0396,-4.9,-4.7918,-4.7899,-4.778,-4.7717,-4.7717,-4.7717,-4.7717,-4.7717,-4.7717,-4.7717,-4.7717,-4.7717,-4.7717,-4.7717,-4.7717,-4.7717,-4.7717,-4.7717,-4.7717,-4.7717,-4.7717,-4.7717,-4.7717,-4.7735,-4.7753,-4.5712,0.0,0.0,0.0,0.0,0.0,0.0,0.0,0.0,0.0,0.0,0.0,0.0,0.0,0.0,0.0,0.0,0.0,0.0,0.0,0.0,0.0,0.0,0.0,0.0,0.0,0.0,0.0,-5.1292,-5.1629,-5.1629,-5.2172,-5.2589,-5.2824,-5.2824,-5.2933,-5.3168,-5.3168,-5.3041,-5.2824,-5.2824,-5.2715,-5.2498,-5.2498,-5.2498,-5.2498,-5.2498,-5.2498,-5.2498,-5.2498,-5.2503,-5.2526,-5.2526,-5.2549,-5.2572,-5.2572,-5.2622,-5.2654,-5.2654,-5.2721,-5.2806,-5.2806,-5.2846,-5.2868,-5.2868,-5.289,-5.2912,-5.2912,-5.2912,-5.2912,-5.2912,-5.289,-5.2846,-5.2806,-5.2806,-5.2806,-5.2806,-5.2743,-5.2743,-5.2828,-5.2846,-5.2761,-5.2676,-5.1835,-5.0977,-5.029,-4.9285,-4.8412,-4.7832,-4.7717,-4.7717,-4.7717,-4.7717,-4.7717,-4.7717,-4.7717,-4.7717,-4.7717,-4.7717,-4.7717,-4.7717,-4.7717,-4.7717,-4.7717,-4.7717,-4.7717,-4.7717,-4.7717,-4.7717,-4.7696,-4.8294,-4.8565,-4.5969,-4.5259,0.0,0.0,0.0,0.0,-4.4565,-4.457,0.0,0.0,0.0,0.0,0.0,0.0,0.0,0.0,0.0,0.0,0.0,0.0,0.0,0.0,0.0,0.0,0.0,0.0,0.0,0.0,-5.0457,-5.0963,-5.1267,-5.1737,-5.2131,-5.241,-5.2428,-5.2405,-5.234,-5.2317,-5.2317,-5.2317,-5.2317,-5.2317,-5.2317,-5.2317,-5.2317,-5.2317,-5.2317,-5.2317,-5.2317,-5.2317,-5.2405,-5.2498,-5.2498,-5.2498,-5.2498,-5.2498,-5.2526,-5.2559,-5.2559,-5.2622,-5.2667,-5.2667,-5.2694,-5.2717,-5.2717,-5.2761,-5.2806,-5.2806,-5.2806,-5.2783,-5.2739,-5.2717,-5.2717,-5.269,-5.2667,-5.2667,-5.2667,-5.2622,-5.2581,-5.2717,-5.2694,-5.2645,-5.2559,-5.1923,-5.1121,-5.0238,-4.942,-4.8601,-4.7808,-4.7717,-4.7717,-4.7717,-4.7717,-4.7717,-4.7717,-4.7717,-4.7717,-4.7717,-4.7717,-4.7717,-4.7717,-4.7717,-4.7717,-4.7717,-4.7717,-4.788,-4.8185,-4.7859,-4.788,-4.8203,-4.9039,-4.9401,-4.6058,-4.5233,-4.4599,0.0,0.0,0.0,-4.4501,-4.4501,-4.4501,0.0,0.0,0.0,0.0,0.0,0.0,0.0,0.0,0.0,0.0,0.0,0.0,0.0,0.0,0.0,0.0,0.0,-4.9068,-4.9068,-4.9622,-5.0307,-5.1104,-5.1158,-5.1452,-5.2149,-5.2143,-5.2132,-5.2102,-5.2102,-5.2102,-5.2102,-5.2102,-5.2102,-5.2102,-5.2102,-5.2102,-5.2102,-5.2102,-5.2102,-5.2102,-5.2102,-5.2246,-5.2452,-5.2475,-5.2475,-5.2475,-5.2498,-5.2498,-5.2498,-5.2498,-5.2498,-5.2498,-5.2498,-5.2531,-5.2586,-5.2586,-5.2654,-5.2779,-5.2779,-5.2779,-5.2739,-5.2631,-5.2586,-5.2563,-5.2503,-5.2498,-5.2498,-5.2498,-5.2498,-5.2526,-5.2586,-5.2531,-5.2498,-5.2498,-5.19,-5.1158,-5.0365,-4.9546,-4.8728,-4.7932,-4.7772,-4.7717,-4.7717,-4.7717,-4.7717,-4.7717,-4.7717,-4.7717,-4.7717,-4.7717,-4.7717,-4.7717,-4.7717,-4.7717,-4.7717,-4.7787,-4.8206,-4.8891,-4.8167,-4.8261,-4.9036,-4.9854,-5.0238,0.0,0.0,0.0,0.0,0.0,0.0,-4.4501,-4.4501,-4.4501,0.0,0.0,0.0,0.0,0.0,0.0,0.0,0.0,0.0,0.0,0.0,0.0,0.0,0.0,0.0,0.0,0.0,-4.8229,-4.8229,-4.8787,-4.9492,-5.0293,-5.024,-5.0534,-5.1318,-5.1243,-5.146,-5.2084,-5.2102,-5.2102,-5.2102,-5.2102,-5.2102,-5.2102,-5.2102,-5.2102,-5.2102,-5.2102,-5.2102,-5.2102,-5.2102,-5.2126,-5.2198,-5.2311,-5.2335,-5.2358,-5.2452,-5.2498,-5.2498,-5.2498,-5.2498,-5.2498,-5.2498,-5.2521,-5.2526,-5.2526,-5.2526,-5.2549,-5.2549,-5.2549,-5.2549,-5.2526,-5.2526,-5.2503,-5.2498,-5.2498,-5.2498,-5.2498,-5.2498,-5.2498,-5.2503,-5.2521,-5.2498,-5.2498,-5.2371,-5.1991,-5.1176,-5.0379,-4.9582,-4.8764,-4.8094,-4.7717,-4.7717,-4.7717,-4.7717,-4.7717,-4.7717,-4.7717,-4.7717,-4.7717,-4.7717,-4.7717,-4.7717,-4.7717,-4.7717,-4.8351,-4.8728,-4.8891,-4.8728,-4.9094,-4.9872,-5.0687,-5.1072,0.0,0.0,0.0,-4.5099,0.0,0.0,0.0,-4.4401,-4.4401,0.0,0.0,0.0,0.0,0.0,0.0,0.0,0.0,0.0,0.0,0.0,0.0,0.0,0.0,0.0,0.0,0.0,-4.7532,-4.7829,-4.8143,-4.8659,-4.9456,-4.9364,-4.9636,-5.0379,-5.0281,-5.0366,-5.0707,-5.1101,-5.1298,-5.1298,-5.171,-5.1889,-5.1889,-5.1889,-5.1889,-5.1889,-5.1889,-5.1889,-5.1889,-5.1889,-5.1889,-5.1914,-5.2126,-5.2198,-5.2198,-5.2269,-5.234,-5.2405,-5.2405,-5.2452,-5.2498,-5.2498,-5.2498,-5.2498,-5.2498,-5.2498,-5.2498,-5.2498,-5.2498,-5.2498,-5.2498,-5.2498,-5.2498,-5.2498,-5.2498,-5.2498,-5.2498,-5.2498,-5.2498,-5.2498,-5.2498,-5.2498,-5.2498,-5.2498,-5.2226,-5.1411,-5.0619,-4.98,-4.8981,-4.8185,-4.7717,-4.7717,-4.7717,-4.7717,-4.7717,-4.7717,-4.7717,-4.7717,-4.7717,-4.7717,-4.7717,-4.7717,-4.7717,-4.7717,-4.8432,-4.8985,-4.94,-4.9735,-5.0177,-5.0728,-5.1452,-5.1808,0.0,0.0,0.0,0.0,0.0,-4.43,0.0,0.0,0.0,0.0,0.0,0.0,0.0,0.0,0.0,0.0,0.0,0.0,0.0,0.0,0.0,0.0,0.0,0.0,0.0,0.0,-4.6817,-4.7409,-4.7482,-4.7805,-4.8598,-4.8507,-4.874,-4.9418,-4.9321,-4.9252,-4.9293,-4.9935,-5.0281,-5.0281,-5.1083,-5.1458,-5.1476,-5.1619,-5.169,-5.169,-5.169,-5.169,-5.169,-5.169,-5.169,-5.1715,-5.198,-5.2054,-5.2078,-5.2102,-5.2174,-5.2264,-5.2264,-5.2335,-5.241,-5.241,-5.2452,-5.2475,-5.2498,-5.2498,-5.2498,-5.2498,-5.2498,-5.2498,-5.2498,-5.2498,-5.2498,-5.2498,-5.2498,-5.2498,-5.2498,-5.2498,-5.2498,-5.2498,-5.2498,-5.2498,-5.2498,-5.2498,-5.2281,-5.1629,-5.0854,-5.0035,-4.9238,-4.842,-4.788,-4.7735,-4.7717,-4.7717,-4.7717,-4.7717,-4.7717,-4.7717,-4.7717,-4.7678,-4.7657,-4.7636,-4.7708,-4.785,-4.854,-4.9289,-5.0082,-5.0782,-5.1249,-5.147,-5.2004,-5.2264,0.0,0.0,0.0,0.0,-4.4916,0.0,0.0,0.0,0.0,0.0,0.0,0.0,0.0,0.0,0.0,0.0,0.0,0.0,0.0,0.0,0.0,0.0,0.0,0.0,0.0,0.0,0.0,-4.6597,-4.6649,-4.6951,-4.7623,-4.7529,-4.7761,-4.8437,-4.8376,-4.8645,-4.9293,-4.9382,-4.9436,-4.9436,-5.0263,-5.0637,-5.0673,-5.1369,-5.169,-5.169,-5.169,-5.169,-5.169,-5.169,-5.169,-5.1715,-5.1858,-5.1932,-5.1932,-5.2054,-5.2126,-5.2126,-5.2126,-5.2126,-5.215,-5.215,-5.224,-5.2335,-5.2475,-5.2498,-5.2498,-5.2498,-5.2498,-5.2498,-5.2498,-5.2498,-5.2498,-5.2498,-5.2498,-5.2498,-5.2498,-5.2498,-5.2498,-5.2498,-5.2498,-5.2498,-5.2498,-5.2498,-5.2462,-5.2371,-5.1665,-5.0873,-5.0053,-4.9257,-4.8475,-4.779,-4.7717,-4.7717,-4.7717,-4.7717,-4.7717,-4.7717,-4.7717,-4.7636,-4.7533,-4.7407,-4.7665,-4.8407,-4.9176,-4.9986,-5.0795,-5.1586,-5.1982,-5.2006,-5.209,-5.2126,0.0,0.0,0.0,0.0,0.0,0.0,0.0,0.0,-4.4131,0.0,0.0,0.0,0.0,0.0,0.0,0.0,0.0,0.0,0.0,0.0,0.0,0.0,0.0,0.0,0.0,0.0,0.0,0.0,0.0,-4.6587,-4.6789,-4.7111,-4.7397,-4.7644,-4.7548,-4.764,-4.7961,-4.8425,-4.8657,-4.8675,-4.9442,-4.9792,-4.9834,-5.0156,-5.0316,-5.0334,-5.0798,-5.0994,-5.103,-5.1512,-5.169,-5.169,-5.174,-5.1765,-5.1808,-5.184,-5.1932,-5.198,-5.198,-5.2011,-5.2102,-5.2102,-5.215,-5.2198,-5.2246,-5.2269,-5.2269,-5.2269,-5.2269,-5.2269,-5.2269,-5.2269,-5.2269,-5.2269,-5.2269,-5.2269,-5.2269,-5.2269,-5.2269,-5.2269,-5.2269,-5.2269,-5.2269,-5.2405,-5.2475,-5.2405,-5.1695,-5.0859,-4.9979,-4.9185,-4.8351,-4.754,-4.7468,-4.7468,-4.7468,-4.7468,-4.7468,-4.7468,-4.7468,-4.7428,-4.7385,-4.7791,-4.8165,-4.8488,-4.9654,-5.0456,-5.0797,-5.1495,-5.1864,-5.1864,-5.1956,-5.198,-4.8587,0.0,0.0,0.0,0.0,0.0,0.0,0.0,0.0,0.0,0.0,0.0,0.0,0.0,0.0,0.0,0.0,0.0,0.0,0.0,0.0,0.0,0.0,0.0,0.0,0.0,0.0,0.0,0.0,0.0,-4.5936,-4.6586,-4.6904,-4.6811,-4.6936,-4.6998,-4.6998,-4.7592,-4.7877,-4.7877,-4.8639,-4.899,-4.8942,-4.9156,-4.9263,-4.925,-4.9844,-5.0093,-5.0129,-5.0717,-5.1098,-5.1319,-5.1319,-5.1469,-5.169,-5.169,-5.174,-5.1858,-5.1858,-5.1907,-5.1987,-5.2011,-5.2054,-5.2054,-5.2102,-5.2102,-5.2102,-5.2102,-5.2102,-5.2102,-5.2102,-5.2102,-5.2102,-5.2102,-5.2102,-5.2102,-5.2102,-5.2102,-5.2102,-5.2102,-5.2102,-5.2102,-5.2102,-5.2269,-5.2358,-5.2264,-5.1759,-5.1045,-5.0124,-4.9333,-4.8524,-4.7715,-4.7427,-4.7302,-4.7302,-4.7302,-4.7302,-4.7302,-4.7473,-4.7559,-4.7559,-4.8308,-4.8824,-4.9039,-5.0092,-5.0742,-5.0974,-5.1472,-5.169,-5.169,-5.1808,-5.1858,0.0,0.0,0.0,-4.6389,0.0,0.0,0.0,0.0,-4.3804,0.0,0.0,0.0,0.0,0.0,0.0,0.0,0.0,0.0,0.0,0.0,0.0,0.0,0.0,0.0,0.0,0.0,0.0,0.0,0.0,0.0,-4.5021,-4.5685,-4.5988,-4.5838,-4.6587,-4.6998,-4.6998,-4.7015,-4.7033,-4.7033,-4.7859,-4.8182,-4.8075,-4.8839,-4.9128,-4.9004,-4.904,-4.904,-4.904,-4.9075,-4.9575,-5.0357,-5.0357,-5.0913,-5.169,-5.169,-5.169,-5.169,-5.169,-5.1715,-5.174,-5.1858,-5.1907,-5.1932,-5.2054,-5.2102,-5.2102,-5.2102,-5.2102,-5.2102,-5.2102,-5.2102,-5.2102,-5.2102,-5.2102,-5.2102,-5.2102,-5.2102,-5.2102,-5.2102,-5.2102,-5.2102,-5.2102,-5.2126,-5.2108,-5.2102,-5.2066,-5.1778,-5.0969,-5.016,-4.9351,-4.856,-4.7769,-4.7302,-4.7302,-4.7302,-4.7302,-4.7302,-4.7909,-4.8271,-4.8271,-4.8924,-4.9638,-5.0405,-5.0477,-5.0887,-5.168,-5.1672,-5.169,-5.169,-5.169,-5.169,0.0,0.0,-4.7624,-4.6911,0.0,0.0,0.0,0.0,0.0,0.0,0.0,0.0,0.0,0.0,0.0,0.0,0.0,0.0,0.0,0.0,0.0,0.0,0.0,0.0,0.0,0.0,0.0,0.0,0.0,0.0,0.0,-4.4842,-4.5376,-4.5784,-4.607,-4.6462,-4.698,-4.6911,-4.6865,-4.6865,-4.7062,-4.7116,-4.7086,-4.7352,-4.7452,-4.7446,-4.797,-4.8201,-4.8254,-4.8792,-4.9171,-4.9426,-4.9426,-4.9611,-5.0058,-5.1265,-5.169,-5.169,-5.169,-5.169,-5.1601,-5.1133,-5.0954,-5.089,-5.0378,-5.0241,-5.0241,-5.0241,-5.0617,-5.1028,-5.1028,-5.1446,-5.1858,-5.1858,-5.1858,-5.1858,-5.1858,-5.1858,-5.1858,-5.1858,-5.1858,-5.1858,-5.1858,-5.1858,-5.1882,-5.1956,-5.1956,-5.1627,-5.0766,-5.0402,-4.9722,-4.844,-4.8064,-4.7688,-4.7151,-4.7116,-4.733,-4.7867,-4.8107,-4.8442,-4.8936,-4.9698,-5.0227,-5.0495,-5.103,-5.1422,-5.169,-5.169,-5.169,-5.169,-5.169,-5.169,-4.7992,-4.7992,0.0,-4.7104,-4.6357,0.0,-4.4838,0.0,0.0,0.0,0.0,0.0,0.0,0.0,0.0,0.0,0.0,0.0,0.0,-4.087,0.0,0.0,0.0,0.0,0.0,0.0,0.0,-4.2844,-4.3272,0.0,0.0,0.0,-4.4528,-4.4981,-4.5249,-4.5744,-4.6483,-4.6415,-4.6488,-4.6731,-4.6637,-4.659,-4.6542,-4.6542,-4.6495,-4.6482,-4.7011,-4.7241,-4.7276,-4.7788,-4.8208,-4.8505,-4.8505,-4.8707,-4.9153,-5.0346,-5.0845,-5.0852,-5.0852,-5.0852,-5.0762,-5.0245,-5.0084,-4.9995,-4.9454,-4.9293,-4.9293,-4.9293,-4.9668,-5.0156,-5.0441,-5.0887,-5.1351,-5.1619,-5.169,-5.169,-5.169,-5.169,-5.169,-5.169,-5.169,-5.169,-5.169,-5.169,-5.1715,-5.1808,-5.1833,-5.1611,-5.0994,-5.0691,-5.012,-4.9103,-4.8746,-4.8371,-4.7854,-4.7818,-4.8032,-4.855,-4.8853,-4.9228,-4.9703,-5.0513,-5.0923,-5.0923,-5.144,-5.169,-5.169,-5.169,-5.169,-5.169,-5.169,-5.169]},{"header":{"parameterUnit":"m.s-1","parameterCategory":1,"la1":30.6,"la2":29.2853,"lo1":-89.7004,"lo2":-87.6739,"dy":0.0162,"dx":0.0183,"nx":112,"ny":82,"refTime":"2024-05-05T12:00:00:Z","depth":0,"parameterNumber":3,"parameterNumberName":"V-component_of_WINDS"},"data":[0.0,0.0,0.0,0.0,0.0,0.0,0.0,0.0,0.0,0.0,0.0,0.0,0.0,0.0,0.0,0.0,0.0,0.0,0.0,0.0,0.0,0.0,0.0,0.0,0.0,0.0,0.0,0.0,0.0,0.0,0.0,0.0,0.0,0.0,0.0,0.0,0.0,0.0,0.0,0.0,0.0,0.0,0.0,0.0,0.0,0.0,0.0,0.0,0.0,0.0,0.0,0.0,0.0,0.0,0.0,0.0,0.0,0.0,0.0,0.0,0.0,0.0,0.0,0.0,0.0,0.0,0.0,0.0,0.0,0.0,0.0,0.0,0.0,0.0,0.0,0.0,0.0,0.0,0.0,0.0,0.0,0.0,0.0,0.0,0.0,0.0,0.0,0.0,0.0,0.0,0.0,0.3791,0.3432,0.3178,0.313,0.2909,0.273,0.2687,0.0,0.0,0.0,0.0,0.0,0.0,0.0,0.0,0.0,0.0,0.0,0.0,0.0,0.0,0.0,0.0,0.0,0.0,0.0,0.0,0.0,0.0,0.0,0.0,0.0,0.0,0.0,0.0,0.0,0.0,0.0,0.0,0.0,0.0,0.0,0.0,0.0,0.0,0.0,0.0,0.0,0.0,0.0,0.0,0.0,0.0,0.0,0.0,0.0,0.0,0.0,0.0,0.0,0.0,0.0,0.0,0.0,0.0,0.0,0.0,0.0,0.0,0.0,0.0,0.0,0.0,0.0,0.0,0.0,0.0,0.0,0.0,0.0,0.0,0.0,0.0,0.0,0.0,0.0,0.0,0.0,0.0,0.0,0.0,0.0,0.0,0.0,0.0,0.0,0.0,0.0,0.0,0.0,0.0,0.0,0.0,0.0,0.0,0.0,0.0,0.0,0.0,0.0,0.0,0.4421,0.4235,0.4148,0.4096,0.4087,0.3975,0.3935,0.3925,0.0,0.0,0.0,0.0,0.0,0.0,0.0,0.0,0.0,0.0,0.0,0.0,0.0,0.0,0.0,0.0,0.0,0.0,0.0,0.0,0.0,0.0,0.0,0.0,0.0,0.0,0.0,0.0,0.0,0.0,0.0,0.0,0.0,0.0,0.0,0.0,0.0,0.0,0.0,0.0,0.0,0.0,0.0,0.0,0.0,0.0,0.0,0.0,0.0,0.0,0.0,0.0,0.0,0.0,0.0,0.0,0.0,0.0,0.0,0.0,0.0,0.0,0.0,0.0,0.0,0.0,0.0,0.0,0.0,0.0,0.0,0.0,0.0,0.0,0.0,0.0,0.0,0.0,0.0,0.0,0.0,0.0,0.0,0.0,0.0,0.0,0.0,0.0,0.0,0.0,0.0,0.0,0.0,0.0,0.0,0.0,0.0,0.0,0.0,0.0,0.0,0.0,0.0,0.4967,0.4818,0.4581,0.4463,0.4419,0.4379,0.4345,0.4288,0.4204,0.3673,0.0,0.0,0.0,0.0,0.0,0.0,0.0,0.0,0.0,0.0,0.0,0.0,0.0,0.0,0.0,0.0,0.0,0.0,0.0,0.0,0.0,0.0,0.0,0.0,0.0,0.0,0.0,0.0,0.0,0.0,0.0,0.0,0.0,0.0,0.0,0.0,0.0,0.0,0.0,0.0,0.0,0.0,0.0,0.0,0.0,0.0,0.0,0.0,0.0,0.0,0.0,0.0,0.0,0.0,0.0,0.0,0.0,0.0,0.0,0.0,0.0,0.0,0.0,0.0,0.0,0.0,0.0,0.0,0.0,0.0,0.0,0.0,0.0,0.0,0.0,0.0,0.0,0.0,0.0,0.0,0.0,0.0,0.0,0.0,0.0,0.0,0.0,0.0,0.0,0.0,0.0,0.0,0.0,0.0,0.0,0.0,0.0,0.0,0.0,0.0,0.0,0.0,0.5402,0.5283,0.5154,0.5002,0.4905,0.4845,0.482,0.4755,0.468,0.4581,0.0,0.0,0.0,0.0,0.0,0.0,0.0,0.0,0.0,0.0,0.0,0.0,0.0,0.0,0.0,0.0,0.0,0.0,0.0,0.0,0.0,0.0,0.0,0.0,0.0,0.0,0.0,0.0,0.0,0.0,0.0,0.0,0.0,0.0,0.0,0.0,0.0,0.0,0.0,0.0,0.0,0.0,0.0,0.0,0.0,0.0,0.0,0.0,0.0,0.0,0.0,0.0,0.0,0.0,0.0,0.0,0.0,0.0,0.0,0.0,0.0,0.0,0.0,0.0,0.0,0.0,0.0,0.0,0.0,0.0,0.0,0.0,0.0,0.0,0.0,0.0,0.0,0.0,0.0,0.0,0.0,0.0,0.0,0.0,0.0,0.0,0.0,0.0,0.0,0.0,0.0,0.0,0.0,0.0,0.0,0.0,0.0,0.0,0.0,0.0,0.0,0.0,0.5985,0.6089,0.6195,0.6158,0.6158,0.6154,0.6062,0.5999,0.5985,0.58,0.0,0.0,0.0,0.0,0.0,0.0,0.0,0.0,0.0,0.0,0.0,0.0,0.0,0.0,0.0,0.0,0.0,0.0,0.0,0.0,0.0,0.0,0.0,0.0,0.0,0.0,0.0,0.0,0.0,0.0,0.0,0.0,0.0,0.0,0.0,0.0,0.0,0.0,0.0,0.0,0.0,0.0,0.0,0.0,0.0,0.0,0.0,0.0,0.0,0.0,0.0,0.0,0.0,0.0,0.0,0.0,0.0,0.0,0.0,0.0,0.0,0.0,0.0,0.0,0.0,0.0,0.0,0.0,0.0,0.0,0.0,0.0,0.0,0.0,0.0,0.0,0.0,0.0,0.0,0.0,0.0,0.0,0.0,0.0,0.0,0.0,0.0,0.0,0.0,0.0,0.0,0.0,0.0,0.0,0.0,0.0,0.0,0.0,0.0,0.0,0.0,0.0,0.6317,0.6317,0.0,0.6274,0.6274,0.6274,0.6239,0.6186,0.6117,0.0,0.0,0.0,0.0,0.0,0.0,0.0,0.0,0.0,0.0,0.0,0.0,0.0,0.0,0.0,0.0,0.0,0.0,0.0,0.0,0.0,0.0,0.0,0.0,0.0,0.0,0.0,0.0,0.0,0.0,0.0,0.0,0.0,0.0,0.0,0.0,0.0,0.0,0.0,0.0,0.0,0.0,0.0,0.0,0.0,0.0,0.0,0.0,0.0,0.0,0.0,0.0,0.0,0.0,0.0,0.0,0.0,0.0,0.0,0.0,0.0,0.0,0.0,0.0,0.0,0.0,0.0,0.0,0.0,0.0,0.0,0.0,0.0,0.0,0.0,0.0,0.0,0.0,0.0,0.0,0.0,0.0,0.0,0.0,0.0,0.0,0.0,0.0,0.0,0.0,0.0,0.0,0.0,0.0,0.0,0.0,0.0,0.0,0.0,0.0,0.0,0.0,0.6898,0.6856,0.6793,0.0,0.6662,0.6606,0.672,0.672,0.6684,0.6715,0.0,0.0,0.0,0.0,0.0,0.0,0.0,0.0,0.0,0.0,0.0,0.0,0.0,0.0,0.0,0.0,0.0,0.0,0.0,0.0,0.0,0.0,0.0,0.0,0.0,0.0,0.0,0.0,0.0,0.0,0.0,0.0,0.0,0.0,0.0,0.0,0.0,0.0,0.0,0.0,0.0,0.0,0.0,0.0,0.0,0.0,0.0,0.0,0.0,0.0,0.0,0.0,0.0,0.0,0.0,0.0,0.0,0.0,0.0,0.0,0.0,0.0,0.0,0.0,0.0,0.0,0.0,0.0,0.0,0.0,0.0,0.0,0.0,0.0,0.0,0.0,0.0,0.0,0.0,0.0,0.0,0.0,0.0,0.0,0.0,0.0,0.0,0.0,0.0,0.0,0.0,0.0,0.0,0.0,0.0,0.0,0.0,0.0,0.0,0.0,0.0,0.0,0.7879,0.7746,0.761,0.761,0.7382,0.7326,0.761,0.761,0.7718,0.0,0.0,0.0,0.0,0.0,0.0,0.0,0.0,0.0,0.0,0.0,0.0,0.0,0.0,0.0,0.0,0.0,0.0,0.0,0.0,0.0,0.0,0.0,0.0,0.0,0.0,0.0,0.0,0.0,0.0,0.0,0.0,0.0,0.0,0.0,0.0,0.0,0.0,0.0,0.0,0.0,0.0,0.0,0.0,0.0,0.0,0.0,0.0,0.0,0.0,0.0,0.0,0.0,0.0,0.0,0.0,0.0,0.0,0.0,0.0,0.0,0.0,0.0,0.0,0.0,0.0,0.0,0.0,0.0,0.0,0.0,0.0,0.0,0.0,0.0,0.0,0.0,0.0,0.0,0.0,0.0,0.0,0.0,0.0,0.0,0.0,0.0,0.0,0.0,0.0,0.0,0.0,0.0,0.0,0.0,0.0,0.0,0.0,0.0,0.0,0.0,0.0,0.0,0.7891,0.7992,0.8082,0.8082,0.81,0.8154,0.8211,0.813,0.8138,0.8191,0.0,0.0,0.0,0.0,0.0,0.0,0.0,0.0,0.0,0.0,0.0,0.0,0.0,0.0,0.0,0.0,0.0,0.0,0.0,0.0,0.0,0.0,0.0,0.0,0.0,0.0,0.0,0.0,0.0,0.0,0.0,0.0,0.0,0.0,0.0,0.0,0.0,0.0,0.0,0.0,0.0,0.0,0.0,0.0,0.0,0.0,0.0,0.0,0.0,0.0,0.0,0.0,0.0,0.0,0.0,0.0,0.0,0.0,0.0,0.0,0.0,0.0,0.0,0.0,0.0,0.0,0.0,0.0,0.0,0.0,0.0,0.0,0.0,0.0,0.0,0.0,0.0,0.0,0.0,0.0,0.0,0.0,0.0,0.0,0.0,0.0,0.0,0.0,0.0,0.0,0.0,0.0,0.0,0.0,0.0,0.0,0.0,0.0,0.0,0.0,0.0,0.0,0.843,0.8429,0.8499,0.8555,0.8515,0.8561,0.8623,0.8608,0.8597,0.865,0.0,0.0,0.0,0.0,0.0,0.0,0.0,0.0,0.0,0.0,0.0,0.0,0.0,0.0,0.0,0.0,0.0,0.0,0.0,0.0,0.0,0.0,0.0,0.0,0.0,0.0,0.0,0.0,0.0,0.0,0.0,0.0,0.0,0.0,0.0,0.0,0.0,0.0,0.0,0.0,0.0,0.0,0.0,0.0,0.0,0.0,0.0,0.0,0.0,0.0,0.0,0.0,0.0,0.0,0.0,0.0,0.0,0.0,0.0,0.0,0.0,0.0,0.0,0.0,0.0,0.0,0.0,0.0,0.0,0.0,0.0,0.0,0.0,0.0,0.0,0.0,0.0,0.0,0.0,0.0,0.0,0.0,0.0,0.0,0.0,0.0,0.0,0.0,0.0,0.0,0.0,0.0,0.0,0.0,0.0,0.0,0.0,0.0,0.0,0.0,0.0,0.0,0.9233,0.9064,0.8909,0.9039,0.8826,0.8832,0.9072,0.9062,0.9112,0.9319,0.0,0.0,0.0,0.0,0.0,0.0,0.0,0.0,0.0,0.0,0.0,0.0,0.0,0.0,0.0,0.0,0.0,0.0,0.0,0.0,0.0,0.0,0.0,0.0,0.0,0.0,0.0,0.0,0.0,0.0,0.0,0.0,0.0,0.0,0.0,0.0,0.0,0.0,0.0,0.0,0.0,0.0,0.0,0.0,0.0,0.0,0.0,0.0,0.0,0.0,0.0,0.0,0.0,0.0,0.0,0.0,0.0,0.0,0.0,0.0,1.2418,0.0,0.0,0.0,0.0,0.0,0.0,0.0,0.0,0.0,0.0,0.0,0.0,0.0,0.0,0.0,0.0,0.0,0.0,0.0,0.0,0.0,0.0,0.0,0.0,0.0,0.0,0.0,0.0,0.0,0.0,0.0,0.0,0.0,0.0,0.0,0.0,0.0,0.0,0.0,0.0,0.0,0.9874,1.0055,1.023,1.0203,1.0253,1.0325,1.0385,1.0276,1.0252,1.0277,1.0086,0.0,0.0,0.0,0.0,0.0,0.0,0.0,0.0,0.0,0.0,0.0,0.0,0.0,0.0,0.0,0.0,0.0,0.0,0.0,0.0,0.0,0.0,0.0,0.0,0.0,0.0,0.0,0.0,0.0,0.0,0.0,0.0,0.0,0.0,0.0,0.0,0.0,0.0,0.0,0.0,0.0,0.0,0.0,0.0,0.0,0.0,0.0,0.0,0.0,0.0,0.0,0.0,0.0,0.0,0.0,0.0,0.0,0.0,0.0,0.0,1.2538,0.0,0.0,0.0,0.0,0.0,0.0,0.0,0.0,0.0,0.0,0.0,0.0,0.0,0.0,0.0,0.0,0.0,0.0,0.0,0.0,0.0,0.0,0.0,0.0,0.0,0.0,0.0,0.0,0.0,0.0,0.0,0.0,0.0,0.0,0.0,0.0,0.0,0.0,0.0,0.0,1.0332,1.0505,1.0643,1.0662,1.074,1.0789,1.0789,1.0714,1.0696,1.0621,1.0565,0.0,0.0,0.0,0.0,0.0,0.0,0.0,0.0,0.0,0.0,0.0,0.0,0.0,0.0,0.0,0.0,0.0,0.0,0.0,0.0,0.0,0.0,0.0,0.0,0.0,0.0,0.0,0.0,0.0,0.0,0.0,0.0,0.0,0.0,0.0,0.0,0.0,0.0,0.0,0.0,0.0,0.0,0.0,0.0,0.0,0.0,0.0,0.0,0.0,0.0,0.0,0.0,0.0,1.5778,1.5502,1.4875,1.4681,1.4492,1.4293,1.3895,1.3475,1.3064,0.0,0.0,0.0,0.0,0.0,0.0,0.0,0.0,0.0,0.0,0.0,0.0,0.0,0.0,0.0,0.0,0.0,0.0,0.0,0.0,0.0,0.0,0.0,0.0,0.0,0.9771,0.9851,0.0,0.0,0.0,0.0,0.0,0.0,0.0,0.0,0.0,0.0,0.0,0.0,1.0698,1.0821,1.083,1.0959,1.0974,1.0974,1.0974,1.0974,1.0978,1.09,1.1043,1.1074,0.0,0.0,0.0,0.0,0.0,0.0,0.0,0.0,0.0,0.0,0.0,0.0,0.0,0.0,0.0,0.0,0.0,0.0,0.0,0.0,0.0,0.0,0.0,0.0,0.0,0.0,0.0,0.0,0.0,0.0,0.0,0.0,1.8265,1.7779,0.0,0.0,0.0,0.0,0.0,0.0,0.0,0.0,0.0,0.0,0.0,0.0,0.0,1.7203,1.6592,1.6664,1.6414,1.5778,1.5778,1.5502,1.4885,1.4853,1.4821,1.4789,1.4724,0.0,1.3064,1.2751,0.0,0.0,0.0,0.0,0.0,0.0,0.0,0.0,0.0,0.0,0.0,0.0,0.0,0.0,0.0,0.0,0.0,0.0,0.0,0.0,0.0,0.0,0.9855,1.0069,1.0143,1.0163,0.0,1.0126,1.0151,1.0175,1.0274,0.0,0.0,0.0,0.0,0.0,0.0,0.0,1.1378,1.1523,1.1631,1.1651,1.1651,1.1651,1.1651,1.1651,1.176,1.1964,1.1938,1.1951,1.2255,1.1964,0.0,0.0,0.0,0.0,0.0,0.0,0.0,0.0,0.0,0.0,0.0,0.0,0.0,0.0,0.0,0.0,0.0,0.0,0.0,0.0,0.0,0.0,0.0,0.0,0.0,0.0,0.0,0.0,0.0,1.8407,1.8282,1.8121,1.8379,1.8599,0.0,0.0,0.0,0.0,0.0,0.0,0.0,0.0,0.0,1.7595,1.7572,1.7365,1.6917,1.7213,1.706,1.6417,1.6566,1.6264,1.5542,1.5542,1.5338,1.509,1.509,1.4722,1.4093,1.3475,1.308,1.2853,0.0,0.0,0.0,0.0,1.1704,1.1548,1.1548,1.1325,0.0,0.0,0.0,0.0,0.0,0.0,0.0,0.0,0.0,0.0,0.0,0.0,0.0,1.0196,1.0241,1.0314,1.0314,1.0473,1.0558,0.0,1.0542,1.0761,1.0834,0.0,0.0,0.0,0.0,0.0,1.1642,1.1809,1.198,1.2228,1.2316,1.2436,1.2687,1.2528,1.2529,1.2643,1.2466,1.2434,1.251,1.2458,1.2332,0.0,0.0,0.0,0.0,0.0,0.0,0.0,0.0,0.0,0.0,0.0,0.0,0.0,0.0,0.0,0.0,0.0,0.0,0.0,0.0,0.0,0.0,0.0,0.0,0.0,0.0,0.0,0.0,1.8554,1.8461,1.8451,1.8738,1.8926,0.0,0.0,0.0,0.0,0.0,0.0,1.8604,1.8378,1.8112,1.7906,1.7816,1.7612,1.74,1.7787,1.7678,1.7011,1.7211,1.6898,1.6104,1.6104,1.5817,1.5429,1.5429,1.5289,1.5042,1.424,1.3744,1.3477,1.2762,1.2334,1.2129,1.2077,1.2025,1.1968,1.1864,1.1865,1.1766,1.1559,0.0,1.1351,1.1144,0.0,0.0,0.0,0.0,1.0381,1.0374,1.0391,1.0359,1.04,1.0473,1.0582,1.0736,1.0958,1.1056,0.0,1.0822,1.1049,1.1098,0.0,0.0,0.0,0.0,1.1867,1.2007,1.2237,1.2469,1.2783,1.2903,1.3044,1.3367,1.3172,1.3071,1.3146,1.3004,1.2895,1.2822,1.2944,1.2892,1.2588,0.0,0.0,0.0,0.0,0.0,0.0,0.0,0.0,0.0,0.0,0.0,0.0,0.0,0.0,0.0,0.0,0.0,0.0,0.0,0.0,0.0,0.0,0.0,0.0,0.0,0.0,0.0,0.0,0.0,1.881,1.9069,0.0,0.0,0.0,0.0,1.8919,1.8906,1.8905,1.8905,1.8864,1.8842,1.8758,1.8492,1.8335,1.8233,1.8257,1.7962,1.7285,1.7297,1.6926,1.6296,1.6296,1.6156,1.5974,1.5974,1.5839,1.5526,1.4771,1.4298,1.3952,1.3596,1.3297,1.298,1.2847,1.2587,1.2325,1.2137,1.1935,1.1817,1.1766,1.161,1.1403,1.1403,1.1196,0.0,0.0,1.0993,1.0932,1.0854,1.0852,1.0886,1.0962,1.0936,1.1101,1.1551,1.1659,1.156,0.0,1.1086,1.1265,1.1443,0.0,1.1549,1.1736,1.2207,1.2566,1.2574,1.2985,1.3353,1.3353,1.3295,1.3299,1.3367,1.3353,1.3336,1.3466,1.3444,1.3527,1.3624,1.349,1.3381,1.3358,1.2956,0.0,0.0,0.0,0.0,0.0,0.0,0.0,0.0,0.0,0.0,0.0,0.0,0.0,0.0,0.0,0.0,0.0,0.0,0.0,0.0,0.0,0.0,0.0,0.0,0.0,0.0,0.0,0.0,1.9441,1.9538,0.0,1.9631,1.9361,1.9169,1.9203,1.9202,1.9205,1.9205,1.9005,1.8845,1.8828,1.8476,1.8319,1.8294,1.8463,1.8229,1.7474,1.7696,1.7312,1.6538,1.6538,1.6409,1.6183,1.6183,1.6134,1.6032,1.5644,1.5099,1.4473,1.3752,1.3464,1.3345,1.3098,1.2913,1.2833,1.2762,1.2602,1.2403,1.2261,1.2112,1.2054,1.2054,1.1844,1.163,1.163,1.1616,1.1573,1.1533,1.1642,1.1764,1.1789,1.1762,1.1837,1.2016,1.2133,1.2145,1.2022,1.2003,1.2067,1.214,1.229,1.2474,1.2542,1.2894,1.3078,1.3078,1.3311,1.362,1.3816,1.3924,1.4125,1.4323,1.4208,1.417,1.4222,1.397,1.3911,1.4195,1.3992,1.3932,1.3966,1.3813,1.3608,0.0,0.0,0.0,0.0,0.0,0.0,0.0,0.0,0.0,0.0,0.0,0.0,0.0,0.0,0.0,0.0,0.0,0.0,0.0,0.0,0.0,0.0,0.0,0.0,0.0,0.0,1.9564,1.9779,1.9826,1.9758,1.9618,1.9453,1.9374,1.941,1.9459,1.9512,1.9395,1.9126,1.8959,1.8926,1.857,1.8469,1.8559,1.8728,1.8433,1.773,1.7895,1.7569,1.6775,1.6775,1.6651,1.6431,1.6431,1.6387,1.6301,1.614,1.5766,1.5219,1.4379,1.3915,1.3732,1.3485,1.3289,1.3164,1.3093,1.3036,1.2843,1.2696,1.2649,1.2649,1.2649,1.2483,1.2372,1.2372,1.2362,1.2303,1.219,1.2227,1.2338,1.2289,1.2307,1.2325,1.2503,1.2623,1.2798,1.2985,1.2766,1.2561,1.2687,1.2851,1.304,1.3106,1.3407,1.359,1.359,1.3828,1.4147,1.4346,1.4461,1.467,1.4866,1.4813,1.4704,1.4761,1.4494,1.4456,1.4673,1.4534,1.4476,1.4368,1.4346,1.4088,1.3699,0.0,0.0,0.0,0.0,0.0,0.0,0.0,0.0,0.0,0.0,0.0,0.0,0.0,0.0,0.0,0.0,0.0,0.0,0.0,0.0,0.0,0.0,0.0,2.0181,1.999,1.9801,1.9847,1.9815,1.9653,1.9371,1.9364,1.9424,1.9424,1.9639,1.9622,1.9331,1.9296,1.9203,1.9094,1.8874,1.8819,1.9072,1.9078,1.8752,1.8039,1.8033,1.7647,1.7007,1.7001,1.6883,1.6736,1.6736,1.6549,1.6334,1.6328,1.6328,1.6218,1.544,1.4779,1.4217,1.4001,1.3747,1.3367,1.315,1.3136,1.3136,1.3127,1.3122,1.3122,1.3122,1.3122,1.3122,1.3122,1.3069,1.3022,1.2731,1.2621,1.2618,1.2525,1.2515,1.2681,1.3103,1.3209,1.3398,1.3911,1.3294,1.2798,1.2996,1.3031,1.3164,1.3412,1.3802,0.0,1.4125,1.4554,1.4866,1.4866,1.4866,1.4931,1.4936,1.4936,1.4976,1.515,1.513,1.5071,1.5019,1.5049,1.4877,1.466,1.4427,1.4151,1.3775,0.0,0.0,0.0,0.0,0.0,0.0,0.0,0.0,0.0,0.0,0.0,0.0,0.0,0.0,0.0,0.0,0.0,0.0,0.0,0.0,0.0,0.0,1.9655,1.9869,2.0055,2.0168,2.0143,1.9969,1.9743,1.9692,1.9486,1.9424,1.9424,1.9404,1.939,1.9271,1.9238,1.915,1.91,1.9051,1.9006,1.9078,1.9078,1.8886,1.8437,1.8168,1.7781,1.7335,1.7136,1.6969,1.691,1.691,1.6872,1.6802,1.6635,1.6565,1.6533,1.5855,1.5395,1.5129,1.4821,1.4396,1.3941,1.3489,1.3301,1.3277,1.3179,1.3122,1.3122,1.3122,1.3122,1.3122,1.3122,1.3183,1.3301,1.3185,1.3288,1.3414,1.3351,1.337,1.3384,1.3555,1.369,1.3817,1.4,1.3896,1.3908,1.3902,1.404,1.4161,1.428,1.4525,0.0,1.4656,1.4833,1.4866,1.4866,1.4866,1.5001,1.5332,1.5332,1.5434,1.5754,1.5603,1.559,1.5768,1.552,1.5361,1.531,1.5072,1.4893,0.0,0.0,0.0,0.0,0.0,0.0,0.0,0.0,0.0,0.0,0.0,0.0,0.0,0.0,0.0,0.0,0.0,0.0,0.0,0.0,0.0,0.0,1.9366,1.9462,1.9754,1.998,2.0097,2.0118,1.9943,1.9758,1.9649,1.9475,1.9366,1.9185,1.9331,1.9326,1.9079,1.9231,1.9279,1.9089,1.9121,1.9078,1.9078,1.9078,1.895,1.8571,1.8173,1.7846,1.747,1.7136,1.7001,0.0,1.7001,1.7001,1.699,1.6861,1.6807,0.0,0.0,0.0,0.0,0.0,1.4715,1.4275,1.3886,1.3637,1.3495,1.3367,1.3329,1.3329,1.3329,1.3329,1.3329,1.3329,1.3419,1.3514,1.3514,1.3603,1.3688,1.3688,1.3759,1.3825,1.3825,1.3991,1.4166,1.4255,1.4364,0.0,1.4558,1.4605,1.4662,1.4682,1.486,1.4866,1.4866,1.4866,1.4866,1.4866,1.5066,1.5267,1.5468,1.5658,0.0,0.0,0.0,1.6084,1.6202,1.5905,0.0,0.0,0.0,1.529,1.5194,0.0,0.0,0.0,1.358,1.3371,0.0,0.0,0.0,0.0,0.0,0.0,0.0,0.0,0.0,0.0,0.0,0.0,0.0,0.0,0.0,0.0,1.915,1.9458,1.971,1.9723,1.9792,1.9781,1.9758,1.9649,1.9424,1.9366,1.9256,1.8985,1.9322,1.9334,1.8809,0.0,0.0,0.0,0.0,1.9078,1.9078,1.9078,1.895,1.8635,1.8232,1.7846,1.7529,1.7201,1.7001,1.7001,1.7001,1.7001,1.7001,1.7001,1.7001,1.6964,1.6522,1.6163,1.5815,1.5284,1.4891,1.4612,1.434,0.0,0.0,1.3758,1.3748,1.3688,1.3688,1.3688,1.3688,1.3688,1.3688,1.3688,1.3688,1.3688,1.3693,1.3717,1.3873,1.4014,1.4043,1.4203,1.4407,1.4596,1.4652,1.4659,1.4838,1.472,1.4663,1.4842,1.4866,1.4866,1.4866,1.4931,1.5001,1.5001,0.0,0.0,1.5598,1.5914,1.6169,1.6564,1.6564,1.6498,1.6371,1.6118,1.5936,1.5645,1.5612,1.5499,1.5231,1.5204,1.5138,1.4912,1.4449,1.4066,0.0,0.0,0.0,0.0,0.0,0.0,0.0,0.0,0.0,0.0,0.0,0.0,0.0,0.0,0.0,1.8828,1.8932,1.9071,1.9372,1.9462,1.9588,1.9751,1.9591,1.9482,1.9424,1.9185,1.9044,1.9226,1.9009,1.892,1.9013,1.9151,0.0,1.9078,1.9078,1.9078,1.9078,1.9078,1.9078,1.9014,0.0,0.0,1.7905,1.7265,1.7001,1.7001,1.7001,1.7001,1.7001,1.7001,1.7001,1.6974,1.67,1.6597,1.6439,1.5888,1.5618,1.5458,1.4993,1.4609,1.4336,1.4166,1.3933,1.3688,1.3688,1.3688,0.0,1.3688,1.3688,1.3688,1.3688,1.3688,1.3736,1.3906,1.3981,1.4057,1.4218,1.4421,1.4518,1.456,1.4696,1.4823,1.4861,1.4903,1.4889,1.4861,1.4866,1.4866,1.4866,1.5197,1.5398,1.5398,1.5719,1.6044,1.6304,1.6369,1.6564,1.6877,1.6877,1.6819,1.6608,1.6366,1.6129,1.5942,1.5693,1.5575,1.5531,1.5285,1.5167,1.5113,1.4636,1.4411,0.0,0.0,0.0,0.0,0.0,0.0,0.0,0.0,0.0,0.0,0.0,1.8016,1.8015,0.0,1.8498,1.8646,1.8836,1.8967,1.9085,1.9143,1.9178,1.9345,1.9236,1.9121,1.909,1.8978,1.8858,1.8971,1.8938,1.8902,1.8918,1.906,1.9078,1.9078,1.9078,1.9078,1.9078,1.9078,1.9078,1.9072,1.8361,1.7969,1.7969,1.7324,1.7001,1.7001,1.7001,1.7001,1.7001,1.7001,1.7001,1.699,1.6877,1.6834,1.6807,1.6381,1.6165,1.5946,1.553,1.5201,1.4853,1.4458,1.4268,1.4062,1.3781,1.3688,1.3688,1.3688,1.3688,1.3712,1.3821,1.3849,1.3901,1.4109,1.4241,1.435,1.4449,1.4638,1.472,1.472,1.48,1.4866,1.4866,1.4866,1.4866,1.4866,1.4866,1.5001,1.5197,1.5398,1.5528,1.5719,1.6044,1.6304,1.6499,1.6623,1.6812,1.7001,1.7001,1.6899,1.6736,1.6549,1.6317,1.6012,1.5893,1.5715,1.5601,1.5483,1.5424,1.5418,1.5,1.4705,0.0,0.0,0.0,0.0,0.0,0.0,0.0,0.0,1.7379,1.7739,1.7853,1.7846,1.7886,1.8143,1.832,1.8399,1.8602,1.8733,1.8784,1.8823,1.8765,1.8706,1.881,1.8874,1.8809,1.8819,1.879,1.876,1.892,1.8943,1.8821,1.8963,1.9078,1.9078,1.9078,1.9078,1.9078,1.9078,1.9078,1.9072,1.8361,1.7969,1.7969,1.7324,1.7001,1.7001,1.7001,1.7001,1.7001,1.7001,1.7001,1.7007,1.7071,1.7071,1.705,1.6861,1.6599,1.6435,1.6081,1.581,1.5457,1.4863,1.461,1.4453,1.398,1.3811,1.3811,1.3811,1.3811,1.3849,1.4024,1.4071,1.4123,1.4326,1.4506,1.4579,1.4621,1.4818,1.4866,1.4866,1.4866,1.4866,1.4866,1.4866,1.4866,1.4866,1.5001,1.5132,1.5468,1.5598,1.5789,1.6039,1.6429,1.6629,1.6629,1.6812,1.7001,1.7001,1.7001,1.692,1.6737,1.6747,1.652,1.6088,1.6034,1.5893,1.5601,1.5601,1.5601,1.5591,1.5408,1.5033,1.414,1.4601,1.5224,1.5802,1.5985,1.6074,0.0,0.0,1.6613,1.7174,1.7285,1.7371,1.7607,1.7692,1.7779,1.8044,1.8103,1.8161,1.8435,1.848,1.8363,1.8142,1.8526,1.8796,1.8828,1.8755,1.8828,1.9038,1.885,1.8851,1.9018,1.906,1.9078,1.9078,1.9078,1.9078,1.9078,1.9078,1.9078,1.9072,1.8361,1.7969,1.7969,1.7324,1.7001,1.7001,1.7001,1.7001,1.7001,1.7001,1.7001,1.7001,1.7335,1.7464,1.74,1.7109,1.7162,1.7264,1.6769,1.6366,1.6008,1.5399,1.5022,1.4711,1.4313,1.4241,1.4241,1.4241,1.4241,1.4246,1.427,1.4279,1.4331,1.4548,1.4551,1.4621,1.486,1.4852,1.4866,1.4866,1.4866,1.4866,1.4866,1.4866,1.4866,1.4866,1.5202,1.5468,1.5468,1.6049,1.6369,1.6434,1.6753,1.6942,1.6942,1.7007,1.7001,1.7001,1.7001,1.699,1.6969,1.677,1.6544,1.628,1.612,1.5893,1.5601,1.5601,1.5601,1.5601,1.5575,1.5418,1.4072,1.4641,1.5176,0.0,1.5917,1.6216,1.648,1.6506,1.6596,1.6869,1.7036,1.7197,1.7312,1.7601,1.7847,0.0,1.8141,1.823,1.8181,1.82,1.8139,1.794,1.8257,1.8483,1.8483,1.86,1.8807,1.9075,1.8973,1.8963,1.9066,1.9078,1.9078,1.9078,1.9078,1.9078,1.9078,1.9078,1.9078,1.9072,1.8361,1.7969,1.7969,1.7324,1.7001,1.7001,1.7001,1.7001,1.7001,1.7001,1.7136,1.7271,1.7464,1.7594,1.7717,1.7394,1.74,1.7453,1.7027,1.6797,1.6562,1.6013,1.563,1.5236,1.4726,1.4437,1.4312,1.4312,1.4312,1.434,1.4463,1.4501,1.4553,1.4756,1.4743,1.4832,1.4852,1.4866,1.4866,1.4866,1.4866,1.4866,1.4866,1.5066,1.5267,1.5267,1.5403,1.5663,1.6049,1.6309,1.6564,1.6753,1.6942,1.7001,1.7001,1.7001,1.7001,1.7001,1.7001,1.7001,1.7001,1.6915,1.6689,1.6323,1.6215,1.5973,1.5601,1.5601,1.5601,1.5601,1.5601,1.5548,1.4068,0.0,0.0,1.5293,1.57,1.6111,1.6318,1.6418,1.6543,1.6672,1.686,1.7056,1.7158,1.756,1.7856,1.788,1.8056,1.8071,1.7901,1.791,1.7968,1.7913,1.8185,1.8402,1.8402,1.8638,1.8873,1.906,1.9078,1.9078,1.9078,1.9078,1.9078,1.9078,1.9078,1.9078,1.9078,1.9078,1.9078,1.9072,1.8431,1.8103,1.7969,1.7324,1.7001,1.7001,1.7001,1.7071,1.7136,1.7136,1.733,1.7658,1.7793,1.7852,1.7969,1.7723,1.7594,1.7464,1.7136,1.7001,1.691,1.6423,1.6056,1.5711,1.5169,1.474,1.4482,1.4482,1.4482,1.4515,1.4612,1.4649,1.4687,1.4898,1.4866,1.4866,1.4866,1.4866,1.4866,1.4866,1.4866,1.4931,1.5066,1.5332,1.5533,1.5729,1.5794,1.5919,1.6439,1.6564,1.6753,1.6942,1.7001,1.7001,1.7001,1.7001,1.7001,1.7001,1.7001,1.7001,1.7001,1.7001,1.6818,1.642,1.6344,1.6108,1.5693,1.5634,1.5601,1.5601,1.5601,1.5601,1.4094,0.0,1.4702,1.497,1.5256,1.5535,1.5535,1.5737,1.6071,1.6604,1.672,1.6894,1.7376,1.7475,1.7504,1.7547,1.7531,1.7537,1.7543,1.7761,1.7925,1.7871,1.8348,1.8674,0.0,1.8909,1.9066,1.9078,1.9078,1.9078,1.9078,1.9078,1.9078,1.9078,1.9078,1.9078,1.9078,1.9078,1.9078,1.9078,1.8764,1.8372,1.7969,1.7324,1.7001,1.7001,1.7001,1.7201,1.7464,1.7464,1.7658,1.8039,1.8437,1.8308,1.7969,1.7969,1.7781,1.7464,1.7136,1.7001,1.6942,1.6618,1.6294,1.5964,1.5578,1.5183,1.4847,1.4847,1.4847,1.4852,1.4856,1.4856,1.4861,1.4931,1.4866,1.4866,1.4866,1.4866,1.4866,1.4866,1.4866,1.5001,1.5398,1.5468,1.5724,1.6374,1.6499,1.6504,1.6499,1.6753,1.7001,1.7001,1.7001,1.7001,1.7001,1.7001,1.7001,1.7001,1.7001,1.7001,1.7001,1.7001,1.6894,1.672,1.6431,1.6188,1.5996,1.5709,1.5601,1.5601,1.5601,1.5601,1.3581,1.3959,1.4385,1.4439,1.4821,1.5154,1.5154,1.5551,1.597,1.6114,1.6573,1.7051,1.7177,1.7405,1.7493,1.7525,1.7485,1.7545,1.7714,1.7817,1.8004,1.8372,1.8571,0.0,0.0,0.0,0.0,1.9078,1.9078,1.9078,1.9078,1.9078,1.9078,1.9078,1.9078,1.9078,1.9078,1.9078,1.9078,1.9072,1.8495,1.8039,1.7658,1.7201,1.7136,1.7335,1.7335,1.7529,1.7846,1.7846,1.8045,1.8437,1.8571,1.8372,1.7969,1.7969,1.7647,1.7136,1.7071,1.7001,1.7007,1.6877,1.6623,1.6239,1.5914,1.5588,1.5267,1.5001,1.4866,1.4866,1.4866,1.4866,1.4866,1.4866,1.4866,1.4866,1.4866,1.4866,1.4866,1.4866,1.4866,1.5001,1.5403,1.5658,1.6039,1.6753,1.6818,1.6818,1.6818,1.6942,1.7001,1.7001,1.7001,1.7001,1.7001,1.7001,1.7001,1.7001,1.7001,1.7001,1.7001,1.7001,1.6894,1.6731,1.6436,1.6194,1.6007,1.5715,1.5601,1.5601,1.5601,1.5601,1.3098,1.3527,1.39,1.4013,1.439,1.4736,1.4939,1.5358,1.58,1.6092,1.6568,1.7002,1.7213,1.737,1.7485,1.7485,1.7485,1.7575,1.7835,1.7962,1.8191,1.8632,1.8764,0.0,0.0,0.0,0.0,1.9078,1.9078,1.9078,1.9078,1.9078,1.9078,1.9078,1.9078,1.9078,1.9078,1.9078,1.9078,1.9072,1.8495,1.8045,1.7658,1.7459,1.7394,1.7535,1.7658,1.7852,1.8232,1.8232,1.8437,1.8764,1.8764,1.8565,1.8173,1.8039,1.7647,1.7136,1.7071,1.7001,1.7001,1.7001,1.6753,1.6434,1.6104,1.5784,1.5398,1.5001,1.4866,1.4866,1.4866,1.4866,1.4866,1.4866,1.4866,1.4866,1.4866,1.4866,1.4866,1.4866,1.5001,1.5197,1.5588,1.6039,1.6488,1.6942,1.7001,1.7001,1.7001,1.7001,1.7001,1.7001,1.7001,1.7001,1.7001,1.7001,1.7001,1.7001,1.7001,1.7001,1.7001,1.7001,1.6894,1.6731,1.6436,1.6194,1.6007,1.5715,1.5601,1.5601,1.5601,1.5601,1.2772,1.3044,1.3315,1.3591,1.3905,1.4288,1.4817,1.5209,1.5622,1.6401,1.6569,1.6831,1.7378,0.0,1.7485,1.7485,1.7491,1.7593,1.7859,1.8137,1.8408,0.0,0.0,0.0,0.0,0.0,0.0,1.9078,0.0,1.9078,1.9078,1.9078,1.9078,1.9078,1.9078,1.9078,1.9078,1.9078,1.9078,1.9078,1.8764,1.8372,1.8033,1.8033,1.7846,1.7599,1.791,1.8238,1.8635,1.8635,1.8822,1.9078,1.9078,1.8886,1.8571,1.8173,1.7781,1.7464,1.7136,1.7001,1.7001,1.7001,1.6753,1.6434,1.6104,1.5784,1.5468,1.5001,1.4866,1.4866,1.4866,1.4866,1.4866,1.4866,1.4866,1.4866,1.4866,1.4866,1.4866,1.4866,1.5267,1.5658,1.5974,1.6553,1.7001,1.7001,1.7001,1.7001,1.7001,1.7001,1.7001,1.7001,1.7001,1.7001,1.7001,1.7001,1.7001,1.7001,1.7001,1.7001,1.7001,1.7001,1.6894,1.6731,1.6436,1.6194,1.6007,1.5715,1.5601,1.5601,1.5601,1.5601,1.2169,1.2441,1.2713,1.3044,1.3478,1.3919,1.4261,1.4893,1.5502,1.5868,1.6431,1.6944,1.7126,0.0,0.0,1.7485,1.7648,0.0,1.8149,1.842,0.0,1.8945,0.0,1.9078,1.9078,1.9078,0.0,0.0,1.9078,1.9078,1.9078,1.9078,1.9078,1.9078,1.9078,1.9078,1.9078,1.9078,1.9078,1.9078,1.8764,1.8571,1.8437,1.8168,1.8109,1.8314,1.8442,1.8629,1.895,1.895,1.9014,1.9078,1.9078,1.8886,1.8571,1.8173,1.7781,1.7464,1.7136,1.7001,1.7001,1.7001,1.6942,1.6748,1.6164,1.5909,1.5719,1.5062,1.4866,1.4866,1.4866,1.4866,1.4866,1.4866,1.4866,1.4866,1.4866,1.4866,1.4866,1.4866,1.5458,1.5974,1.6304,1.6748,1.7001,1.7001,1.7001,1.7001,1.7001,1.7001,1.7001,1.7001,1.7001,1.7001,1.7001,1.7001,1.7001,1.7001,1.7001,1.7001,1.7001,1.7001,1.6894,1.6731,1.6436,1.6194,1.6007,1.5715,1.5601,1.5601,1.5601,1.5601,1.1732,1.2001,1.2278,1.2604,1.3044,1.351,1.411,1.4676,1.5159,1.574,1.6275,1.6667,1.6779,1.6956,0.0,0.0,0.0,0.0,1.8239,1.842,1.865,0.0,1.9078,0.0,1.9078,1.9078,1.9078,0.0,1.9078,1.9078,1.9078,1.9078,1.9078,1.9078,1.9078,1.9078,1.9078,1.9078,1.9078,1.9078,1.8886,1.8764,1.8571,1.8495,1.8559,1.8641,0.0,1.895,1.9078,1.9078,1.9078,1.9078,1.9078,1.9014,1.8758,1.8232,1.791,1.7653,1.7201,1.7001,1.7001,1.7001,1.7001,1.6877,1.6364,1.6104,1.5909,1.5328,1.5066,1.4866,1.4866,1.4866,1.4866,1.4866,1.4866,1.4866,1.4866,1.4866,1.4996,1.5323,1.5714,1.6169,1.6623,1.6877,1.7001,1.7001,1.7001,1.7001,1.7001,1.7001,1.7001,1.7001,1.7001,1.7001,1.7001,1.7001,1.7001,1.7001,1.7001,1.7001,1.7001,1.7001,1.685,1.6517,1.6382,1.6145,1.5795,1.5661,1.5601,1.5601,1.5601,1.5601,1.1459,1.1732,1.2005,1.2278,1.2604,1.3148,1.4112,1.4406,1.4781,1.5702,0.0,1.62,1.6425,1.6478,1.6596,1.6903,0.0,1.7244,1.8037,1.8201,1.8398,1.8954,1.9014,1.9078,1.9078,1.9078,1.9078,1.9078,1.9078,1.9078,1.9078,1.9078,1.9078,1.9078,1.9078,1.9078,1.9078,1.9078,1.9078,1.9078,1.9078,1.895,1.8699,1.895,1.895,1.8699,0.0,0.0,1.9078,1.9078,1.9078,1.9078,1.9078,1.9078,1.9008,1.8296,1.8039,1.7905,1.7265,1.7071,1.7001,1.7001,1.7001,1.6942,1.6629,1.6239,1.5909,1.5593,1.5202,1.4866,1.4866,1.4866,1.4866,1.4866,1.4866,1.4866,1.4866,1.4866,1.5127,1.5844,1.5974,1.6229,1.6872,1.7001,1.7001,1.7001,1.7001,1.7001,1.7001,1.7001,1.7001,1.7001,1.7001,1.7001,1.7001,1.7001,1.7001,1.7001,1.7001,1.7001,1.7001,1.6974,1.6754,1.6323,1.6285,1.6048,1.5601,1.5601,1.5601,1.5601,1.5601,1.5601,1.1126,1.14,1.1732,1.2005,1.2495,1.2999,1.3356,1.4005,0.0,0.0,1.5585,1.6081,1.614,1.6366,1.6537,1.6596,0.0,0.0,0.0,0.0,1.8035,0.0,0.0,0.0,0.0,0.0,0.0,0.0,0.0,1.9078,1.9078,1.9078,1.9078,1.9078,1.9078,1.9078,1.9078,1.9078,1.9078,1.9078,1.9078,1.9078,1.9014,1.9078,1.9078,1.9014,0.0,0.0,1.9078,1.9078,1.9078,1.9078,1.9078,1.9078,1.9078,1.8629,1.8302,1.7969,1.7529,1.7201,1.7001,1.7001,1.7001,1.6942,1.6629,1.6239,1.5909,1.5593,1.5202,1.4866,1.4866,1.4866,1.4866,1.4866,1.4866,1.4866,1.4866,1.4866,1.5127,1.5844,1.5974,1.6229,1.6872,1.7001,1.7001,1.7001,1.7001,1.7001,1.7001,1.7001,1.7001,1.7001,1.7001,1.7001,1.7001,1.7001,1.7001,1.7001,1.7001,1.7001,1.7001,1.6824,1.6592,1.6323,1.6113,1.5876,1.5601,1.5601,1.5601,1.5601,1.5601,1.5601,1.0802,1.1126,1.1404,1.1732,1.2114,1.2552,1.3085,0.0,0.0,0.0,1.4987,1.5456,1.558,1.5833,0.0,1.6253,0.0,0.0,0.0,0.0,0.0,0.0,0.0,0.0,0.0,0.0,0.0,0.0,0.0,0.0,1.9078,1.9078,1.9078,1.9078,1.9078,1.9078,1.9078,1.9078,1.9078,1.9078,1.9078,1.9078,1.9078,1.9078,1.9078,1.9078,1.9078,0.0,1.9078,1.9078,1.9078,1.9078,1.9078,1.9078,1.9078,1.8699,1.8372,1.7969,1.7594,1.7265,1.7001,1.7001,1.7001,1.6942,1.6818,1.6558,1.6174,1.5849,1.5523,1.5137,1.4931,1.4866,1.4866,1.4866,1.4866,1.4866,1.4866,1.5066,1.5393,1.5909,1.6169,1.6429,1.6942,1.7001,1.7001,1.7001,1.7001,1.7001,1.7001,1.7001,1.7001,1.7001,1.7001,1.7001,1.7001,1.7001,1.7001,1.7001,1.7001,1.7001,1.7001,1.6786,1.6554,1.6323,1.607,1.5893,1.5601,1.5601,1.5601,1.5601,1.5601,1.5601,1.0586,1.0857,1.1181,1.1514,1.1787,1.2206,1.2865,1.3104,0.0,0.0,1.4419,1.4775,1.5011,1.5262,1.5601,0.0,1.5963,0.0,0.0,0.0,0.0,0.0,0.0,0.0,0.0,0.0,0.0,0.0,0.0,0.0,1.9078,1.9078,1.9078,1.9078,1.9078,1.9078,1.9078,1.9078,1.9078,1.9078,1.9078,1.9078,1.9078,1.9078,1.9078,1.9078,1.9078,0.0,0.0,1.9078,1.9078,1.9078,1.9078,1.9078,1.9078,1.8828,1.8437,1.7975,1.7723,1.733,1.7001,1.7001,1.7001,1.7001,1.7001,1.6753,1.6434,1.6169,1.5849,1.5528,1.5192,1.5127,1.5127,1.5127,1.5127,1.5127,1.5127,1.5393,1.5724,1.6039,1.6304,1.6629,1.6942,1.7001,1.7001,1.7001,1.7001,1.7001,1.7001,1.7001,1.7001,1.7001,1.7001,1.7001,1.7001,1.7001,1.7001,1.7001,1.7001,1.698,1.6931,1.671,1.6479,1.6242,1.5994,1.5785,1.5601,1.5601,1.5601,1.5601,1.5601,1.5601,1.0312,1.0692,1.1181,1.1514,1.1787,1.2064,1.241,0.0,0.0,1.3299,1.3851,1.4432,1.4749,1.4975,1.5235,1.5596,0.0,1.5742,0.0,0.0,0.0,0.0,0.0,0.0,0.0,0.0,0.0,0.0,0.0,0.0,0.0,1.9078,1.9078,1.9078,1.9078,1.9078,1.9078,1.9078,1.9078,1.9078,1.9078,1.9078,1.9078,1.9078,1.9078,1.9078,0.0,0.0,0.0,1.9078,1.9078,1.9078,1.9078,1.9078,1.9078,1.9078,1.8623,1.7969,1.7969,1.7518,1.7001,1.7001,1.7001,1.7001,1.7001,1.6753,1.6499,1.6434,1.6234,1.5974,1.5909,1.5909,1.5909,1.5909,1.5909,1.5909,1.5909,1.5909,1.6039,1.6369,1.6499,1.6629,1.6942,1.7001,1.7001,1.7001,1.7001,1.7001,1.7001,1.7001,1.7001,1.7001,1.7001,1.7001,1.7001,1.7001,1.7001,1.7001,1.7001,1.691,1.6769,1.6474,1.6231,1.605,1.5752,1.5618,1.5601,1.5601,1.5601,1.5601,1.5601,1.5601,1.0202,1.0472,1.0747,1.1185,1.1514,1.1841,1.2114,0.0,1.2762,1.2952,1.3336,1.3759,1.4202,1.444,1.4777,1.5213,1.5294,0.0,0.0,0.0,0.0,0.0,0.0,0.0,0.0,0.0,0.0,0.0,0.0,0.0,0.0,1.9078,1.9078,1.9078,1.9078,1.9078,1.9078,1.9078,1.9078,1.9078,1.9078,1.9078,1.9078,1.9078,1.9078,1.9078,0.0,0.0,0.0,1.9078,1.9078,1.9078,1.9078,1.9078,1.9078,1.9078,1.8623,1.7969,1.7969,1.7582,1.7001,1.7001,1.7001,1.7001,1.7001,1.6877,1.6753,1.6564,1.6369,1.6234,1.6039,1.5974,1.5974,1.5974,1.5974,1.5974,1.5974,1.6169,1.6369,1.6499,1.6688,1.6812,1.7007,1.7001,1.7001,1.7001,1.7001,1.7001,1.7001,1.7001,1.7001,1.7001,1.7001,1.7001,1.7001,1.7001,1.7001,1.7001,1.6877,1.6759,1.6731,1.6358,1.6109,1.6012,1.572,1.5601,1.5601,1.5601,1.5601,1.5601,1.5601,1.5601,1.0021,1.0202,1.0421,1.0962,1.1291,1.1568,0.0,1.2169,1.2374,1.2639,1.2882,1.3236,1.359,1.3988,1.4356,1.4808,0.0,1.5175,1.5418,0.0,0.0,0.0,0.0,0.0,0.0,0.0,0.0,0.0,0.0,0.0,0.0,1.9078,1.9078,1.9078,1.9078,1.9078,1.9078,1.9078,1.9078,1.9078,1.9078,1.9078,1.9078,1.9078,1.9078,1.9078,0.0,0.0,0.0,1.9078,1.9078,1.9078,1.9078,1.9078,1.9078,1.9078,1.8623,1.7969,1.7969,1.7582,1.7001,1.7001,1.7001,1.7001,1.7001,1.7001,1.6942,1.6688,1.6623,1.6558,1.6359,1.6294,1.6294,1.6294,1.6294,1.6294,1.6294,1.6494,1.6623,1.6623,1.6812,1.7001,1.7001,1.7001,1.7001,1.7001,1.7001,1.7001,1.7001,1.7001,1.7001,1.7001,1.7001,1.7001,1.7001,1.7001,1.6974,1.691,1.6754,1.6661,1.652,1.619,1.5974,1.5904,1.5682,1.5601,1.5601,1.5601,1.5601,1.5601,1.572,1.5779,0.9717,1.0036,1.0421,1.0962,1.1072,1.1236,1.1841,1.2005,1.206,1.2332,1.2616,1.2874,1.3143,1.3608,1.4014,1.4253,1.4729,0.0,1.5116,0.0,0.0,0.0,0.0,0.0,0.0,0.0,0.0,0.0,0.0,0.0,0.0,1.9078,1.9078,1.9078,1.9078,1.9078,1.9078,1.9078,1.9078,1.9078,1.9078,1.9078,1.9078,1.9078,1.9078,0.0,0.0,0.0,0.0,1.9078,1.9078,1.9078,1.9078,1.9078,1.9078,1.9078,1.8623,1.7969,1.7969,1.7582,1.7001,1.7001,1.7001,1.7001,1.7001,1.7001,1.7001,1.7001,1.7001,1.7001,1.7001,1.7001,1.7001,1.7001,1.7001,1.7001,1.7001,1.7001,1.7001,1.7001,1.7001,1.7001,1.7001,1.7001,1.7001,1.7001,1.7001,1.7001,1.7001,1.7001,1.7001,1.7001,1.7001,1.7001,1.7001,1.7001,1.691,1.6742,1.6725,1.6515,1.6034,1.6012,1.5899,1.5607,1.5601,1.5601,1.5601,1.5601,1.5601,1.5601,1.5963,1.6253,0.9492,0.9753,0.9996,1.066,1.0962,1.1185,1.1623,1.1896,1.206,1.2327,1.2493,1.2587,1.2901,1.315,1.35,1.3931,1.4262,0.0,0.0,0.0,0.0,0.0,0.0,0.0,0.0,0.0,0.0,0.0,0.0,0.0,0.0,1.9078,1.9078,1.9078,1.9078,1.9078,1.9078,1.9078,1.9078,1.9078,1.9078,1.9078,1.9078,1.9078,0.0,0.0,0.0,0.0,0.0,1.9078,1.9078,1.9078,1.9078,1.9078,1.9078,1.9078,1.8623,1.7969,1.7969,1.7582,1.7001,1.7001,1.7001,1.7001,1.7001,1.7001,1.7001,1.7001,1.7001,1.7001,1.7001,1.7001,1.7001,1.7001,1.7001,1.7001,1.7001,1.7001,1.7001,1.7001,1.7001,1.7001,1.7001,1.7001,1.7001,1.7001,1.7001,1.7001,1.7001,1.6867,1.677,1.677,1.663,1.6597,1.6759,1.677,1.6673,1.6441,1.6331,1.6163,1.6012,1.5795,1.5677,1.5601,1.5601,1.5601,1.5601,1.5601,1.572,1.5963,1.6253,1.6543,0.9255,0.9518,0.975,1.0403,1.0752,1.1021,1.135,1.1623,1.1951,1.2164,1.2332,1.2429,1.2621,1.2814,1.3136,1.3514,1.3844,0.0,0.0,0.0,0.0,0.0,0.0,0.0,0.0,0.0,0.0,0.0,0.0,0.0,0.0,0.0,1.9078,1.9078,1.9078,1.9078,1.9078,1.9078,1.9078,1.9078,1.9078,1.9078,1.9078,1.9078,0.0,0.0,0.0,0.0,0.0,1.9078,1.9078,1.9078,1.9078,1.9078,1.9078,1.9078,1.8623,1.7969,1.7969,1.7582,1.7001,1.7001,1.7001,1.7001,1.7001,1.7001,1.7001,1.7001,1.7001,1.7001,1.7001,1.7001,1.7001,1.7001,1.7001,1.7001,1.7001,1.7001,1.7001,1.7001,1.6931,1.6877,1.6877,1.6802,1.6743,1.6743,1.6743,1.6743,1.6743,1.6619,1.6533,1.6533,1.6404,1.6334,1.645,1.6479,1.6431,1.6188,1.6093,1.5969,1.5877,1.5677,1.5601,1.5601,1.5601,1.5661,1.5779,1.5893,1.6129,1.6436,1.6608,1.6897,0.0,0.9417,0.9712,1.0267,1.0562,1.0747,1.1021,1.135,0.0,1.1946,1.2223,1.2387,1.2387,1.2621,1.2889,1.3093,0.0,0.0,0.0,0.0,0.0,0.0,0.0,0.0,0.0,0.0,0.0,0.0,0.0,0.0,0.0,0.0,1.9078,1.9078,1.9078,1.9078,1.9078,1.9078,1.9078,1.9078,1.9078,1.9078,1.9078,1.9078,0.0,0.0,0.0,0.0,0.0,1.9078,1.9078,1.9078,1.9078,1.9078,1.9078,1.9078,1.8617,1.8033,1.8033,1.7582,1.7001,1.7007,1.7001,1.7001,1.6985,1.699,1.7001,1.7001,1.699,1.698,1.698,1.6964,1.6953,1.6953,1.6953,1.6953,1.6953,1.6953,1.6953,1.6953,1.6786,1.6698,1.6698,1.6457,1.6312,1.6312,1.6312,1.6312,1.6312,1.6301,1.6291,1.6291,1.6274,1.6172,1.6001,1.6145,1.6183,1.5996,1.598,1.5888,1.5607,1.5601,1.5601,1.5661,1.5655,1.5839,1.6146,1.6425,1.672,1.7026,1.702,1.7197,0.8772,0.0,0.9576,1.0239,1.0562,1.0747,0.0,1.135,1.1678,1.1946,1.2223,1.2387,1.2387,1.2621,1.2889,0.0,0.0,0.0,0.0,0.0,0.0,0.0,0.0,0.0,0.0,0.0,0.0,0.0,0.0,0.0,0.0,0.0,1.9078,1.9078,1.9078,1.9078,1.9078,1.9078,1.9078,1.9078,1.9078,1.9078,1.9078,1.9078,0.0,0.0,0.0,0.0,1.9078,1.9078,1.9078,1.9078,1.9078,1.9078,1.9078,1.9078,1.8822,1.8437,1.8103,1.7717,1.7335,1.7071,1.7001,1.6974,1.6797,1.6867,1.7001,1.7001,1.6877,1.6743,1.6743,1.6614,1.6474,1.6474,1.6474,1.6474,1.6474,1.6474,1.6474,1.6474,1.6431,1.6398,1.6398,1.635,1.6312,1.6312,1.6312,1.6312,1.6312,1.6151,1.6093,1.6093,1.5871,1.5741,1.5688,1.5958,1.5935,1.5693,1.5682,1.5655,1.5601,1.5601,1.572,1.5963,1.6188,1.6301,1.6425,1.672,1.6903,1.7026,1.725,1.7426,0.8676,0.9015,0.9409,1.0108,1.0444,1.0595,1.0836,1.1295,1.1623,1.1787,1.2114,1.2387,1.2387,1.2621,0.0,0.0,0.0,0.0,0.0,0.0,0.0,0.0,0.0,0.0,0.0,0.0,0.0,0.0,0.0,0.0,0.0,0.0,1.9078,1.9078,1.9078,1.9078,1.9078,1.9078,1.9078,1.9078,1.9078,1.9078,1.9078,1.9078,1.9078,0.0,0.0,0.0,1.9078,1.9078,1.9078,1.9078,1.9078,1.9078,1.9078,1.9078,1.8886,1.8571,1.8168,1.7653,1.7265,1.7071,1.6931,1.6824,1.67,1.6673,1.6689,1.6689,1.6597,1.6506,1.6506,1.6409,1.6312,1.6312,1.6312,1.6312,1.6312,1.6312,1.6312,1.6312,1.6226,1.6145,1.6145,1.6059,1.5984,1.5984,1.5984,1.5984,1.5984,1.5871,1.585,1.585,1.5677,1.5601,1.5601,1.5715,1.5731,1.5607,1.5601,1.5661,1.5844,1.5839,1.5957,1.6253,1.6608,1.672,1.672,1.7079,1.7256,1.7256,1.7426,1.7485,0.8676,0.8929,0.9239,1.0003,1.0302,1.0427,1.0651,1.1185,1.1623,1.1623,1.2005,1.2387,0.0,1.2671,0.0,0.0,0.0,0.0,0.0,0.0,0.0,0.0,0.0,0.0,0.0,0.0,0.0,0.0,0.0,0.0,0.0,0.0,0.0,1.9078,1.9078,1.9078,1.9078,1.9078,1.9078,1.9078,1.9078,1.9078,1.9078,1.9078,1.9078,0.0,0.0,0.0,1.9078,1.9078,1.9078,1.9078,1.9078,1.9078,1.9078,1.9078,1.895,1.8635,1.8238,1.7653,1.706,1.7028,1.6882,1.6715,1.6639,1.6414,1.6253,1.6215,1.6231,1.6258,1.6258,1.6231,1.6204,1.6204,1.6204,1.6204,1.6204,1.6204,1.6204,1.6204,1.6038,1.5958,1.5958,1.5731,1.5601,1.5601,1.5601,1.5601,1.5601,1.5601,1.5601,1.5601,1.5661,1.5661,1.5661,1.572,1.5715,1.5715,1.5715,1.5839,1.614,1.62,1.6312,1.6596,1.6903,1.7079,1.7079,1.7367,1.7485,1.7485,1.7485,1.7485,0.8676,0.8844,0.9087,0.9975,1.0302,1.0427,1.0651,1.1185,1.1623,1.1623,0.0,0.0,0.0,1.2772,1.3211,0.0,0.0,0.0,0.0,0.0,0.0,0.0,0.0,0.0,0.0,0.0,0.0,0.0,0.0,0.0,0.0,0.0,0.0,1.9078,1.9078,1.9078,1.9078,1.9078,1.9078,1.9078,1.9078,1.9078,1.9078,1.9078,1.9078,0.0,0.0,1.9078,1.9078,1.9078,1.9078,1.9078,1.9078,1.9078,1.9078,1.9078,1.9078,1.895,1.8629,1.805,1.7431,1.7216,1.6937,1.665,1.6239,1.6093,1.6023,1.5763,1.5849,1.6066,1.6066,1.5854,1.5709,1.5709,1.5709,1.5709,1.5709,1.5709,1.5709,1.5709,1.5677,1.565,1.565,1.5623,1.5601,1.5601,1.5601,1.5601,1.5601,1.5601,1.5601,1.5601,1.5844,1.6028,1.6028,1.6248,1.636,1.636,1.6135,1.614,1.6425,1.6726,1.6908,1.6903,1.725,1.7426,1.7426,1.7485,1.7485,1.7485,1.7485,1.7485,0.8676,0.8825,0.898,0.9843,1.0152,1.0412,1.0845,1.1295,1.1623,1.1787,0.0,0.0,0.0,0.0,0.0,0.0,0.0,0.0,0.0,0.0,0.0,0.0,0.0,0.0,0.0,0.0,0.0,0.0,0.0,0.0,0.0,0.0,0.0,0.0,1.9078,1.9078,1.9078,1.9078,1.9078,1.9078,1.9078,1.9078,1.9078,1.9078,1.9078,1.9078,0.0,1.9078,1.9078,1.9078,1.9078,1.9078,1.9078,1.9078,1.9078,1.9078,1.9014,1.8828,1.8635,1.8157,1.7568,1.7449,1.7042,1.6484,1.626,1.5981,1.5736,1.5628,1.5677,1.5758,1.5758,1.5682,1.5601,1.5601,1.5601,1.5601,1.5601,1.5601,1.5601,1.5601,1.5601,1.5601,1.5601,1.5601,1.5601,1.5601,1.5601,1.5661,1.5844,1.5844,1.5957,1.607,1.6248,1.6312,1.6312,1.6425,1.6478,1.6478,1.6549,1.6667,1.6785,1.7079,1.725,1.725,1.7426,1.7485,1.7485,1.7485,1.7485,1.7485,1.7485,1.7485,0.8676,0.8825,0.9065,0.9738,1.0026,1.035,1.0937,1.1319,1.1678,1.1946,0.0,0.0,0.0,0.0,0.0,0.0,0.0,0.0,0.0,0.0,0.0,0.0,0.0,0.0,0.0,0.0,0.0,0.0,0.0,0.0,0.0,0.0,0.0,0.0,1.9078,1.9078,1.9078,1.92,1.92,1.9078,1.9078,1.9078,1.9078,1.9078,1.9078,1.9078,1.9078,1.9078,1.9078,1.9078,1.9078,1.9078,1.9078,1.9078,1.9078,1.9078,1.895,1.8699,1.8699,1.8267,1.7719,1.7656,1.7156,1.6486,1.6424,1.616,1.5833,1.5833,1.5833,1.5774,1.5661,1.5601,1.5601,1.5601,1.5601,1.5601,1.5601,1.5601,1.5601,1.5601,1.5601,1.5601,1.5601,1.5601,1.5655,1.572,1.572,1.5839,1.614,1.62,1.6253,1.6478,1.6596,1.6655,1.6714,1.6714,1.6714,1.6714,1.6956,1.7138,1.7138,1.7367,1.7485,1.7485,1.7485,1.7485,1.7485,1.7485,1.7485,1.7485,1.7485,1.7449,0.8726,0.8981,0.9275,0.9793,1.0026,1.0318,1.0786,1.1283,1.1678,1.1946,1.2223,0.0,0.0,0.0,0.0,0.0,0.0,0.0,0.0,0.0,0.0,0.0,0.0,0.0,0.0,0.0,0.0,0.0,0.0,0.0,0.0,0.0,0.0,0.0,0.0,1.9078,1.9078,1.9392,1.9392,1.9078,1.9078,1.9078,1.9078,1.9078,1.9078,1.9078,1.9078,1.9078,1.9078,1.9078,1.9078,1.9078,1.9078,1.9078,1.9078,1.9078,1.9078,1.9072,1.9072,1.8643,1.8125,1.789,1.7375,1.6808,1.6575,1.649,1.6419,1.6419,1.6419,1.6301,1.5774,1.5601,1.5601,1.5601,1.5601,1.5601,1.5601,1.5601,1.5601,1.5601,1.5601,1.5601,1.5601,1.5601,1.572,1.6028,1.6087,1.614,1.6419,1.6478,1.6478,1.6478,1.6779,1.7079,1.7426,1.742,1.742,1.742,1.7426,1.7479,1.7479,1.7485,1.7485,1.7485,1.7485,1.7485,1.7485,1.7485,1.7485,1.7485,1.7485,1.7352,0.8726,0.8981,0.9301,0.961,0.9945,1.0366,1.0977,1.1382,1.1732,1.2169,1.2332,0.0,0.0,0.0,0.0,0.0,0.0,0.0,0.0,0.0,0.0,0.0,0.0,0.0,0.0,0.0,0.0,0.0,0.0,0.0,0.0,0.0,0.0,0.0,0.0,1.9717,1.9717,1.9845,1.9845,1.9717,1.952,1.9392,1.9386,1.92,1.9078,1.9078,1.9078,1.9078,1.9078,1.9078,1.9078,1.9078,1.9078,1.9078,1.9078,1.9078,1.9078,1.9054,1.8891,1.8593,1.8205,1.793,1.7427,1.6966,1.6808,1.6661,1.6478,1.6478,1.6478,1.6478,1.6242,1.6016,1.5903,1.5903,1.572,1.5601,1.5601,1.5779,1.5903,1.5903,1.6076,1.6183,1.6183,1.6183,1.6183,1.6307,1.6371,1.6484,1.6785,1.6785,1.6897,1.7126,1.725,1.7367,1.7479,1.7485,1.7485,1.7485,1.7485,1.7485,1.7485,1.7485,1.7485,1.7485,1.7485,1.7485,1.7485,1.7726,1.779,1.7784,1.7786,1.7759,0.8878,0.913,0.9381,0.9579,0.9896,1.0402,1.1059,1.1388,1.1732,1.2278,1.255,1.2953,1.385,0.0,0.0,0.0,0.0,0.0,0.0,0.0,0.0,0.0,0.0,0.0,0.0,0.0,0.0,0.0,0.0,0.0,0.0,0.0,0.0,0.0,0.0,2.0106,2.0106,2.017,2.0234,2.0234,2.003,1.9839,1.9775,1.952,1.9398,1.9398,1.9328,1.9264,1.9264,1.9136,1.9078,1.9078,1.9078,1.9078,1.9078,1.9078,1.9024,1.8927,1.8746,1.8456,1.8131,1.7937,1.7583,1.7138,1.7138,1.7015,1.6832,1.6832,1.6832,1.6832,1.6832,1.6543,1.6259,1.6259,1.6076,1.5893,1.5893,1.6076,1.6259,1.6259,1.6366,1.6478,1.6478,1.6478,1.6537,1.6661,1.6661,1.6779,1.7138,1.7138,1.7256,1.7485,1.7485,1.7485,1.7485,1.7485,1.7543,1.7667,1.7667,1.7602,1.7485,1.7485,1.7543,1.7667,1.7667,1.7719,1.7778,1.8018,1.8098,1.8004,1.7982,1.7913,0.9133,0.9381,0.9579,0.9579,0.9896,1.0316,1.0884,1.1291,1.1732,1.2278,1.2876,1.3451,1.3906,0.0,0.0,0.0,0.0,0.0,0.0,0.0,0.0,0.0,0.0,0.0,0.0,0.0,0.0,0.0,0.0,0.0,0.0,0.0,0.0,0.0,0.0,0.0,2.0106,2.0418,2.0609,2.0609,2.0609,2.0418,2.0106,2.0106,2.0106,2.0106,1.9775,1.9577,1.9577,1.9264,1.9078,1.9078,1.9078,1.9078,1.9078,1.9078,1.8909,1.8686,1.868,1.833,1.7871,1.7871,1.7696,1.7485,1.7485,1.7485,1.7485,1.7485,1.7485,1.7485,1.7485,1.7009,1.6537,1.6537,1.6478,1.6478,1.6478,1.6478,1.6478,1.6478,1.6537,1.6537,1.6537,1.6537,1.6596,1.6961,1.7026,1.7138,1.7485,1.7485,1.7485,1.7485,1.7485,1.7485,1.7485,1.7485,1.7667,1.7966,1.7972,1.7849,1.7537,1.7485,1.7667,1.7972,1.7972,1.8142,1.8421,1.8415,1.8275,1.8008,1.8002,1.7703,0.9187,0.9381,0.9579,0.9579,0.0,0.0,0.0,1.1291,0.0,0.0,1.2876,1.3451,1.3906,0.0,0.0,0.0,0.0,0.0,0.0,0.0,0.0,0.0,0.0,0.0,0.0,0.0,0.0,0.0,0.0,0.0,0.0,0.0,0.0,0.0,0.0,0.0,2.0799,2.0919,2.0919,2.0919,2.0919,2.0799,2.0418,2.0234,2.0106,2.0106,1.9973,1.9973,1.9909,1.9584,1.945,1.945,1.92,1.9078,1.9078,1.9078,1.8909,1.8656,1.8475,1.8173,1.7847,1.766,1.7545,1.7485,1.7485,1.7485,1.7485,1.7485,1.7485,1.7485,1.7485,1.7361,1.7126,1.6903,1.6661,1.6478,1.6478,1.672,1.6844,1.6844,1.7015,1.7185,1.7185,1.7185,1.7244,1.7367,1.7367,1.7367,1.7485,1.7485,1.7485,1.7485,1.7726,1.7849,1.7849,1.8012,1.8188,1.8311,1.8311,1.8246,1.8129,1.8129,1.8188,1.8311,1.8311,1.8305,1.8421,1.8391,1.8358,1.8267,1.8102,1.7875,0.9335,0.948,0.9579,0.9579,1.0099,1.0719,1.1287,0.0,0.0,0.0,0.0,1.3451,0.0,0.0,0.0,0.0,0.0,0.0,0.0,0.0,0.0,0.0,0.0,0.0,0.0,0.0,0.0,0.0,0.0,0.0,0.0,0.0,0.0,0.0,0.0,0.0,2.1109,2.1109,2.1109,2.1109,2.1109,2.0982,2.0792,2.0609,2.0482,2.0482,2.0361,2.0234,2.0106,1.9909,1.9775,1.9775,1.959,1.9398,1.9316,1.9206,1.8878,1.8487,1.8221,1.795,1.769,1.7533,1.7485,1.7485,1.7485,1.7485,1.7485,1.7485,1.7485,1.7485,1.7485,1.7485,1.7426,1.7256,1.7015,1.6891,1.6891,1.7073,1.7197,1.7197,1.7367,1.7485,1.7485,1.7485,1.7485,1.7485,1.7602,1.7726,1.7726,1.7778,1.7837,1.7837,1.8018,1.8142,1.8142,1.8311,1.848,1.859,1.859,1.8655,1.8771,1.8538,1.8473,1.859,1.8481,1.8481,1.8603,1.8488,1.8397,1.8217,1.8101,1.7916,0.9529,0.9579,0.9628,0.9628,1.015,0.0,1.1806,1.2219,1.2387,1.2387,0.0,0.0,0.0,0.0,0.0,0.0,0.0,0.0,0.0,0.0,0.0,0.0,0.0,0.0,0.0,0.0,0.0,0.0,0.0,0.0,0.0,0.0,0.0,0.0,0.0,0.0,2.1172,2.1172,2.1172,0.0,2.1109,2.1109,2.1109,2.1109,2.1109,2.1109,2.0799,2.0482,2.017,2.017,2.0157,2.0132,2.0075,1.9852,1.9536,1.9287,1.8846,1.8343,1.8082,1.7821,1.7596,1.7543,1.7543,1.7543,1.7485,1.7485,1.7485,1.7485,1.7485,1.7485,1.7485,1.7485,1.7485,1.7485,1.7485,1.7485,1.7485,1.7485,1.7485,1.7485,1.7485,1.7485,1.7485,1.7543,1.7543,1.7596,1.7843,1.8025,1.8025,1.8252,1.8421,1.8421,1.8421,1.848,1.848,1.848,1.859,1.8939,1.8913,1.9022,1.9325,1.8823,1.8642,1.89,1.8581,1.8551,1.8885,1.8591,1.831,1.7995,1.7962,1.7856,0.9579,0.9579,0.0,0.0,1.0602,1.1403,1.213,1.2387,1.2387,1.2387,0.0,0.0,0.0,0.0,0.0,0.0,0.0,0.0,0.0,0.0,0.0,0.0,0.0,0.0,0.0,0.0,0.0,0.0,0.0,0.0,0.0,0.0,0.0,0.0,0.0,2.1859,2.1859,2.1607,2.1481,0.0,2.1235,2.1109,2.1109,2.1109,2.1109,2.1109,2.1046,2.0919,2.0856,2.0609,2.0352,2.0151,1.9907,1.9574,1.9296,1.9233,1.8977,1.8677,1.8615,1.8414,1.8188,1.7966,1.7908,1.7849,1.7602,1.7485,1.7485,1.7485,1.7485,1.7485,1.7485,1.7485,1.7485,1.7485,1.7485,1.7485,1.7485,1.7485,1.7485,1.7485,1.7485,1.7485,1.7485,1.7726,1.7966,1.8188,1.8246,1.8305,1.8305,1.8363,1.8421,1.8421,1.8648,1.8765,1.8765,1.9004,1.9249,1.9301,1.903,1.8954,1.9018,1.9123,1.9079,1.8904,1.8838,1.8692,1.8584,1.8283,1.8055,1.7982,1.7796,1.7649,0.9579,0.0,0.0,1.0339,0.0,1.156,1.2234,1.2387,1.2387,0.0,0.0,0.0,0.0,0.0,0.0,0.0,0.0,0.0,0.0,0.0,0.0,0.0,0.0,0.0,0.0,0.0,0.0,0.0,0.0,0.0,0.0,0.0,0.0,0.0,2.2111,2.2111,2.2111,2.1922,2.1859,2.1859,2.1481,2.1235,2.1109,2.1109,2.1109,2.1109,2.1109,2.1109,2.1102,2.0773,2.0565,2.042,2.0097,1.9762,1.9418,1.9277,1.9069,1.875,1.8623,1.8542,1.8363,1.8252,1.8194,1.8135,1.7954,1.7954,1.7954,1.7954,1.7954,1.7954,1.7954,1.7954,1.7954,1.7954,1.7719,1.7485,1.7485,1.7602,1.7726,1.7726,1.7837,1.7954,1.7954,1.8077,1.8252,1.8363,1.8416,1.8384,1.8384,1.8447,1.8426,1.8426,1.859,1.8704,1.8704,1.8888,1.8945,1.8945,1.8804,1.8718,1.8718,1.8865,1.8871,1.8718,1.8577,1.8375,1.8277,1.7976,1.7822,1.7822,1.7655,1.7582,0.9677,0.0,1.0004,1.0801,1.1225,0.0,1.2192,1.2358,0.0,0.0,0.0,0.0,0.0,0.0,0.0,0.0,0.0,0.0,0.0,0.0,0.0,0.0,0.0,0.0,0.0,0.0,0.0,0.0,0.0,0.0,0.0,0.0,2.2299,2.2299,2.2299,2.2299,2.2299,2.2237,2.2174,2.2174,2.1859,2.1544,2.1299,2.1235,2.1172,2.1109,2.1109,2.1082,2.1015,2.0775,2.0621,2.0501,2.0254,1.9946,1.9632,1.9384,1.9114,1.8851,1.868,1.8596,1.8538,1.8538,1.848,1.848,1.8421,1.8421,1.8421,1.8421,1.8421,1.8421,1.8421,1.8421,1.8421,1.8421,1.8012,1.7661,1.7661,1.7843,1.8083,1.8083,1.8252,1.8421,1.848,1.848,1.8519,1.8474,1.8492,1.8488,1.8435,1.8463,1.849,1.849,1.849,1.849,1.849,1.849,1.849,1.849,1.8444,1.841,1.841,1.8364,1.8337,1.8337,1.8143,1.7969,1.7909,1.7709,1.7582,1.7582,1.7582,1.7582,0.9871,0.0,1.0713,0.0,1.1434,1.1831,0.0,0.0,0.0,0.0,0.0,0.0,0.0,0.0,0.0,0.0,0.0,0.0,0.0,0.0,0.0,0.0,0.0,0.0,0.0,0.0,0.0,0.0,0.0,0.0,0.0,2.2801,2.2981,2.2981,2.2981,2.2981,2.2981,2.2675,2.255,2.255,2.2167,2.1985,2.1985,2.167,2.1355,2.1109,2.1109,2.0962,2.0728,2.0688,2.0374,1.9913,1.9873,1.9706,1.9421,1.9381,1.9361,1.9296,1.9263,1.9249,1.9249,1.8939,1.8823,1.8765,1.8473,1.8421,1.8421,1.8421,1.8421,1.8421,1.8421,1.8421,1.8421,1.8421,1.8363,1.8305,1.8305,1.8305,1.8363,1.8363,1.8363,1.8473,1.8765,1.8823,1.8854,1.8847,1.8831,1.8775,1.8522,1.851,1.849,1.849,1.849,1.849,1.849,1.849,1.849,1.849,1.825,1.8049,1.8049,1.7849,1.7702,1.7702,1.7876,1.7916,1.7642,1.7602,1.7582,1.7582,1.7582,1.7582,1.0167,1.0507,1.0852,0.0,1.1383,1.1732,0.0,0.0,0.0,0.0,0.0,0.0,0.0,0.0,0.0,0.0,0.0,0.0,0.0,0.0,0.0,0.0,0.0,0.0,0.0,0.0,0.0,0.0,0.0,0.0,2.2574,2.2711,2.2915,2.3106,2.3106,2.3106,2.3106,2.2918,2.2801,2.2606,2.2425,2.2299,2.2104,2.1742,2.1506,2.1348,2.0998,2.0795,2.0648,2.0321,2.0034,1.9786,1.9619,1.9479,1.9424,1.9424,1.9424,1.9424,1.9424,1.9424,1.9366,1.9243,1.9178,1.912,1.901,1.8952,1.8952,1.8952,1.8952,1.8952,1.8952,1.8952,1.8952,1.8952,1.8952,1.8952,1.8952,1.8829,1.8771,1.8894,1.8952,1.901,1.912,1.9046,1.8893,1.8888,1.8588,1.8328,1.8257,1.809,1.7983,1.7983,1.7983,1.7983,1.7983,1.8144,1.8205,1.8205,1.8237,1.8208,1.8208,1.8131,1.8055,1.8055,1.7875,1.7775,1.7799,1.7799,1.7905,1.8055,1.8055,1.8055,0.0,0.0,1.0941,1.1097,1.1326,1.16,0.0,0.0,0.0,0.0,0.0,0.0,0.0,0.0,0.0,0.0,0.0,0.0,0.0,0.0,0.0,0.0,0.0,0.0,0.0,0.0,0.0,0.0,0.0,0.0,2.2491,2.2513,2.2623,2.2864,2.2945,2.2988,2.2988,2.3069,2.2944,2.2608,2.2608,2.2448,2.2121,2.1758,2.1656,2.1617,2.1087,2.0767,2.0659,2.0213,1.993,1.9777,1.9562,1.9482,1.9424,1.9424,1.9424,1.9424,1.9424,1.9424,1.9424,1.9424,1.9424,1.9424,1.9424,1.9424,1.9424,1.9424,1.9424,1.9424,1.9424,1.9424,1.9424,1.9424,1.9424,1.9424,1.9424,1.9185,1.912,1.9366,1.9424,1.9424,1.9424,1.9118,1.8898,1.8824,1.8432,1.8077,1.7996,1.7888,1.7793,1.7793,1.7793,1.7793,1.7793,1.801,1.8122,1.8122,1.8272,1.8422,1.8422,1.8422,1.8422,1.8422,1.8003,1.7905,1.8122,1.8122,1.822,1.8422,1.8422,1.8422,0.0,1.0949,0.0,1.1208,0.0,0.0,0.0,0.0,0.0,0.0,0.0,0.0,0.0,0.0,0.0,0.0,0.0,0.0,0.0,0.0,0.0,0.0,0.0,0.0,0.0,0.0,0.0,0.0,0.0,0.0,2.2184,2.2206,2.2213,2.2235,2.2506,2.2645,2.2645,2.2952,2.2952,2.2583,2.2583,2.2438,2.2168,2.1831,2.1704,2.1658,2.1343,2.0987,2.0715,2.068,2.0323,1.9778,1.9764,1.9649,1.9424,1.9424,1.9424,1.9424,1.9424,1.9424,1.9424,1.9424,1.9424,1.9424,1.9424,1.9424,1.9424,1.9424,1.9424,1.9424,1.9424,1.9424,1.9424,1.9424,1.9424,1.9424,1.9424,1.9366,1.9366,1.9424,1.9424,1.9424,1.9424,1.9118,1.8831,1.8557,1.8516,1.8365,1.8025,1.8227,1.837,1.837,1.837,1.837,1.837,1.837,1.837,1.837,1.837,1.8422,1.8422,1.8422,1.8422,1.8422,1.837,1.837,1.837,1.837,1.837,1.8422,1.8422,1.8422,0.0,0.0,0.0,1.1194,0.0,0.0,0.0,0.0,0.0,0.0,0.0,0.0,0.0,0.0,0.0,0.0,0.0,0.0,0.0,0.0,0.0,0.0,0.0,0.0,0.0,0.0,0.0,0.0,0.0,0.0,2.1854,2.1869,2.1972,2.2176,2.2286,2.2337,2.2337,2.2454,2.2454,2.2337,2.2337,2.2286,2.2176,2.1838,2.1685,2.167,2.1343,2.1007,2.0711,2.0515,2.0317,2.0097,2.0097,2.0046,1.9989,1.9989,1.9815,1.9649,1.9649,1.9533,1.9424,1.9424,1.9424,1.9424,1.9424,1.9424,1.9424,1.9424,1.9424,1.9424,1.9424,1.9424,1.9424,1.9424,1.9424,1.9424,1.9424,1.9424,1.9424,1.9424,1.9424,1.9424,1.9649,1.9242,1.8931,1.9043,1.8711,1.8397,1.8286,1.8318,1.8422,1.8422,1.8422,1.8422,1.8422,1.8593,1.8705,1.8705,1.8855,1.8959,1.8959,1.8959,1.8959,1.8959,1.8959,1.8907,1.8705,1.8705,1.8803,1.8959,1.8959,1.8959,1.1507,0.0,0.0,0.0,0.0,0.0,0.0,0.0,0.0,0.0,0.0,0.0,0.0,0.0,0.0,0.0,0.0,0.0,0.0,0.0,0.0,0.0,0.0,0.0,0.0,0.0,0.0,0.0,0.0,0.0,2.1525,2.1533,2.1686,2.2008,2.2023,2.2074,2.2184,2.2184,2.2125,2.2023,2.2023,2.1964,2.1854,2.1635,2.1533,2.1525,2.1306,2.109,2.0856,2.0708,2.0558,2.0436,2.0436,2.0385,2.027,2.027,2.0162,1.9982,1.9982,1.9873,1.9707,1.9707,1.9655,1.9533,1.9533,1.9482,1.9424,1.9424,1.9424,1.9424,1.9424,1.9482,1.9533,1.9649,1.9707,1.9707,1.9707,1.9591,1.9533,1.9533,1.9655,1.9764,1.9931,1.9485,1.9133,1.9353,1.8935,1.8593,1.8593,1.8639,1.8691,1.8691,1.8691,1.8691,1.8691,1.8914,1.9026,1.9026,1.9175,1.9279,1.9279,1.9279,1.9279,1.9279,1.9279,1.9227,1.9026,1.9026,1.913,1.9279,1.9279,1.9279,0.0,0.0,0.0,0.0,0.0,0.0,0.0,0.0,0.0,0.0,0.0,0.0,0.0,0.0,0.0,0.0,0.0,0.0,0.0,0.0,0.0,0.0,0.0,0.0,0.0,0.0,0.0,0.0,0.0,2.1196,2.1196,2.1203,2.1357,2.1672,2.1679,2.1832,2.2154,2.2154,2.2001,2.1679,2.1679,2.1518,2.1211,2.1211,2.1211,2.1211,2.1211,2.1211,2.1211,2.1211,2.1024,2.0716,2.0716,2.0551,2.0328,2.0328,2.0328,2.0328,2.0328,2.0328,2.027,2.027,2.0104,1.9809,1.9809,1.9649,1.9424,1.9424,1.9424,1.9424,1.9424,1.9649,1.9931,2.0213,2.027,2.027,2.027,2.004,1.9815,1.9815,2.0104,2.027,2.0328,1.9822,1.9422,1.9408,1.9117,1.8936,1.8928,1.9123,1.9279,1.9279,1.9279,1.9279,1.9279,1.9279,1.9279,1.9279,1.9279,1.9279,1.9279,1.9279,1.9279,1.9279,1.9279,1.9279,1.9279,1.9279,1.9279,1.9279,1.9286,1.9294,1.2248,0.0,0.0,0.0,0.0,0.0,0.0,0.0,0.0,0.0,0.0,0.0,0.0,0.0,0.0,0.0,0.0,0.0,0.0,0.0,0.0,0.0,0.0,0.0,0.0,0.0,0.0,0.0,2.0334,2.0859,2.0859,2.1079,2.1247,2.1342,2.1342,2.1386,2.1481,2.1481,2.143,2.1342,2.1342,2.1298,2.1211,2.1211,2.1211,2.1211,2.1211,2.1211,2.1211,2.1211,2.1146,2.1089,2.1089,2.1031,2.0974,2.0974,2.0795,2.0608,2.0608,2.0436,2.027,2.027,2.022,2.0162,2.0162,2.0104,2.0046,2.0046,2.0046,2.0046,2.0046,2.0104,2.022,2.027,2.027,2.027,2.027,2.0378,2.0378,2.0213,2.022,2.0385,2.0551,2.0288,2.0016,2.0,1.9725,1.9437,1.9204,1.9279,1.9279,1.9279,1.9279,1.9279,1.9279,1.9279,1.9279,1.9279,1.9279,1.9279,1.9279,1.9279,1.9279,1.9279,1.9279,1.9279,1.9279,1.9279,1.9279,1.9331,1.9573,1.9683,1.2641,1.2498,0.0,0.0,0.0,0.0,1.2516,1.257,0.0,0.0,0.0,0.0,0.0,0.0,0.0,0.0,0.0,0.0,0.0,0.0,0.0,0.0,0.0,0.0,0.0,0.0,0.0,0.0,2.0003,2.0526,2.0713,2.0903,2.1128,2.1375,2.1382,2.1439,2.1546,2.1603,2.1603,2.1603,2.1603,2.1603,2.1603,2.1603,2.1603,2.1603,2.1603,2.1603,2.1603,2.1603,2.1439,2.1211,2.1211,2.1211,2.1211,2.1211,2.1089,2.0902,2.0902,2.0795,2.068,2.068,2.0558,2.05,2.05,2.0385,2.027,2.027,2.027,2.0328,2.0443,2.05,2.05,2.0622,2.068,2.068,2.068,2.0795,2.0845,2.05,2.0558,2.0737,2.0902,2.065,2.0395,2.0234,1.9967,1.9698,1.9316,1.9279,1.9279,1.9279,1.9279,1.9279,1.9279,1.9279,1.9279,1.9279,1.9279,1.9279,1.9279,1.9279,1.9279,1.9279,1.9279,1.9345,1.9529,1.9397,1.9345,1.9536,1.9813,1.9959,1.3261,1.3024,1.2894,0.0,0.0,0.0,1.2813,1.2813,1.2813,0.0,0.0,0.0,0.0,0.0,0.0,0.0,0.0,0.0,0.0,0.0,0.0,0.0,0.0,0.0,0.0,0.0,1.8835,1.8835,1.9672,2.0325,2.0647,2.0669,2.0984,2.1601,2.1665,2.1794,2.2116,2.2116,2.2116,2.2116,2.2116,2.2116,2.2116,2.2116,2.2116,2.2116,2.2116,2.2116,2.2116,2.2116,2.1774,2.1325,2.1268,2.1268,2.1268,2.1211,2.1211,2.1211,2.1211,2.1211,2.1211,2.1211,2.1024,2.078,2.078,2.0608,2.0392,2.0392,2.0392,2.0443,2.0666,2.078,2.0838,2.1146,2.1211,2.1211,2.1211,2.1211,2.1089,2.078,2.1024,2.1211,2.1211,2.0969,2.0669,2.0285,2.0018,1.9749,1.9426,1.9301,1.9279,1.9279,1.9279,1.9279,1.9279,1.9279,1.9279,1.9279,1.9279,1.9279,1.9279,1.9279,1.9279,1.9279,1.9368,1.9477,1.9815,1.9522,1.9499,1.9874,2.0142,2.0234,0.0,0.0,0.0,0.0,0.0,0.0,1.2813,1.2813,1.2813,0.0,0.0,0.0,0.0,0.0,0.0,0.0,0.0,0.0,0.0,0.0,0.0,0.0,0.0,0.0,0.0,0.0,1.8513,1.8513,1.9341,1.9996,2.0256,2.049,2.0803,2.1257,2.1488,2.1777,2.2108,2.2116,2.2116,2.2116,2.2116,2.2116,2.2116,2.2116,2.2116,2.2116,2.2116,2.2116,2.2116,2.2116,2.2059,2.1888,2.1668,2.1611,2.1554,2.1325,2.1211,2.1211,2.1211,2.1211,2.1211,2.1211,2.1153,2.1089,2.1089,2.1089,2.1031,2.1031,2.1031,2.1031,2.1089,2.1089,2.1146,2.1211,2.1211,2.1211,2.1211,2.1211,2.1211,2.1146,2.1153,2.1211,2.1211,2.1159,2.1006,2.0676,2.0355,2.0033,1.9764,1.9492,1.9279,1.9279,1.9279,1.9279,1.9279,1.9279,1.9279,1.9279,1.9279,1.9279,1.9279,1.9279,1.9279,1.9279,1.9535,1.9749,1.9815,1.9749,1.9835,2.015,2.0479,2.057,0.0,0.0,0.0,1.3412,0.0,0.0,0.0,1.3152,1.3152,0.0,0.0,0.0,0.0,0.0,0.0,0.0,0.0,0.0,0.0,0.0,0.0,0.0,0.0,0.0,0.0,0.0,1.8365,1.884,1.9268,1.9659,1.9981,2.0258,2.0623,2.1126,2.1408,2.1704,2.2048,2.2219,2.2305,2.2305,2.2484,2.2562,2.2562,2.2562,2.2562,2.2562,2.2562,2.2562,2.2562,2.2562,2.2562,2.2505,2.2059,2.1888,2.1888,2.1717,2.1546,2.1439,2.1439,2.1325,2.1211,2.1211,2.1211,2.1211,2.1211,2.1211,2.1211,2.1211,2.1211,2.1211,2.1211,2.1211,2.1211,2.1211,2.1211,2.1211,2.1211,2.1211,2.1211,2.1211,2.1211,2.1211,2.1211,2.1211,2.1101,2.0772,2.0387,2.012,1.9852,1.9529,1.9279,1.9279,1.9279,1.9279,1.9279,1.9279,1.9279,1.9279,1.9279,1.9279,1.9279,1.9279,1.9279,1.9279,1.9752,2.0103,2.0273,2.0537,2.0592,2.0431,2.0984,2.1195,0.0,0.0,0.0,0.0,0.0,1.3491,0.0,0.0,0.0,0.0,0.0,0.0,0.0,0.0,0.0,0.0,0.0,0.0,0.0,0.0,0.0,0.0,0.0,0.0,0.0,0.0,1.8265,1.9155,1.9184,1.9375,1.9758,2.003,2.0438,2.104,2.1317,2.1671,2.2011,2.2298,2.2386,2.2386,2.2744,2.2911,2.2919,2.2982,2.3014,2.3014,2.3014,2.3014,2.3014,2.3014,2.3014,2.2958,2.24,2.223,2.2173,2.2116,2.1945,2.1782,2.1782,2.1611,2.1375,2.1375,2.1325,2.1268,2.1211,2.1211,2.1211,2.1211,2.1211,2.1211,2.1211,2.1211,2.1211,2.1211,2.1211,2.1211,2.1211,2.1211,2.1211,2.1211,2.1211,2.1211,2.1211,2.1211,2.1123,2.0859,2.0482,2.0216,1.9894,1.9625,1.9345,1.9286,1.9279,1.9279,1.9279,1.9279,1.9279,1.9279,1.9279,1.9324,1.9376,1.9428,1.9457,1.9576,2.0106,2.0542,2.0873,2.1425,2.1425,2.0991,2.1541,2.1782,0.0,0.0,0.0,0.0,1.3679,0.0,0.0,0.0,0.0,0.0,0.0,0.0,0.0,0.0,0.0,0.0,0.0,0.0,0.0,0.0,0.0,0.0,0.0,0.0,0.0,0.0,0.0,1.8767,1.8847,1.9089,1.9665,1.9992,2.0396,2.0998,2.1286,2.1595,2.2011,2.2051,2.2075,2.2075,2.2378,2.2545,2.2561,2.2871,2.3014,2.3014,2.3014,2.3014,2.3014,2.3014,2.3014,2.2958,2.2683,2.2513,2.2513,2.223,2.2059,2.2059,2.2059,2.2059,2.2002,2.2002,2.1839,2.1611,2.1268,2.1211,2.1211,2.1211,2.1211,2.1211,2.1211,2.1211,2.1211,2.1211,2.1211,2.1211,2.1211,2.1211,2.1211,2.1211,2.1211,2.1211,2.1211,2.1211,2.1196,2.1159,2.0874,2.0489,2.0223,1.9901,1.9647,1.9308,1.9279,1.9279,1.9279,1.9279,1.9279,1.9279,1.9279,1.9428,1.9628,1.9879,2.0171,2.0423,2.0811,2.1153,2.1496,2.1831,2.1998,2.1941,2.2044,2.2059,0.0,0.0,0.0,0.0,0.0,0.0,0.0,0.0,1.3968,0.0,0.0,0.0,0.0,0.0,0.0,0.0,0.0,0.0,0.0,0.0,0.0,0.0,0.0,0.0,0.0,0.0,0.0,0.0,0.0,1.9,1.9381,1.9876,2.0302,2.0716,2.0984,2.1211,2.1354,2.156,2.1663,2.1671,2.2013,2.2234,2.2188,2.2331,2.2402,2.241,2.2617,2.2704,2.272,2.2934,2.3014,2.3014,2.2901,2.2845,2.2796,2.2675,2.2513,2.24,2.24,2.2279,2.2116,2.2116,2.2002,2.1888,2.1774,2.1717,2.1717,2.1717,2.1717,2.1717,2.1717,2.1717,2.1717,2.1717,2.1717,2.1717,2.1717,2.1717,2.1717,2.1717,2.1717,2.1717,2.1717,2.1439,2.1268,2.1439,2.1215,2.0937,2.0766,2.0436,2.0152,1.9813,1.9783,1.9783,1.9783,1.9783,1.9783,1.9783,1.9783,1.9828,1.9931,2.0225,2.0445,2.0582,2.1333,2.1743,2.189,2.2391,2.2619,2.2619,2.2456,2.24,1.673,0.0,0.0,0.0,0.0,0.0,0.0,0.0,0.0,0.0,0.0,0.0,0.0,0.0,0.0,0.0,0.0,0.0,0.0,0.0,0.0,0.0,0.0,0.0,0.0,0.0,0.0,0.0,0.0,0.0,1.9145,1.9715,2.0212,2.0476,2.0775,2.0925,2.0925,2.1127,2.1254,2.1254,2.1655,2.1876,2.1983,2.2079,2.2127,2.225,2.2453,2.2565,2.2581,2.2846,2.2951,2.2983,2.2983,2.2983,2.3014,2.3014,2.2901,2.2683,2.2683,2.257,2.2335,2.2279,2.223,2.223,2.2116,2.2116,2.2116,2.2116,2.2116,2.2116,2.2116,2.2116,2.2116,2.2116,2.2116,2.2116,2.2116,2.2116,2.2116,2.2116,2.2116,2.2116,2.2116,2.1717,2.1554,2.1782,2.1572,2.1405,2.1276,2.0941,2.0597,2.0254,2.0132,2.0078,2.0078,2.0078,2.0078,2.0078,2.0274,2.0371,2.0371,2.0755,2.1039,2.1132,2.1846,2.2261,2.2363,2.2783,2.3014,2.3014,2.2796,2.2683,0.0,0.0,0.0,1.5973,0.0,0.0,0.0,0.0,1.5083,0.0,0.0,0.0,0.0,0.0,0.0,0.0,0.0,0.0,0.0,0.0,0.0,0.0,0.0,0.0,0.0,0.0,0.0,0.0,0.0,0.0,1.9052,1.9687,2.0116,2.0408,2.0742,2.0925,2.0925,2.0933,2.0941,2.0941,2.1246,2.1578,2.1909,2.2257,2.2518,2.2786,2.2803,2.2803,2.2803,2.2819,2.2855,2.2883,2.2883,2.2934,2.3014,2.3014,2.3014,2.3014,2.3014,2.2958,2.2901,2.2683,2.257,2.2513,2.223,2.2116,2.2116,2.2116,2.2116,2.2116,2.2116,2.2116,2.2116,2.2116,2.2116,2.2116,2.2116,2.2116,2.2116,2.2116,2.2116,2.2116,2.2116,2.2059,2.2051,2.2116,2.2101,2.1979,2.1635,2.1292,2.0948,2.0613,2.0277,2.0078,2.0078,2.0078,2.0078,2.0078,2.0645,2.0989,2.0989,2.1591,2.21,2.2442,2.2474,2.2656,2.2942,2.3006,2.3014,2.3014,2.3014,2.3014,0.0,0.0,1.7569,1.7132,0.0,0.0,0.0,0.0,0.0,0.0,0.0,0.0,0.0,0.0,0.0,0.0,0.0,0.0,0.0,0.0,0.0,0.0,0.0,0.0,0.0,0.0,0.0,0.0,0.0,0.0,0.0,1.9323,1.9907,2.0384,2.0512,2.0686,2.0917,2.107,2.1173,2.1173,2.1447,2.1658,2.1769,2.1892,2.2001,2.2061,2.2369,2.2476,2.2501,2.2687,2.2798,2.2851,2.2851,2.2871,2.2879,2.2959,2.3014,2.3014,2.3014,2.3014,2.2974,2.2632,2.2553,2.2458,2.2167,2.2041,2.2041,2.2041,2.2206,2.2386,2.2386,2.2503,2.2683,2.2683,2.2683,2.2683,2.2683,2.2683,2.2683,2.2683,2.2683,2.2683,2.2683,2.2683,2.2626,2.2456,2.2456,2.2381,2.2206,2.2112,2.1814,2.1188,2.1024,2.0859,2.0624,2.0609,2.0703,2.0938,2.1168,2.1378,2.166,2.2062,2.2363,2.2482,2.272,2.2895,2.3014,2.3014,2.3014,2.3014,2.3014,2.3014,1.8422,1.8422,0.0,1.7846,1.739,0.0,1.6431,0.0,0.0,0.0,0.0,0.0,0.0,0.0,0.0,0.0,0.0,0.0,0.0,1.528,0.0,0.0,0.0,0.0,0.0,0.0,0.0,1.7419,1.7869,0.0,0.0,0.0,1.9651,2.0027,2.0146,2.0426,2.0878,2.103,2.1247,2.142,2.1623,2.1725,2.1827,2.1827,2.1928,2.2046,2.2297,2.2406,2.2423,2.2666,2.2736,2.2747,2.2747,2.2777,2.279,2.2812,2.2704,2.2641,2.2641,2.2641,2.2601,2.237,2.2299,2.2259,2.2083,2.2011,2.2011,2.2011,2.2178,2.2331,2.2458,2.2656,2.2863,2.2982,2.3014,2.3014,2.3014,2.3014,2.3014,2.3014,2.3014,2.3014,2.3014,2.3014,2.2958,2.2796,2.274,2.271,2.2704,2.2569,2.2315,2.1862,2.1703,2.1536,2.1306,2.129,2.1385,2.1616,2.1751,2.1918,2.2194,2.249,2.2672,2.2672,2.2903,2.3014,2.3014,2.3014,2.3014,2.3014,2.3014,2.3014]}]]